Date StartTime U_cm/s V_cm/s W_cm/s Ustd_cm/s Vstd_cm/s Wstd_cm/s Uvar_(cm/s)^2 Vvar_(cm/s)^2 Wvar_(cm/s)^2 KE_(m/s)^2 TurbulentKE_(m/s)^2 HorizWindSpeed_cm/s FrictionSpeec_cm/s DragCoef SpeedOfSound_m/s SonicTemperature_C Pressure_mb 
03/04/2014  00:00:00     -159.771      -44.931        3.639       80.685       65.860       32.223     6509.990     4337.582     1038.354        1.972        0.594      165.969       34.947        0.044      337.043        8.748      860.258
03/04/2014  00:01:00     -157.377      -35.753       -3.687       82.254       61.919       31.625     6765.693     3833.957     1000.146        1.883        0.580      161.387       38.193        0.056      336.955        8.601      860.246
03/04/2014  00:02:00     -157.649      -84.277        1.439       61.287       65.532       37.238     3756.109     4294.405     1386.684        2.070        0.472      178.762       37.299        0.044      336.977        8.638      860.216
03/04/2014  00:03:00     -166.215      -35.176       -1.545       96.118       87.492       43.757     9238.575     7654.814     1914.668        2.383        0.940      169.897       43.099        0.064      337.102        8.847      860.197
03/04/2014  00:04:00     -117.154      -77.936       -6.933       79.919       72.678       32.027     6387.074     5282.035     1025.735        1.627        0.635      140.709       39.182        0.078      337.061        8.779      860.191
03/04/2014  00:05:00     -162.430      -61.772       -2.395       66.560       59.179       26.385     4430.228     3502.123      696.186        1.942        0.431      173.779       17.328        0.010      336.994        8.665      860.221
03/04/2014  00:06:00     -102.765      -24.996       -3.201       74.543       51.809       29.326     5556.665     2684.142      860.014        1.015        0.455      105.761       24.245        0.053      337.056        8.769      860.211
03/04/2014  00:07:00      -99.057      -35.351       -4.569       37.938       39.505       23.721     1439.255     1560.620      562.709        0.732        0.178      105.176       23.236        0.049      337.062        8.781      860.226
03/04/2014  00:08:00     -109.751     -123.120        0.071       61.828       48.856       34.540     3822.659     2386.887     1193.005        1.730        0.370      164.936       27.764        0.028      337.138        8.908      860.284
03/04/2014  00:09:00     -123.534      -53.652       -3.770       67.035       37.593       22.961     4493.640     1413.256      527.202        1.229        0.322      134.682       19.978        0.022      337.131        8.897      860.324
03/04/2014  00:10:00      -62.551      -57.467        0.148       40.701       47.390       21.019     1656.567     2245.854      441.800        0.578        0.217       84.941       22.198        0.068      337.132        8.900      860.343
03/04/2014  00:11:00      -17.335      -58.606       20.937       24.656       27.189       23.093      607.934      739.230      533.306        0.303        0.094       61.116       16.265        0.071      337.196        9.008      860.340
03/04/2014  00:12:00      -28.214      -28.482        3.651       13.484       18.519       16.668      181.822      342.940      277.813        0.121        0.040       40.090       10.737        0.072      337.135        8.904      860.285
03/04/2014  00:13:00      -13.984       17.486       18.998       12.595       28.450       24.862      158.636      809.423      618.132        0.122        0.079       22.390       23.196        1.073      337.262        9.120      860.238
03/04/2014  00:14:00      -14.088        8.956       31.003       19.431       26.559       22.390      377.564      705.405      501.309        0.141        0.079       16.693       20.693        1.537      337.286        9.157      860.240
03/04/2014  00:15:00       -8.148       -0.406       38.924       15.754       31.039       12.925      248.179      963.421      167.053        0.148        0.069        8.159       14.589        3.198      337.274        9.137      860.258
03/04/2014  00:16:00      -28.966      -44.985        3.911       26.776       29.386       16.517      716.941      863.515      272.815        0.237        0.093       53.504       16.688        0.097      337.175        8.972      860.309
03/04/2014  00:17:00      -62.014      -13.513        2.397       27.986       21.248       14.121      783.229      451.482      199.392        0.273        0.072       63.469       11.058        0.030      337.162        8.953      860.355
03/04/2014  00:18:00      -32.915       -3.377       -3.558       24.919       29.526       14.778      620.980      871.814      218.376        0.141        0.086       33.088       13.340        0.163      337.156        8.942      860.360
03/04/2014  00:19:00        9.543        5.276       -8.149       20.386       16.879        7.376      415.591      284.892       54.412        0.047        0.038       10.904        7.453        0.467      336.995        8.672      860.334
03/04/2014  00:20:00      -21.601        8.317       -5.486       22.451       16.336       11.485      504.036      266.876      131.916        0.073        0.045       23.147        9.760        0.178      337.022        8.715      860.307
03/04/2014  00:21:00      -15.038      -28.963       -4.471       18.914       10.476        9.167      357.745      109.749       84.031        0.082        0.028       32.634       10.712        0.108      337.019        8.708      860.277
03/04/2014  00:22:00       18.325       -5.875       19.588       17.589       11.189       13.361      309.377      125.197      178.517        0.068        0.031       19.243        5.959        0.096      337.167        8.958      860.252
03/04/2014  00:23:00       46.550       24.963       14.616       18.458       18.051       22.768      340.713      325.824      518.384        0.209        0.059       52.821       11.398        0.047      337.099        8.844      860.248
03/04/2014  00:24:00       45.471       47.112       29.581       32.514       18.903       21.902     1057.136      357.314      479.683        0.353        0.095       65.476       18.271        0.078      337.103        8.850      860.251
03/04/2014  00:25:00       53.573       28.711       20.435       25.840       23.384       20.417      667.707      546.829      416.861        0.287        0.082       60.781       15.294        0.063      337.087        8.823      860.265
03/04/2014  00:26:00       64.119       41.353       17.373       26.390       22.461       23.289      696.441      504.504      542.373        0.393        0.087       76.297       15.020        0.039      337.078        8.808      860.279
03/04/2014  00:27:00       65.602       43.851       25.590       29.337       26.644       24.777      860.639      709.881      613.881        0.453        0.109       78.909       15.344        0.038      337.028        8.725      860.301
03/04/2014  00:28:00      102.256       45.173        2.836       29.371       35.702       29.586      862.678     1274.622      875.304        0.776        0.151      111.789       19.628        0.031      337.011        8.696      860.322
03/04/2014  00:29:00      101.893       51.827        5.286       47.152       30.942       25.276     2223.283      957.432      638.882        0.846        0.191      114.316       16.941        0.022      337.012        8.699      860.333
03/04/2014  00:30:00       67.080       55.387       24.639       45.289       40.490       30.770     2051.069     1639.402      946.780        0.641        0.232       86.991       20.642        0.056      337.040        8.746      860.325
03/04/2014  00:31:00       71.522       68.831       48.575       43.931       28.958       35.829     1929.905      838.568     1283.713        0.813        0.203       99.263       26.500        0.071      337.106        8.855      860.311
03/04/2014  00:32:00       72.118       61.399       48.128       33.563       28.607       27.464     1126.453      818.345      754.276        0.699        0.135       94.714       19.435        0.042      336.992        8.665      860.302
03/04/2014  00:33:00       79.348       65.871       41.365       33.835       29.543       38.060     1144.823      872.803     1448.548        0.791        0.173      103.126       25.455        0.061      337.021        8.712      860.321
03/04/2014  00:34:00       79.648       51.994       36.330       46.894       26.005       33.052     2199.076      676.281     1092.444        0.717        0.198       95.116       28.187        0.088      336.991        8.663      860.349
03/04/2014  00:35:00       29.518       41.131       40.707       38.241       35.061       36.582     1462.406     1229.283     1338.226        0.412        0.201       50.626       21.015        0.172      337.030        8.728      860.383
03/04/2014  00:36:00       36.613       25.416       19.074       24.840       26.311       24.468      617.043      692.248      598.687        0.213        0.095       44.570       21.048        0.223      337.010        8.694      860.442
03/04/2014  00:37:00       34.559       49.098       41.969       16.687       21.034       20.717      278.446      442.429      429.178        0.326        0.058       60.041        9.915        0.027      337.049        8.760      860.481
03/04/2014  00:38:00       33.873       27.189       26.580       27.545       24.587       21.907      758.708      604.521      479.928        0.222        0.092       43.435       17.790        0.168      337.072        8.798      860.512
03/04/2014  00:39:00       56.620       30.775        2.658       15.578       14.572       11.889      242.675      212.330      141.350        0.238        0.030       64.443        3.841        0.004      336.985        8.653      860.532
03/04/2014  00:40:00       50.964       27.903       -0.436       13.304        9.602       10.555      176.987       92.205      111.413        0.188        0.019       58.103        5.319        0.008      336.968        8.620      860.539
03/04/2014  00:41:00       44.976       36.689        4.845       22.872       23.810       19.299      523.113      566.928      372.447        0.243        0.073       58.042        7.581        0.017      336.972        8.629      860.545
03/04/2014  00:42:00       52.834       25.205        1.689       21.008       15.146       16.374      441.356      229.398      268.117        0.218        0.047       58.538       12.576        0.046      336.991        8.663      860.548
03/04/2014  00:43:00       51.596       35.692       -3.270       18.359       18.631       14.352      337.067      347.132      205.983        0.242        0.045       62.738        7.336        0.014      336.977        8.638      860.553
03/04/2014  00:44:00       42.671       32.877        4.380       34.822       25.951       16.577     1212.600      673.433      274.800        0.254        0.108       53.867       14.899        0.077      337.010        8.696      860.585
03/04/2014  00:45:00       11.705        2.607        2.697       24.748       18.038       19.120      612.481      325.374      365.574        0.073        0.065       11.992       14.477        1.457      337.019        8.710      860.636
03/04/2014  00:46:00       -8.384        7.082       -7.754        8.156       11.042        6.981       66.526      121.932       48.733        0.021        0.012       10.975        5.604        0.261      337.064        8.784      860.676
03/04/2014  00:47:00      -43.004      -20.375       -1.505       15.009       18.294       11.554      225.271      334.657      133.488        0.148        0.035       47.586        9.904        0.043      337.123        8.884      860.701
03/04/2014  00:48:00      -46.366      -29.911       -3.427       20.137       17.935       12.170      405.501      321.669      148.111        0.197        0.044       55.177        6.963        0.016      337.194        9.005      860.702
03/04/2014  00:49:00      -34.419      -29.815       -4.366       18.991       13.375       14.186      360.669      178.888      201.251        0.142        0.037       45.536       14.043        0.095      337.257        9.111      860.705
03/04/2014  00:50:00      -33.010       11.717       -4.203       38.076       24.342       19.207     1449.782      592.547      368.896        0.183        0.121       35.028       16.876        0.232      337.345        9.257      860.727
03/04/2014  00:51:00      -85.626      -12.427       -7.668       28.611       37.135       17.592      818.576     1379.009      309.464        0.503        0.125       86.523       17.273        0.040      337.436        9.409      860.760
03/04/2014  00:52:00      -84.596      -42.087       -6.643       29.833       29.539       15.518      890.022      872.532      240.795        0.549        0.100       94.486        6.030        0.004      337.190        8.997      860.794
03/04/2014  00:53:00     -133.187      -55.560       -0.700       27.738       25.869       17.254      769.402      669.192      297.696        1.128        0.087      144.311       14.606        0.010      337.156        8.941      860.812
03/04/2014  00:54:00     -122.111      -73.745       -2.322       76.360       54.254       30.995     5830.873     2943.512      960.676        1.504        0.487      142.651       40.012        0.079      337.186        8.990      860.823
03/04/2014  00:55:00     -169.879      -95.201       -8.123       59.999       41.815       28.794     3599.823     1748.512      829.113        2.208        0.309      194.736       24.545        0.016      337.232        9.064      860.831
03/04/2014  00:56:00     -154.383      -48.558       -5.602       73.323       59.509       33.313     5376.245     3541.335     1109.773        1.812        0.501      161.839       29.854        0.034      337.267        9.125      860.850
03/04/2014  00:57:00     -155.309     -106.866      -16.333       43.987       40.567       24.256     1934.822     1645.695      588.345        1.999        0.208      188.524       16.805        0.008      337.252        9.098      860.869
03/04/2014  00:58:00      -36.400      -78.485        5.706       45.005       48.694       29.966     2025.478     2371.073      897.956        0.641        0.265       86.515       25.450        0.087      337.260        9.113      860.915
03/04/2014  00:59:00     -175.212      -47.260      -13.512       58.387       34.883       24.596     3409.062     1216.848      604.954        1.917        0.262      181.474       26.439        0.021      337.186        8.989      860.972
03/04/2014  01:00:00     -165.704      -34.355       -2.435       39.718       48.479       26.051     1577.491     2350.252      678.674        1.662        0.230      169.228       21.116        0.016      337.166        8.957      861.021
03/04/2014  01:01:00     -141.294       -9.177        1.544       62.623       48.805       32.550     3921.686     2381.911     1059.533        1.371        0.368      141.591       29.897        0.045      337.259        9.112      861.059
03/04/2014  01:02:00     -118.985      -12.241        1.609       54.962       39.363       29.505     3020.850     1549.441      870.551        0.987        0.272      119.613       30.322        0.064      337.158        8.944      861.080
03/04/2014  01:03:00     -128.358      -36.790       -0.055       59.272       38.499       26.037     3513.119     1482.196      677.935        1.175        0.284      133.526       28.702        0.046      337.190        8.998      861.081
03/04/2014  01:04:00     -161.300      -16.154       -1.594       52.527       56.550       30.753     2759.100     3197.849      945.764        1.659        0.345      162.107       30.427        0.035      337.168        8.960      861.087
03/04/2014  01:05:00     -144.780      -25.818       -8.103       41.971       41.033       25.960     1761.570     1683.718      673.914        1.291        0.206      147.064       20.268        0.019      337.146        8.925      861.100
03/04/2014  01:06:00     -122.260      -22.160        1.582       71.134       48.148       28.675     5059.996     2318.211      822.267        1.182        0.410      124.252       23.620        0.036      337.140        8.913      861.121
03/04/2014  01:07:00     -137.672      -60.548       -3.521       46.385       34.699       26.737     2151.591     1204.049      714.886        1.335        0.204      150.398       20.391        0.018      337.146        8.923      861.138
03/04/2014  01:08:00     -147.808      -63.935       -7.598       50.602       34.598       23.344     2560.570     1196.989      544.923        1.515        0.215      161.043       26.966        0.028      337.152        8.932      861.128
03/04/2014  01:09:00     -217.785      -47.458      -12.979       81.097       68.886       42.707     6576.783     4745.258     1823.919        3.150        0.657      222.896       41.141        0.034      337.225        9.052      861.120
03/04/2014  01:10:00     -117.470      -52.991       15.085      132.715      105.073       52.024    17613.313    11040.303     2706.534        2.409        1.568      128.869       62.209        0.233      337.356        9.273      861.132
03/04/2014  01:11:00     -150.728     -253.583      -15.767       96.376      114.481       49.294     9288.363    13105.946     2429.914        5.604        1.241      294.997       51.461        0.030      337.268        9.126      861.158
03/04/2014  01:12:00     -119.486     -184.044      -10.573      103.040       95.954       57.298    10617.321     9207.206     3283.083        3.568        1.155      219.429       59.925        0.075      337.280        9.145      861.164
03/04/2014  01:13:00     -149.467      -90.188       -5.893       86.801       63.670       35.789     7534.359     4053.882     1280.849        2.169        0.643      174.569       35.141        0.041      337.238        9.078      861.174
03/04/2014  01:14:00     -164.107      -37.665        5.375       96.424       68.207       34.112     9297.510     4652.198     1163.640        2.174        0.756      168.373       33.598        0.040      337.237        9.073      861.164
03/04/2014  01:15:00     -133.874     -131.521       -5.923       70.029       63.102       30.304     4903.992     3981.904      918.336        2.253        0.490      187.670       33.511        0.032      337.262        9.115      861.157
03/04/2014  01:16:00     -102.746      -94.597       -8.341       71.449       59.458       28.969     5104.969     3535.195      839.179        1.453        0.474      139.662       28.030        0.040      337.277        9.143      861.149
03/04/2014  01:17:00      -65.524      -25.526        5.216       58.958       34.365       25.696     3476.054     1180.959      660.307        0.514        0.266       70.320       26.888        0.146      337.296        9.175      861.154
03/04/2014  01:18:00      -72.876      -20.350        0.091       29.389       31.224       17.431      863.721      974.931      303.823        0.393        0.107       75.664       10.992        0.021      337.250        9.099      861.138
03/04/2014  01:19:00     -136.825      -18.442       -3.526       56.131       41.245       25.120     3150.687     1701.124      631.029        1.228        0.274      138.063       26.634        0.037      337.280        9.146      861.117
03/04/2014  01:20:00      -74.695       -8.266        2.072       49.882       35.957       22.091     2488.211     1292.879      488.020        0.496        0.213       75.151       24.907        0.110      337.407        9.361      861.108
03/04/2014  01:21:00      -24.202       -7.059       17.544       51.348       30.106       17.562     2636.566      906.361      308.427        0.240        0.193       25.210       17.402        0.476      337.384        9.322      861.091
03/04/2014  01:22:00      -59.724        8.865       -0.312       31.612       43.621       20.269      999.345     1902.785      410.814        0.348        0.166       60.378       24.590        0.166      337.299        9.180      861.070
03/04/2014  01:23:00      -86.251      125.901      -22.507       31.810       31.372       23.330     1011.903      984.192      544.308        1.317        0.127      152.611       21.310        0.019      337.225        9.056      861.083
03/04/2014  01:24:00     -145.519       60.503      -11.450       75.328       48.752       32.008     5674.308     2376.730     1024.520        1.702        0.454      157.596       33.739        0.046      337.500        9.516      861.105
03/04/2014  01:25:00     -228.533      -32.314       -6.102       81.153       77.427       41.496     6585.781     5994.953     1721.908        3.380        0.715      230.806       43.553        0.036      337.190        8.995      861.117
03/04/2014  01:26:00     -130.578       -8.076       -3.832       61.187       49.808       24.576     3743.851     2480.827      603.964        1.198        0.341      130.828       22.953        0.031      337.254        9.105      861.133
03/04/2014  01:27:00      -34.126       19.475        6.463       36.686       22.727       21.070     1345.891      516.518      443.961        0.195        0.115       39.292       19.218        0.239      337.345        9.257      861.146
03/04/2014  01:28:00      -81.517      -24.576        2.727       44.973       28.472       19.708     2022.549      810.650      388.416        0.524        0.161       85.141       17.625        0.043      337.209        9.031      861.179
03/04/2014  01:29:00     -121.678       -9.056      -22.788       30.751       33.825       22.279      945.647     1144.161      496.337        0.900        0.129      122.014       14.428        0.014      337.325        9.224      861.241
03/04/2014  01:30:00     -165.908      -50.476        2.086       76.425       72.298       35.774     5840.760     5226.998     1279.808        2.121        0.617      173.416       41.830        0.058      337.163        8.948      861.279
03/04/2014  01:31:00      -78.781       -9.973       -0.430       39.544       45.779       25.574     1563.745     2095.727      654.005        0.531        0.216       79.410       23.520        0.088      337.164        8.953      861.261
03/04/2014  01:32:00     -155.079       10.060       -7.290       25.126       39.083       22.241      631.321     1527.457      494.665        1.343        0.133      155.405       13.728        0.008      337.131        8.896      861.212
03/04/2014  01:33:00     -163.409     -106.600       -7.165      108.303       85.513       42.691    11729.503     7312.515     1822.511        2.949        1.043      195.105       38.477        0.039      336.978        8.638      861.172
03/04/2014  01:34:00      -67.202      -16.409       -8.263       79.350       72.501       35.967     6296.464     5256.439     1293.604        0.885        0.642       69.176       38.169        0.304      336.953        8.598      861.105
03/04/2014  01:35:00     -104.158       -6.896       -5.461       58.144       46.511       29.200     3380.774     2163.310      852.633        0.866        0.320      104.386       24.936        0.057      337.089        8.827      861.090
03/04/2014  01:36:00     -106.913       -7.063       -4.943       41.019       47.841       25.625     1682.564     2288.789      656.628        0.807        0.231      107.146       21.775        0.041      337.066        8.789      861.074
03/04/2014  01:37:00      -69.517       70.878       -8.210       55.636       47.454       29.196     3095.403     2251.880      852.413        0.806        0.310       99.279       32.383        0.106      337.033        8.733      861.046
03/04/2014  01:38:00     -135.115       99.953      -27.608       45.782       39.747       30.646     2096.013     1579.823      939.199        1.681        0.231      168.068       18.422        0.012      336.985        8.654      861.038
03/04/2014  01:39:00      -84.090      133.362       -8.233       50.679       43.132       41.285     2568.369     1860.338     1704.460        1.553        0.307      157.659       29.312        0.035      336.911        8.529      861.015
03/04/2014  01:40:00      -39.568       91.645      -14.166       30.990       26.463       22.775      960.397      700.280      518.723        0.617        0.109       99.822       16.712        0.028      336.842        8.415      860.965
03/04/2014  01:41:00       -8.160      134.486        7.495       40.813       66.937       36.234     1665.706     4480.511     1312.903        1.283        0.373      134.733       28.068        0.043      336.847        8.423      860.922
03/04/2014  01:42:00     -132.100        2.795       -7.517       59.017       78.868       30.825     3482.988     6220.150      950.188        1.408        0.533      132.129       25.111        0.036      336.980        8.644      860.883
03/04/2014  01:43:00     -131.409       54.743      -22.499       92.288       40.914       29.541     8517.090     1673.958      872.667        1.592        0.553      142.356       36.607        0.066      336.775        8.303      860.864
03/04/2014  01:44:00      -38.671      120.081      -28.252       48.011       38.162       21.341     2305.075     1456.343      455.435        1.046        0.211      126.154       18.600        0.022      336.863        8.451      860.829
03/04/2014  01:45:00     -176.340      193.796      -35.424       75.051       94.072       43.169     5632.593     8849.513     1863.565        4.312        0.817      262.017       42.787        0.027      336.735        8.234      860.825
03/04/2014  01:46:00     -178.837      109.681      -26.163       97.395       55.636       41.188     9485.843     3095.405     1696.486        2.949        0.714      209.792       41.547        0.039      336.821        8.378      860.842
03/04/2014  01:47:00     -177.512       77.629      -18.789      126.032       65.896       48.466    15884.010     4342.274     2348.950        3.023        1.129      193.745       45.978        0.056      336.792        8.332      860.831
03/04/2014  01:48:00     -187.908       45.622      -21.325       91.247       94.592       57.165     8325.996     8947.602     3267.827        2.919        1.027      193.366       47.457        0.060      336.737        8.238      860.817
03/04/2014  01:49:00     -122.713       35.019      -12.593       77.630       54.084       46.934     6026.377     2925.078     2202.832        1.380        0.558      127.612       33.670        0.070      336.773        8.300      860.809
03/04/2014  01:50:00     -152.191       26.711      -13.611       63.074       60.947       43.033     3978.320     3714.514     1851.806        1.680        0.477      154.517       19.662        0.016      336.955        8.603      860.851
03/04/2014  01:51:00     -169.778       -8.828      -32.651       97.882       80.764       56.055     9580.913     6522.872     3142.152        2.460        0.962      170.007       49.755        0.086      336.766        8.287      860.877
03/04/2014  01:52:00     -123.222      -46.037      -15.295      108.162       84.538       60.647    11698.919     7146.600     3678.104        2.003        1.126      131.541       54.236        0.170      336.719        8.208      860.845
03/04/2014  01:53:00     -156.093      108.292      -28.901      122.275       99.700       66.724    14951.186     9940.011     4452.076        3.313        1.467      189.979       67.812        0.127      336.763        8.283      860.815
03/04/2014  01:54:00     -171.883       16.234      -25.057      159.312       81.212       49.509    25380.224     6595.419     2451.177        3.243        1.721      172.648       69.660        0.163      336.786        8.319      860.776
03/04/2014  01:55:00     -273.494      -72.220      -10.012      102.635      110.669       56.513    10533.844    12247.725     3193.732        5.304        1.299      282.869       55.220        0.038      336.642        8.078      860.799
03/04/2014  01:56:00     -132.604       -2.059      -13.006       63.051       51.895       35.329     3975.463     2693.120     1248.151        1.284        0.396      132.620       31.339        0.056      336.658        8.107      860.801
03/04/2014  01:57:00     -200.549      -16.439      -36.312       99.671      109.078       47.218     9934.220    11898.018     2229.583        3.293        1.203      201.222       40.447        0.040      336.591        7.992      860.803
03/04/2014  01:58:00     -146.156       99.123      -29.994      142.643      138.785       75.048    20346.997    19261.223     5632.237        3.866        2.262      176.599       63.245        0.128      336.533        7.895      860.783
03/04/2014  01:59:00     -118.322       14.574       -4.945      125.504       58.313       77.603    15751.133     3400.423     6022.237        1.970        1.259      119.216       81.613        0.469      336.375        7.632      860.778
03/04/2014  02:00:00     -130.694        3.718       -3.382       70.033       58.435       41.552     4904.580     3414.602     1726.531        1.357        0.502      130.746       35.713        0.075      336.299        7.507      860.778
03/04/2014  02:01:00     -167.109       11.333      -18.315      108.309      102.085       50.987    11730.940    10421.441     2599.709        2.657        1.238      167.493       43.238        0.067      336.331        7.559      860.757
03/04/2014  02:02:00     -190.777       23.163      -21.984      107.009      103.405       58.454    11450.888    10692.548     3416.916        3.148        1.278      192.178       47.154        0.060      336.225        7.380      860.781
03/04/2014  02:03:00     -165.650      -35.298       -9.148      104.283      106.281       55.294    10874.924    11295.676     3057.410        2.699        1.261      169.369       56.663        0.112      336.253        7.429      860.786
03/04/2014  02:04:00     -237.139      164.355      -37.261      123.957      100.624       65.544    15365.214    10125.279     4296.036        5.721        1.489      288.526       58.353        0.041      336.170        7.289      860.751
03/04/2014  02:05:00      -97.536       69.801        0.225       68.246      134.756       52.002     4657.518    18159.170     2704.255        1.995        1.276      119.940       50.349        0.176      336.206        7.351      860.670
03/04/2014  02:06:00     -168.569      -15.276      -15.158       68.040       87.865       40.241     4629.455     7720.174     1619.358        2.142        0.698      169.259       27.570        0.027      336.190        7.325      860.649
03/04/2014  02:07:00      -98.978       68.039      -17.422       72.308      134.899       49.473     5228.494    18197.713     2447.618        2.030        1.294      120.108       42.931        0.128      336.259        7.438      860.610
03/04/2014  02:08:00     -150.684      -12.266      -14.513       66.695       54.045       41.288     4448.241     2920.850     1704.727        1.607        0.454      151.182       35.000        0.054      336.266        7.451      860.643
03/04/2014  02:09:00     -178.962      -56.649        8.859       92.078       64.646       49.282     8478.296     4179.047     2428.710        2.520        0.754      187.714       38.239        0.041      336.117        7.201      860.662
03/04/2014  02:10:00      -93.951      -24.821       -5.981       78.730       63.026       38.679     6198.468     3972.237     1496.088        1.057        0.583       97.175       45.875        0.223      336.201        7.345      860.692
03/04/2014  02:11:00     -117.421       10.373       -5.082      114.181       87.753       40.793    13037.307     7700.552     1664.081        1.816        1.120      117.878       41.572        0.124      336.170        7.291      860.674
03/04/2014  02:12:00     -188.004       48.938      -22.960      110.459      143.724       65.869    12201.102    20656.534     4338.663        3.773        1.860      194.269       74.860        0.148      336.121        7.207      860.655
03/04/2014  02:13:00      -69.616      116.976       -3.554       74.696       94.477       46.045     5579.500     8925.862     2120.140        1.758        0.831      136.124       46.409        0.116      336.141        7.242      860.644
03/04/2014  02:14:00     -156.626      225.934      -36.182       59.323       95.527       43.546     3519.240     9125.440     1896.276        4.571        0.727      274.914       35.434        0.017      336.008        7.019      860.642
03/04/2014  02:15:00     -178.319      124.455      -33.386       73.584       94.854       35.776     5414.678     8997.331     1279.954        3.204        0.785      217.456       36.376        0.028      336.048        7.086      860.665
03/04/2014  02:16:00     -108.597      176.509      -21.917       66.964       77.197       49.669     4484.154     5959.305     2467.030        2.817        0.646      207.241       52.166        0.063      335.991        6.992      860.648
03/04/2014  02:17:00      -98.450       76.900      -17.230       60.310       91.638       33.720     3637.242     8397.572     1137.069        1.454        0.659      124.924       36.691        0.086      336.123        7.213      860.637
03/04/2014  02:18:00     -112.940      151.288      -23.350       69.378      120.319       53.819     4813.330    14476.547     2896.521        2.918        1.109      188.795       62.402        0.109      336.027        7.051      860.634
03/04/2014  02:19:00     -128.239       86.743      -19.044       62.266       63.248       38.190     3877.017     4000.313     1458.498        1.683        0.467      154.821       29.924        0.037      336.027        7.052      860.650
03/04/2014  02:20:00     -103.369       -7.321      -11.946       51.574       47.015       32.371     2659.843     2210.385     1047.899        0.840        0.296      103.628       18.489        0.032      336.026        7.051      860.612
03/04/2014  02:21:00      -36.783      -31.349        6.476       54.654       41.639       39.697     2987.032     1733.830     1575.869        0.434        0.315       48.330       31.794        0.433      335.984        6.981      860.578
03/04/2014  02:22:00     -120.962        1.365      -21.329       76.649       59.226       35.598     5875.066     3507.708     1267.212        1.287        0.532      120.970       34.160        0.080      335.978        6.971      860.595
03/04/2014  02:23:00     -227.793      122.076      -39.051       86.424       89.467       50.823     7469.062     8004.300     2582.964        4.318        0.903      258.442       50.443        0.038      335.942        6.909      860.571
03/04/2014  02:24:00     -164.309       -7.843      -10.988       80.013      109.391       45.626     6402.020    11966.382     2081.767        2.381        1.023      164.496       36.240        0.049      335.973        6.961      860.561
03/04/2014  02:25:00     -128.933      -31.350      -10.094       65.854       83.762       50.034     4336.779     7016.143     2503.367        1.578        0.693      132.689       39.401        0.088      335.854        6.764      860.583
03/04/2014  02:26:00     -228.707      -29.799      -16.385       88.667       73.889       41.897     7861.811     5459.567     1755.400        3.427        0.754      230.640       29.416        0.016      335.785        6.646      860.607
03/04/2014  02:27:00     -144.155      -65.965       -9.192      109.069       59.435       52.221    11896.058     3532.484     2727.073        2.168        0.908      158.531       54.178        0.117      335.821        6.708      860.609
03/04/2014  02:28:00     -112.529      -80.670       -6.129      120.222       58.530       49.545    14453.305     3425.796     2454.717        1.977        1.017      138.457       48.465        0.123      335.839        6.738      860.610
03/04/2014  02:29:00     -243.960      -49.127      -17.333       74.146       66.270       37.238     5497.592     4391.681     1386.669        3.675        0.564      248.858       36.784        0.022      335.778        6.635      860.622
03/04/2014  02:30:00     -240.232      -80.668      -12.620      102.416       80.457       42.479    10488.956     6473.366     1804.434        4.157        0.938      253.414       40.874        0.026      335.801        6.673      860.646
03/04/2014  02:31:00     -261.197      -74.298      -23.211       93.980       92.154       42.193     8832.215     8492.282     1780.231        4.669        0.955      271.558       37.052        0.019      335.863        6.775      860.660
03/04/2014  02:32:00     -131.728      -84.520        9.106      105.497       57.509       40.491    11129.698     3307.246     1639.513        2.032        0.804      156.512       47.931        0.094      335.838        6.737      860.667
03/04/2014  02:33:00     -225.688      -36.024      -12.791       82.468       75.409       41.655     6800.948     5686.471     1735.127        3.331        0.711      228.545       41.382        0.033      335.837        6.734      860.682
03/04/2014  02:34:00     -269.802      -23.197       -0.847       97.135       79.724       48.035     9435.175     6355.984     2307.334        4.571        0.905      270.797       48.092        0.032      335.832        6.723      860.717
03/04/2014  02:35:00     -246.478      -37.709      -22.135      127.552       98.357       41.564    16269.593     9674.162     1727.544        4.516        1.384      249.346       43.699        0.031      335.841        6.740      860.736
03/04/2014  02:36:00     -192.262       -8.985      -11.906      123.962       80.587       52.020    15366.652     6494.293     2706.082        3.087        1.228      192.472       57.671        0.090      335.862        6.777      860.739
03/04/2014  02:37:00     -228.665      -20.480      -13.622       67.364       80.368       43.181     4537.883     6458.966     1864.589        3.287        0.643      229.580       36.422        0.025      335.878        6.802      860.747
03/04/2014  02:38:00     -202.843      -20.835      -17.944      101.168       95.494       53.419    10234.874     9119.076     2853.571        3.205        1.110      203.910       55.417        0.074      335.915        6.864      860.778
03/04/2014  02:39:00     -207.966      -65.441      -11.958      106.067       82.585       46.860    11250.266     6820.323     2195.832        3.397        1.013      218.019       52.819        0.059      335.986        6.981      860.805
03/04/2014  02:40:00     -314.026     -107.306      -19.756      101.332       93.843       63.878    10268.235     8806.527     4080.451        6.683        1.158      331.854       55.240        0.028      336.056        7.099      860.833
03/04/2014  02:41:00     -376.787      -63.974      -27.907       89.412      110.330       57.258     7994.470    12172.665     3278.509        8.514        1.172      382.180       46.801        0.015      336.178        7.303      860.818
03/04/2014  02:42:00     -238.333      -57.963      -20.227      119.516       93.301       48.084    14284.174     8705.125     2312.036        4.293        1.265      245.280       56.410        0.053      336.134        7.227      860.751
03/04/2014  02:43:00     -215.707      -78.748      -13.077       83.300       78.865       51.496     6938.869     6219.746     2651.798        3.435        0.791      229.632       33.078        0.021      336.128        7.218      860.702
03/04/2014  02:44:00     -238.936      -48.246      -17.018       84.546       97.704       41.869     7147.949     9546.023     1752.994        3.907        0.922      243.758       34.927        0.021      336.092        7.156      860.699
03/04/2014  02:45:00     -163.921      -19.612       -8.699       73.496       97.459       41.462     5401.681     9498.327     1719.090        2.197        0.831      165.090       34.907        0.045      336.068        7.119      860.681
03/04/2014  02:46:00     -254.121      -29.038      -15.156       86.684       70.394       36.922     7514.094     4955.304     1363.258        3.974        0.692      255.775       40.363        0.025      336.098        7.169      860.637
03/04/2014  02:47:00     -273.992      -58.823      -14.255      108.397       92.183       44.716    11749.816     8497.739     1999.500        5.049        1.112      280.235       36.328        0.017      336.128        7.218      860.592
03/04/2014  02:48:00     -354.890      -31.721      -32.366      113.572       68.511       42.772    12898.528     4693.783     1829.430        7.371        0.971      356.305       45.169        0.016      336.209        7.355      860.587
03/04/2014  02:49:00     -283.479      -18.275      -17.919      105.303       68.483       43.896    11088.760     4689.965     1926.895        4.936        0.885      284.068       41.549        0.021      336.232        7.392      860.614
03/04/2014  02:50:00     -231.204      -59.073      -22.953       76.868       72.209       44.924     5908.676     5214.198     2018.124        3.530        0.657      238.631       37.865        0.025      336.262        7.441      860.612
03/04/2014  02:51:00      -36.541      -15.601        9.357       88.205       46.175       43.650     7780.175     2132.117     1905.332        0.674        0.591       39.732       32.441        0.667      336.312        7.530      860.604
03/04/2014  02:52:00     -105.042      -19.021        1.501      108.010       38.251       37.790    11666.212     1463.177     1428.088        1.298        0.728      106.750       39.682        0.138      336.358        7.604      860.556
03/04/2014  02:53:00     -214.904      -65.798      -16.591       71.830       62.274       40.854     5159.497     3878.074     1669.075        3.075        0.535      224.751       39.954        0.032      336.402        7.677      860.562
03/04/2014  02:54:00     -181.633      -40.630       -7.043       71.821       60.716       38.690     5158.244     3686.443     1496.917        2.251        0.517      186.122       38.857        0.044      336.427        7.720      860.517
03/04/2014  02:55:00     -153.758      -38.318       -2.400       54.509       58.311       32.797     2971.219     3400.143     1075.621        1.628        0.372      158.460       24.081        0.023      336.432        7.729      860.505
03/04/2014  02:56:00     -118.687      -58.320      -10.151       33.715       67.343       27.270     1136.678     4535.020      743.639        1.200        0.321      132.241       12.839        0.009      336.486        7.819      860.507
03/04/2014  02:57:00      -49.484      -55.650        0.038       39.451       37.797       24.063     1556.407     1428.637      579.029        0.455        0.178       74.469       20.391        0.075      336.525        7.886      860.513
03/04/2014  02:58:00      -54.283     -123.667       -0.776       54.183       54.860       36.167     2935.761     3009.584     1308.079        1.275        0.363      135.056       34.180        0.064      336.654        8.103      860.524
03/04/2014  02:59:00      -63.486      -58.571       -1.253       65.361       55.038       27.360     4271.998     3029.164      748.582        0.775        0.402       86.377       32.668        0.143      336.583        7.984      860.528
03/04/2014  03:00:00      -36.903       -1.535       24.129       30.876       37.971       29.504      953.329     1441.809      870.466        0.261        0.163       36.935       12.020        0.106      336.563        7.951      860.500
03/04/2014  03:01:00      -45.012       -2.985       12.562       26.028       25.882       25.834      677.442      669.895      667.421        0.210        0.101       45.111       24.184        0.287      336.458        7.774      860.466
03/04/2014  03:02:00       90.581     -123.585       -3.663       76.446       60.856       39.780     5843.927     3703.450     1582.467        1.731        0.556      153.226       33.990        0.049      336.055        7.098      860.451
03/04/2014  03:03:00       70.416      -87.753       -3.857       54.697       54.790       44.529     2991.813     3001.914     1982.844        1.032        0.399      112.513       40.764        0.131      335.989        6.989      860.418
03/04/2014  03:04:00       23.665       26.763       38.988       40.728       46.219       46.206     1658.735     2136.188     2135.021        0.436        0.296       35.725       29.348        0.675      335.959        6.939      860.383
03/04/2014  03:05:00       65.961       29.945       26.140       40.206       27.993       28.420     1616.508      783.618      807.714        0.457        0.160       72.439       24.067        0.110      335.850        6.759      860.376
03/04/2014  03:06:00       36.548        6.755       11.228       30.994       23.474       22.239      960.601      551.032      494.583        0.176        0.100       37.167       14.533        0.153      335.880        6.809      860.337
03/04/2014  03:07:00        6.551       -6.469        2.731       25.044       30.762       21.610      627.214      946.271      466.981        0.107        0.102        9.207       13.829        2.256      335.888        6.820      860.268
03/04/2014  03:08:00       84.515       52.889       11.566       52.535       50.299       31.532     2759.958     2530.035      994.297        0.818        0.314       99.700       26.465        0.070      335.732        6.561      860.239
03/04/2014  03:09:00       57.540       59.789        2.428       45.843       32.249       23.342     2101.563     1040.018      544.826        0.529        0.184       82.979       17.990        0.047      335.745        6.585      860.234
03/04/2014  03:10:00       -1.322       39.026       12.631       48.570       28.006       27.749     2359.093      784.344      769.999        0.280        0.196       39.048       24.714        0.401      335.738        6.572      860.251
03/04/2014  03:11:00      -15.496       -9.798       -8.007       26.378       20.922       29.357      695.818      437.739      861.827        0.120        0.100       18.334       20.779        1.285      335.776        6.636      860.259
03/04/2014  03:12:00      149.015      123.815       25.790       39.574       63.279       31.678     1566.067     4004.285     1003.516        2.239        0.329      193.741       22.757        0.014      335.859        6.771      860.247
03/04/2014  03:13:00       98.521      201.468      -26.450       89.795      121.369       60.889     8063.190    14730.366     3707.508        3.874        1.325      224.267       51.495        0.053      335.967        6.950      860.158
03/04/2014  03:14:00      -15.852       68.832      -18.431       81.907       59.759       29.594     6708.767     3571.120      875.823        0.824        0.558       70.634       30.525        0.187      336.379        7.639      860.220
03/04/2014  03:15:00      -33.767       46.279       -3.906       53.711       34.186       27.579     2884.824     1168.677      760.580        0.405        0.241       57.288       28.007        0.239      336.179        7.306      860.268
03/04/2014  03:16:00       26.240       12.677        2.306       53.117       39.920       35.723     2821.448     1593.628     1276.118        0.327        0.285       29.142       20.820        0.510      335.909        6.856      860.255
03/04/2014  03:17:00        8.605       26.517      -13.886       19.029       21.273       12.972      362.097      452.547      168.268        0.098        0.049       27.878       10.684        0.147      335.884        6.816      860.265
03/04/2014  03:18:00      -53.314        4.597      -17.876       54.014       28.098       14.464     2917.474      789.501      209.197        0.355        0.196       53.512        6.504        0.015      335.885        6.816      860.258
03/04/2014  03:19:00     -109.543       68.640      -21.370       26.586       40.576       19.792      706.833     1646.409      391.725        0.996        0.137      129.272       14.718        0.013      335.902        6.844      860.274
03/04/2014  03:20:00       15.759      175.769      -26.980       52.647       72.350       29.086     2771.746     5234.555      846.005        2.036        0.443      176.474       30.757        0.030      335.981        6.972      860.292
03/04/2014  03:21:00       -1.482       32.925      -14.172       40.363       51.533       22.703     1629.178     2655.642      515.408        0.304        0.240       32.959       11.941        0.131      336.004        7.015      860.302
03/04/2014  03:22:00      -64.761       24.661      -13.975       25.955       25.503       19.594      673.638      650.388      383.936        0.335        0.085       69.297       11.511        0.028      335.972        6.960      860.311
03/04/2014  03:23:00      -22.564       80.049      -11.354       35.719       47.736       18.618     1275.871     2278.750      346.647        0.547        0.195       83.169       16.037        0.037      336.119        7.207      860.304
03/04/2014  03:24:00      -12.811       53.173       -1.346       30.005       52.974       21.859      900.285     2806.222      477.809        0.359        0.209       54.695       20.295        0.138      336.423        7.714      860.308
03/04/2014  03:25:00        1.734       89.508      -11.283       18.467       19.066       12.516      341.027      363.501      156.661        0.450        0.043       89.525       10.566        0.014      336.247        7.420      860.340
03/04/2014  03:26:00      -19.623       69.509       -7.943       28.920       29.992       12.364      836.357      899.542      152.863        0.358        0.094       72.226       14.753        0.042      336.166        7.284      860.360
03/04/2014  03:27:00       -0.124       31.413        3.036       23.936       17.086       12.956      572.924      291.914      167.870        0.101        0.052       31.414       11.105        0.125      336.052        7.097      860.364
03/04/2014  03:28:00        3.970       63.026        6.476       16.383       52.509       20.560      268.393     2757.214      422.708        0.374        0.172       63.151       29.540        0.219      336.080        7.141      860.365
03/04/2014  03:29:00       10.823       95.827      -13.615       14.800       14.847       10.253      219.040      220.427      105.129        0.501        0.027       96.436        5.583        0.003      336.136        7.235      860.375
03/04/2014  03:30:00       28.639      107.733      -10.988       20.304       38.436       22.714      412.253     1477.304      515.929        0.748        0.120      111.475       24.308        0.048      336.016        7.034      860.372
03/04/2014  03:31:00       29.554       51.010        1.687       33.300       39.557       23.363     1108.883     1564.742      545.824        0.335        0.161       58.953       19.361        0.108      335.925        6.883      860.381
03/04/2014  03:32:00       -1.428      101.495      -12.150       38.273       75.877       30.450     1464.838     5757.308      927.177        0.930        0.407      101.505       36.610        0.130      335.892        6.827      860.423
03/04/2014  03:33:00        3.114      132.827      -24.228       24.431       21.556       13.529      596.866      464.663      183.044        0.974        0.062      132.863       10.403        0.006      335.885        6.816      860.453
03/04/2014  03:34:00       38.194      111.939      -15.552       29.734       45.339       30.025      884.118     2055.647      901.517        0.904        0.192      118.276       25.078        0.045      335.861        6.776      860.431
03/04/2014  03:35:00       25.012      187.413      -31.694       37.938       37.277       19.408     1439.304     1389.583      376.690        1.998        0.160      189.074       12.720        0.005      335.808        6.688      860.410
03/04/2014  03:36:00       18.592      197.319      -26.669       45.104       39.495       22.714     2034.333     1559.823      515.939        2.205        0.206      198.193       16.494        0.007      335.785        6.647      860.405
03/04/2014  03:37:00       10.011      227.173      -31.794       47.568       44.264       28.187     2262.675     1959.290      794.488        2.887        0.251      227.394       21.181        0.009      335.778        6.635      860.418
03/04/2014  03:38:00       28.451      170.807      -18.157       58.438       68.975       39.776     3415.048     4757.574     1582.096        2.003        0.488      173.161       42.660        0.061      335.698        6.504      860.420
03/04/2014  03:39:00      -12.729      247.661      -37.686       36.391       76.107       29.187     1324.320     5792.332      851.909        3.544        0.398      247.988       32.126        0.017      335.905        6.846      860.417
03/04/2014  03:40:00        5.293      238.841      -39.158       50.097       51.530       28.525     2509.702     2655.323      813.652        3.229        0.299      238.899       20.967        0.008      335.890        6.820      860.417
03/04/2014  03:41:00       56.461       96.123       10.404       54.228       56.846       47.772     2940.637     3231.456     2282.183        1.049        0.423      111.478       43.375        0.151      335.733        6.563      860.419
03/04/2014  03:42:00       88.362       89.118       -5.838       36.325       38.711       31.779     1319.499     1498.505     1009.935        0.981        0.191      125.498       19.114        0.023      335.623        6.380      860.400
03/04/2014  03:43:00      138.812       82.187       11.456       34.123       34.925       30.142     1164.372     1219.765      908.561        1.472        0.165      161.318       17.648        0.012      335.631        6.392      860.348
03/04/2014  03:44:00       87.971       57.967       28.933       37.466       32.141       41.057     1403.738     1033.047     1685.669        0.803        0.206      105.352       17.377        0.027      335.599        6.340      860.339
03/04/2014  03:45:00       78.407       73.196       34.616       59.035       45.932       50.501     3485.145     2109.755     2550.337        1.042        0.407      107.263       44.058        0.169      335.569        6.291      860.343
03/04/2014  03:46:00       74.407       66.568       22.854       35.391       39.560       34.762     1252.514     1565.029     1208.415        0.726        0.201       99.838       22.614        0.051      335.552        6.262      860.380
03/04/2014  03:47:00       65.064       35.671       11.913       33.204       52.077       37.176     1102.534     2712.010     1382.046        0.542        0.260       74.201       23.156        0.097      335.537        6.239      860.413
03/04/2014  03:48:00       21.529       72.737       -8.138       36.226       50.585       27.180     1312.353     2558.850      738.728        0.521        0.230       75.856       24.172        0.102      335.479        6.137      860.423
03/04/2014  03:49:00       73.404       53.683       27.846       31.669       30.967       35.063     1002.916      958.960     1229.404        0.612        0.160       90.940       26.366        0.084      335.509        6.189      860.383
03/04/2014  03:50:00        7.183       33.041       -4.261       30.253       36.867       23.640      915.233     1359.157      558.838        0.200        0.142       33.813       10.656        0.099      335.467        6.120      860.369
03/04/2014  03:51:00       59.750       37.171        3.851       42.258       27.301       24.205     1785.768      745.321      585.882        0.404        0.156       70.368       10.830        0.024      335.472        6.129      860.333
03/04/2014  03:52:00        9.771       28.337       -5.400       30.438       32.237       26.888      926.463     1039.207      722.952        0.181        0.134       29.975       27.068        0.815      335.521        6.212      860.283
03/04/2014  03:53:00      -62.981       -4.800      -18.103       25.974       28.709       18.503      674.632      824.225      342.362        0.308        0.092       63.164       18.206        0.083      335.475        6.133      860.257
03/04/2014  03:54:00       -0.576      -42.559       28.492       33.442       44.048       27.900     1118.342     1940.227      778.413        0.323        0.192       42.563       22.602        0.282      335.563        6.281      860.277
03/04/2014  03:55:00       -2.572      -28.904       16.371       38.241       21.753       25.070     1462.391      473.206      628.504        0.184        0.128       29.018       19.930        0.472      335.625        6.385      860.332
03/04/2014  03:56:00      -31.085       10.972      -13.297       39.447       42.589       20.335     1556.032     1813.834      413.526        0.252        0.189       32.965       18.116        0.302      335.590        6.325      860.361
03/04/2014  03:57:00      -17.348       45.245       -1.040       28.008       31.589       18.036      784.459      997.839      325.289        0.223        0.105       48.456       17.524        0.131      335.585        6.316      860.330
03/04/2014  03:58:00       -9.723       10.004        4.847       14.492       18.923       10.351      210.016      358.081      107.139        0.045        0.034       13.950       11.056        0.628      335.558        6.272      860.300
03/04/2014  03:59:00       -6.757       -9.124        3.583       25.645       32.835       11.698      657.667     1078.144      136.854        0.101        0.094       11.354        8.744        0.593      335.619        6.374      860.312
03/04/2014  04:00:00        6.987      -76.502       -0.277       28.130       26.350       17.932      791.284      694.317      321.556        0.385        0.090       76.820       14.431        0.035      335.659        6.442      860.295
03/04/2014  04:01:00      -55.474      -76.914       -8.800       34.043       46.689       23.278     1158.929     2179.841      541.863        0.647        0.194       94.832       24.636        0.067      335.619        6.373      860.291
03/04/2014  04:02:00      -34.589      -81.625      -13.059       23.786       20.196       17.546      565.786      407.896      307.851        0.466        0.064       88.652        8.318        0.009      335.638        6.405      860.288
03/04/2014  04:03:00       -6.238      -56.195       -3.780       17.466       18.472       15.835      305.078      341.212      250.749        0.205        0.045       56.540        9.871        0.030      335.694        6.498      860.273
03/04/2014  04:04:00      -40.987      -39.916        3.171       55.566       29.560       18.196     3087.613      873.807      331.110        0.379        0.215       57.212       27.711        0.235      335.672        6.462      860.252
03/04/2014  04:05:00      -34.231      -11.540       -9.183       42.417       28.309       21.396     1799.217      801.423      457.769        0.222        0.153       36.124       17.249        0.228      335.612        6.362      860.261
03/04/2014  04:06:00      -17.033      -18.232       -7.400       50.691       57.113       27.101     2569.585     3261.932      734.479        0.362        0.328       24.951       21.050        0.712      335.673        6.463      860.253
03/04/2014  04:07:00      -22.159      -78.066      -11.773       52.764       32.471       23.919     2783.996     1054.360      572.115        0.557        0.221       81.150       17.219        0.045      335.729        6.557      860.209
03/04/2014  04:08:00     -104.545      -91.393        5.659       66.513       70.351       29.958     4423.967     4949.298      897.497        1.479        0.514      138.861       38.964        0.079      335.685        6.483      860.222
03/04/2014  04:09:00     -133.690      -83.860      -18.046       41.828       83.588       27.315     1749.604     6986.931      746.130        1.736        0.474      157.815       24.584        0.024      335.707        6.518      860.290
03/04/2014  04:10:00     -189.358       28.294      -18.227      114.899      115.713       45.476    13201.752    13389.482     2068.024        3.282        1.433      191.460       35.623        0.035      335.658        6.437      860.322
03/04/2014  04:11:00     -205.539       29.867      -19.091       79.126       59.432       35.042     6260.870     3532.183     1227.947        2.726        0.551      207.698       39.127        0.035      335.661        6.441      860.292
03/04/2014  04:12:00     -296.670      -76.553      -12.728      129.316       99.996       52.821    16722.556     9999.100     2790.017        6.177        1.476      306.387       51.804        0.029      335.684        6.479      860.270
03/04/2014  04:13:00     -279.168       47.547      -22.488       66.301       48.827       35.640     4395.838     2384.030     1270.217        4.437        0.403      283.188       25.769        0.008      335.706        6.514      860.309
03/04/2014  04:14:00     -120.872       41.534      -10.328       64.259       50.079       29.624     4129.241     2507.878      877.554        1.198        0.376      127.809       32.786        0.066      335.721        6.543      860.302
03/04/2014  04:15:00     -100.543      133.569      -18.773       76.546       59.246       41.786     5859.264     3510.064     1746.072        1.971        0.556      167.182       35.584        0.045      335.844        6.746      860.257
03/04/2014  04:16:00     -144.725      109.014      -21.649       69.819       50.304       32.192     4874.690     2530.445     1036.351        2.087        0.422      181.188       25.619        0.020      335.762        6.610      860.244
03/04/2014  04:17:00     -163.130      135.487      -33.983       54.296       55.696       36.471     2948.063     3102.073     1330.102        2.675        0.369      212.057       29.391        0.019      335.853        6.760      860.267
03/04/2014  04:18:00     -182.706      159.163      -32.151       88.032       80.724       41.442     7749.651     6516.422     1717.403        3.786        0.799      242.310       46.884        0.037      335.995        6.996      860.280
03/04/2014  04:19:00     -110.553      155.395      -28.599       53.099       56.287       37.577     2819.555     3168.254     1412.020        2.229        0.370      190.708       29.437        0.024      335.837        6.734      860.277
03/04/2014  04:20:00      -57.728      261.240      -27.554       78.825      111.409       44.767     6213.456    12411.889     2004.085        4.648        1.031      267.542       49.846        0.035      335.960        6.936      860.264
03/04/2014  04:21:00     -118.676      214.966      -36.765       94.777      120.824       46.694     8982.696    14598.396     2180.358        4.370        1.288      245.549       49.155        0.040      336.240        7.405      860.241
03/04/2014  04:22:00     -135.651      111.726      -28.566       43.453       56.599       33.319     1888.169     3203.392     1110.166        1.895        0.310      175.738       26.692        0.023      336.003        7.013      860.276
03/04/2014  04:23:00     -136.760      114.165      -20.248       75.395       62.292       31.823     5684.429     3880.248     1012.727        2.136        0.529      178.149       29.965        0.028      336.174        7.297      860.285
03/04/2014  04:24:00     -134.992      130.105      -34.429       57.446       47.247       35.609     3300.024     2232.236     1267.982        2.157        0.340      187.484       33.981        0.033      336.099        7.171      860.289
03/04/2014  04:25:00     -116.570       67.459      -18.908       50.751       46.746       30.776     2575.700     2185.207      947.187        1.210        0.285      134.682       24.250        0.032      335.993        6.998      860.275
03/04/2014  04:26:00      -94.052       -2.267        3.910       92.653       71.651       29.184     8584.497     5133.905      851.729        1.172        0.729       94.079       38.411        0.167      335.919        6.872      860.314
03/04/2014  04:27:00     -212.859        4.008      -23.778       96.866      114.041       47.235     9382.949    13005.357     2231.110        3.525        1.231      212.897       34.858        0.027      335.932        6.893      860.391
03/04/2014  04:28:00     -232.118       -1.935      -20.293      116.472       87.975       47.305    13565.619     7739.549     2237.730        3.891        1.177      232.126       50.442        0.047      335.924        6.879      860.392
03/04/2014  04:29:00     -180.512      -11.518       -7.928       78.297       74.582       48.475     6130.394     5562.412     2349.837        2.341        0.702      180.879       47.871        0.070      335.890        6.823      860.404
03/04/2014  04:30:00      -94.726       80.780      -11.510       49.807       85.935       40.408     2480.712     7384.816     1632.838        1.356        0.575      124.493       46.164        0.138      335.875        6.800      860.438
03/04/2014  04:31:00     -181.207       94.360      -25.265       75.849       56.975       34.772     5753.055     3246.190     1209.107        2.629        0.510      204.303       25.887        0.016      335.906        6.849      860.482
03/04/2014  04:32:00     -135.870      175.544      -37.717       81.981       60.886       42.643     6720.871     3707.118     1818.459        3.147        0.612      221.983       42.337        0.036      335.810        6.687      860.462
03/04/2014  04:33:00      -92.509      196.408      -29.438       54.938       70.814       28.268     3018.218     5014.611      799.093        2.841        0.442      217.104       26.224        0.015      335.707        6.517      860.425
03/04/2014  04:34:00      -40.089      319.973      -41.354       54.620       69.498       31.431     2983.292     4830.007      987.886        5.725        0.440      322.475       20.632        0.004      335.809        6.684      860.432
03/04/2014  04:35:00      -51.379      314.783      -33.963       57.328      109.644       37.258     3286.520    12021.847     1388.181        5.979        0.835      318.948       37.056        0.013      335.884        6.812      860.473
03/04/2014  04:36:00      -68.245      319.976      -41.685      103.379      129.702       51.009    10687.229    16822.616     2601.954        6.944        1.506      327.173       56.940        0.030      335.824        6.712      860.516
03/04/2014  04:37:00      -48.399      235.739      -31.306       67.229       90.865       41.083     4519.687     8256.487     1687.831        3.668        0.723      240.656       40.024        0.028      335.865        6.780      860.505
03/04/2014  04:38:00      -26.834      200.931      -14.497       59.049       59.199       40.055     3486.751     3504.526     1604.376        2.495        0.430      202.715       37.586        0.034      335.784        6.646      860.472
03/04/2014  04:39:00       55.780      154.935      -15.198       56.990       97.304       45.973     3247.902     9468.106     2113.508        2.109        0.741      164.670       53.655        0.106      335.484        6.147      860.491
03/04/2014  04:40:00      -18.740      226.580      -28.939      105.645       96.904       51.245    11160.832     9390.443     2626.066        3.785        1.159      227.353       49.882        0.048      335.419        6.037      860.531
03/04/2014  04:41:00      -49.790       87.178        2.263       60.594       72.048       36.489     3671.650     5190.954     1331.483        1.014        0.510      100.394       43.097        0.184      335.431        6.058      860.564
03/04/2014  04:42:00      -83.447      123.354      -20.906       53.735       72.394       38.811     2887.404     5240.943     1506.319        1.612        0.482      148.928       38.569        0.067      335.491        6.159      860.583
03/04/2014  04:43:00      -38.911      160.128      -11.153       89.241       98.557       48.573     7964.009     9713.526     2359.301        2.365        1.002      164.788       48.058        0.085      335.522        6.209      860.597
03/04/2014  04:44:00      -59.175       61.374       -2.537       59.322       41.621       30.895     3519.059     1732.318      954.510        0.674        0.310       85.255       35.109        0.170      335.509        6.190      860.620
03/04/2014  04:45:00     -167.440       38.014      -22.233       66.370       48.858       34.064     4404.915     2387.116     1160.358        1.896        0.398      171.701       36.909        0.046      335.554        6.264      860.678
03/04/2014  04:46:00     -127.255       63.207      -25.092       70.973       88.461       29.278     5037.129     7825.281      857.226        1.727        0.686      142.087       33.370        0.055      335.540        6.240      860.679
03/04/2014  04:47:00      -55.383       78.055       -7.737       54.458       69.699       36.062     2965.642     4857.917     1300.460        0.917        0.456       95.707       13.890        0.021      335.569        6.292      860.668
03/04/2014  04:48:00     -155.384       98.767      -22.780       67.099       72.138       51.117     4502.285     5203.891     2612.944        2.337        0.616      184.117       31.066        0.028      335.546        6.250      860.627
03/04/2014  04:49:00     -112.825      182.717      -25.053       44.233       60.259       35.719     1956.558     3631.205     1275.856        2.680        0.343      214.744       22.568        0.011      335.459        6.103      860.670
03/04/2014  04:50:00     -223.448      155.389      -59.917       41.621       48.847       26.499     1732.275     2386.018      702.179        4.124        0.241      272.166       15.084        0.003      335.462        6.106      860.712
03/04/2014  04:51:00     -125.031       73.947      -22.942       54.229       36.575       30.010     2940.788     1337.766      900.590        1.340        0.259      145.262       32.870        0.051      335.486        6.151      860.697
03/04/2014  04:52:00     -101.358      100.540      -26.074       34.065       41.913       26.666     1160.396     1756.739      711.086        1.234        0.181      142.765       19.552        0.019      335.483        6.147      860.679
03/04/2014  04:53:00      -63.315       52.011       -7.533       35.836       54.018       28.699     1284.212     2917.949      823.639        0.590        0.251       81.939       25.030        0.093      335.556        6.268      860.686
03/04/2014  04:54:00      -67.755      -30.806       -9.615       61.555       24.491       20.344     3789.040      599.787      413.875        0.522        0.240       74.430       20.968        0.079      335.520        6.210      860.704
03/04/2014  04:55:00      -90.960      -41.754       -3.271       63.132       28.935       17.906     3985.622      837.211      320.636        0.758        0.257      100.085       26.449        0.070      335.531        6.227      860.718
03/04/2014  04:56:00      -61.622      -11.966        0.000       32.912       32.472       16.577     1083.194     1054.435      274.797        0.318        0.121       62.773       15.720        0.063      335.444        6.081      860.736
03/04/2014  04:57:00     -117.470        9.600      -13.900       38.560       25.927       15.576     1486.855      672.225      242.597        0.824        0.120      117.862       16.509        0.020      335.382        5.980      860.764
03/04/2014  04:58:00      -62.191        6.777       -2.825       23.309       24.094       14.100      543.312      580.514      198.812        0.262        0.066       62.559       10.863        0.030      335.359        5.941      860.810
03/04/2014  04:59:00     -105.714      -12.495       -7.559       20.282       24.416       18.162      411.360      596.140      329.861        0.636        0.067      106.450       14.497        0.019      335.377        5.968      860.832
03/04/2014  05:00:00     -118.351        7.670      -15.077       38.564       27.792       22.114     1487.203      772.384      489.008        0.852        0.137      118.600       20.018        0.028      335.257        5.771      860.852
03/04/2014  05:01:00     -125.486       -6.015      -14.413       23.091       19.364       16.839      533.214      374.959      283.566        0.859        0.060      125.630       13.831        0.012      335.246        5.753      860.861
03/04/2014  05:02:00      -94.285      -54.602       -4.137       47.085       31.458       19.513     2217.000      989.582      380.746        0.774        0.179      108.954       13.125        0.015      335.288        5.823      860.862
03/04/2014  05:03:00     -161.876      -52.036       -7.054       21.046       29.259       16.881      442.913      856.063      284.964        1.527        0.079      170.034       11.082        0.004      335.226        5.718      860.902
03/04/2014  05:04:00     -167.978      -35.931      -16.295       47.189       31.126       22.968     2226.836      968.833      527.551        1.675        0.186      171.777       23.866        0.019      335.224        5.714      860.972
03/04/2014  05:05:00     -113.241      -50.694       -6.406       49.203       25.704       18.823     2420.889      660.721      354.312        0.943        0.172      124.070       17.420        0.020      335.212        5.693      861.005
03/04/2014  05:06:00      -82.810      -40.899       -6.954       34.761       30.403       18.522     1208.344      924.372      343.054        0.553        0.124       92.360       17.017        0.034      335.205        5.683      861.005
03/04/2014  05:07:00      -84.247      -15.844       -3.595       41.294       28.810       22.373     1705.217      829.988      500.554        0.520        0.152       85.724       19.087        0.050      335.252        5.762      861.026
03/04/2014  05:08:00     -209.616        0.464      -26.011       52.919       38.780       24.501     2800.406     1503.854      600.291        2.476        0.245      209.617       22.421        0.011      335.232        5.724      861.069
03/04/2014  05:09:00     -179.703      -39.124      -11.026       41.534       39.112       23.915     1725.099     1529.731      571.928        1.889        0.191      183.912       22.611        0.015      335.162        5.611      861.077
03/04/2014  05:10:00     -131.177      -35.210      -11.399       35.221       30.110       26.092     1240.542      906.615      680.793        1.070        0.141      135.820       19.209        0.020      335.202        5.678      861.064
03/04/2014  05:11:00      -83.849      -41.166        2.573       67.145       41.740       29.708     4508.417     1742.258      882.578        0.793        0.357       93.410       34.654        0.138      335.241        5.744      861.063
03/04/2014  05:12:00     -139.491      -82.191        0.709       66.964       46.816       28.326     4484.117     2191.719      802.363        1.684        0.374      161.904       32.349        0.040      335.245        5.749      861.075
03/04/2014  05:13:00     -153.560      -67.696        0.509       65.989       36.869       30.403     4354.543     1359.343      924.347        1.740        0.332      167.820       34.190        0.042      335.213        5.696      861.093
03/04/2014  05:14:00     -112.822     -107.319       -3.890       66.876       57.801       38.221     4472.457     3340.990     1460.882        1.677        0.464      155.712       38.897        0.062      335.252        5.759      861.129
03/04/2014  05:15:00      -75.518      -55.973        4.071       63.368       47.286       33.002     4015.473     2235.928     1089.113        0.810        0.367       94.000       34.673        0.136      335.321        5.877      861.143
03/04/2014  05:16:00      -36.559      -34.007        5.336       43.531       33.901       25.412     1894.910     1149.268      645.746        0.311        0.184       49.930       28.961        0.336      335.347        5.920      861.114
03/04/2014  05:17:00      -99.588      -55.668       -1.026       44.394       30.939       17.919     1970.795      957.232      321.080        0.813        0.162      114.091       20.424        0.032      335.327        5.886      861.107
03/04/2014  05:18:00      -63.870      -13.750        6.798       50.756       42.716       20.715     2576.123     1824.659      429.103        0.457        0.241       65.333       27.613        0.179      335.346        5.917      861.141
03/04/2014  05:19:00      -63.460      -56.359        8.713       68.690       42.271       32.138     4718.252     1786.839     1032.869        0.741        0.377       84.874       30.513        0.129      335.403        6.013      861.167
03/04/2014  05:20:00      -99.392      -88.387        1.397       77.787       59.202       32.139     6050.819     3504.926     1032.901        1.414        0.529      133.008       30.874        0.054      335.312        5.860      861.189
03/04/2014  05:21:00     -105.228      -49.606       -4.264       77.288       51.365       35.460     5973.379     2638.403     1257.386        1.171        0.493      116.334       38.795        0.111      335.303        5.845      861.208
03/04/2014  05:22:00      -93.038      -38.335       12.184       72.582       40.692       31.871     5268.150     1655.825     1015.769        0.911        0.397      100.627       37.268        0.137      335.272        5.796      861.202
03/04/2014  05:23:00     -116.203      -73.353        0.132       64.494       66.135       38.558     4159.484     4373.893     1486.756        1.445        0.501      137.418       37.224        0.073      335.292        5.828      861.197
03/04/2014  05:24:00     -152.698     -131.185       -3.561       86.475       67.865       38.643     7477.872     4605.613     1493.293        2.706        0.679      201.311       32.685        0.026      335.261        5.774      861.203
03/04/2014  05:25:00     -156.230      -76.462        1.429       56.360       57.682       32.840     3176.432     3327.230     1078.491        1.892        0.379      173.937       33.167        0.036      335.248        5.752      861.212
03/04/2014  05:26:00      -99.435      -58.568        9.500       68.541       45.830       30.486     4697.883     2100.403      929.401        1.057        0.386      115.401       32.791        0.081      335.278        5.805      861.242
03/04/2014  05:27:00     -140.260      -32.007        8.585       66.519       44.940       37.979     4424.747     2019.586     1442.422        1.433        0.394      143.865       35.559        0.061      335.209        5.689      861.282
03/04/2014  05:28:00      -79.576     -110.735        7.019       83.375       61.629       42.350     6951.407     3798.092     1793.551        1.559        0.627      136.362       38.481        0.080      335.265        5.781      861.293
03/04/2014  05:29:00      -62.106      -99.245        9.929       57.025       67.769       27.897     3251.802     4592.658      778.249        1.121        0.431      117.076       36.435        0.097      335.314        5.865      861.278
03/04/2014  05:30:00      -86.306      -57.824       10.681       53.160       58.035       27.583     2825.999     3368.086      760.835        0.893        0.348      103.886       26.962        0.067      335.340        5.907      861.278
03/04/2014  05:31:00      -21.978      -73.960       -9.598       48.229       39.107       20.438     2326.022     1529.323      417.727        0.516        0.214       77.156       17.422        0.051      335.377        5.969      861.272
03/04/2014  05:32:00      -19.555      -15.809       10.357       29.092       23.372       16.016      846.318      546.262      256.521        0.119        0.082       25.146       16.954        0.455      335.361        5.941      861.293
03/04/2014  05:33:00       -9.060      -45.273       11.169       36.330       33.797       26.236     1319.892     1142.210      688.334        0.270        0.158       46.171       18.556        0.162      335.423        6.046      861.345
03/04/2014  05:34:00      -59.302      -64.974        7.984       57.838       50.894       30.517     3345.220     2590.225      931.273        0.733        0.343       87.967       29.417        0.112      335.353        5.930      861.390
03/04/2014  05:35:00        9.780      -39.143       10.241       40.604       51.782       24.773     1648.700     2681.407      613.694        0.334        0.247       40.346       30.774        0.582      335.421        6.043      861.418
03/04/2014  05:36:00      -19.512       -5.819       -6.715       18.147       24.420       15.274      329.315      596.316      233.309        0.081        0.058       20.361       12.109        0.354      335.375        5.966      861.473
03/04/2014  05:37:00       -3.173       23.331        0.141       27.184       25.417       19.790      738.970      646.001      391.647        0.117        0.089       23.546       19.751        0.704      335.313        5.863      861.527
03/04/2014  05:38:00      -32.218        0.173       16.103       36.731       34.139       19.334     1349.142     1165.502      373.821        0.209        0.144       32.218       22.936        0.507      335.358        5.937      861.531
03/04/2014  05:39:00       15.111       17.025       41.840       33.577       18.696       15.372     1127.432      349.555      236.294        0.199        0.086       22.764       12.191        0.287      335.323        5.879      861.503
03/04/2014  05:40:00       34.791       27.884       -8.160       18.347       18.866       15.698      336.601      355.930      246.421        0.150        0.047       44.586       10.100        0.051      335.303        5.845      861.489
03/04/2014  05:41:00        0.905       22.926       -2.096       23.746       16.593       10.206      563.887      275.332      104.154        0.074        0.047       22.944        8.342        0.132      335.325        5.882      861.492
03/04/2014  05:42:00       11.215       63.594        4.293       19.488       29.822       14.977      379.791      889.333      224.303        0.284        0.075       64.575       13.366        0.043      335.301        5.841      861.516
03/04/2014  05:43:00      -20.470       64.521       -5.082       31.078       24.598       12.768      965.849      605.065      163.032        0.317        0.087       67.690       13.879        0.042      335.424        6.046      861.549
03/04/2014  05:44:00      -16.809       41.029        0.249       26.931       24.827       15.839      725.281      616.369      250.881        0.178        0.080       44.339       12.448        0.079      335.336        5.901      861.540
03/04/2014  05:45:00      -11.422       45.167       -2.668       16.318       30.213       21.140      266.286      912.821      446.902        0.190        0.081       46.589       20.946        0.202      335.382        5.979      861.524
03/04/2014  05:46:00       -2.435       55.659       -2.568       30.076       25.510       17.441      904.537      650.761      304.176        0.248        0.093       55.712       14.602        0.069      335.362        5.944      861.527
03/04/2014  05:47:00       -0.865       96.004       -8.416       19.619       32.434       17.475      384.917     1051.939      305.393        0.551        0.087       96.008       18.923        0.039      335.337        5.902      861.567
03/04/2014  05:48:00      -73.122       48.371      -13.039       21.582       25.877       16.792      465.799      669.640      281.985        0.464        0.071       87.673       13.073        0.022      335.281        5.809      861.636
03/04/2014  05:49:00      -66.028       24.414       -7.914       15.268       31.536       12.450      233.125      994.498      155.006        0.320        0.069       70.398       13.009        0.034      335.294        5.828      861.690
03/04/2014  05:50:00      -47.031      -24.499       -5.271       37.511       18.415       19.526     1407.063      339.114      381.266        0.248        0.106       53.030       21.445        0.164      335.377        5.969      861.720
03/04/2014  05:51:00      -35.092      -29.741       -0.646       36.632       19.132       16.547     1341.914      366.047      273.797        0.205        0.099       46.000       15.254        0.110      335.401        6.009      861.746
03/04/2014  05:52:00      -43.773      -30.779       -1.767       22.007       13.729       11.503      484.327      188.497      132.317        0.184        0.040       53.511        8.848        0.027      335.390        5.991      861.763
03/04/2014  05:53:00      -30.425      -22.591       -5.018       25.394       13.249        9.422      644.862      175.529       88.769        0.119        0.045       37.895        8.462        0.050      335.423        6.047      861.780
03/04/2014  05:54:00      -37.919      -27.011        5.553       32.557       30.091       12.121     1059.948      905.483      146.911        0.215        0.106       46.556       14.870        0.102      335.442        6.078      861.802
03/04/2014  05:55:00      -32.538      -34.023        5.769       24.075       34.694       18.867      579.593     1203.674      355.948        0.219        0.107       47.077       22.697        0.232      335.413        6.028      861.814
03/04/2014  05:56:00      -24.923        7.079       10.933       17.286       12.795       11.935      298.802      163.712      142.452        0.070        0.030       25.909        9.131        0.124      335.432        6.059      861.818
03/04/2014  05:57:00      -18.219        1.929       19.003       18.143       15.475       13.054      329.155      239.461      170.400        0.072        0.037       18.321        7.887        0.185      335.448        6.086      861.816
03/04/2014  05:58:00      -61.661       20.423       11.099       25.531       23.350       16.306      651.842      545.223      265.869        0.290        0.073       64.955       11.842        0.033      335.433        6.062      861.836
03/04/2014  05:59:00      -35.720       52.218       -3.468       16.103       21.771       18.941      259.301      473.982      358.773        0.255        0.055       63.267        9.429        0.022      335.383        5.981      861.847
03/04/2014  06:00:00      -30.638       53.363       -0.900       16.319       18.046       13.925      266.302      325.665      193.910        0.229        0.039       61.533       14.496        0.055      335.404        6.016      861.845
03/04/2014  06:01:00       33.836       35.280       12.039       14.071       15.117       15.767      197.986      228.533      248.584        0.160        0.034       48.883        9.936        0.041      335.471        6.126      861.804
03/04/2014  06:02:00       34.888       19.992       10.200       28.682       14.900       11.685      822.686      222.006      136.532        0.145        0.059       40.210        8.894        0.049      335.490        6.157      861.756
03/04/2014  06:03:00       -8.335      -43.766       -8.835       29.386       32.683       23.884      863.542     1068.153      570.458        0.228        0.125       44.553       22.676        0.259      335.537        6.238      861.731
03/04/2014  06:04:00       -6.571      -38.722        4.408       31.922       34.729       23.859     1019.023     1206.078      569.251        0.218        0.140       39.275       21.258        0.293      335.575        6.300      861.726
03/04/2014  06:05:00      -69.251      -86.176       -8.219       30.188       28.052       23.866      911.322      786.912      569.582        0.728        0.113      110.553       18.234        0.027      335.453        6.096      861.738
03/04/2014  06:06:00      -75.522      -51.921       -7.170       17.090       14.025       12.138      292.079      196.693      147.331        0.454        0.032       91.648        9.573        0.011      335.418        6.038      861.735
03/04/2014  06:07:00      -58.685      -22.265       -8.202       11.583       14.490       10.176      134.168      209.965      103.553        0.223        0.022       62.767        3.587        0.003      335.423        6.047      861.731
03/04/2014  06:08:00      -12.202       -9.861        4.232       21.488       12.796        7.846      461.744      163.742       61.565        0.048        0.034       15.689        7.709        0.241      335.459        6.108      861.728
03/04/2014  06:09:00      -19.432       12.836       -5.160       32.088       21.234       13.510     1029.644      450.868      182.528        0.112        0.083       23.289       12.520        0.289      335.479        6.137      861.739
03/04/2014  06:10:00      -79.213      -53.257       -0.552       42.095       29.530       18.117     1772.011      872.038      328.233        0.604        0.149       95.452        9.729        0.010      335.494        6.165      861.784
03/04/2014  06:11:00      -35.644      -41.351       11.441       44.345       32.385       22.652     1966.453     1048.809      513.109        0.332        0.176       54.593       21.360        0.153      335.482        6.145      861.818
03/04/2014  06:12:00      -59.269      -56.197       -3.915       32.072       24.023       12.325     1028.596      577.090      151.911        0.422        0.088       81.676       15.146        0.034      335.504        6.181      861.821
03/04/2014  06:13:00      -43.373       -8.492        6.099       13.216        8.576        8.380      174.660       73.554       70.219        0.115        0.016       44.197        3.237        0.005      335.496        6.169      861.817
03/04/2014  06:14:00      -59.802      -34.697       -2.603       10.893       11.407        9.508      118.664      130.120       90.396        0.256        0.017       69.139        5.609        0.007      335.532        6.227      861.834
03/04/2014  06:15:00      -52.143      -18.039       -5.568       20.980       22.065       12.012      440.152      486.849      144.298        0.207        0.054       55.175        7.949        0.021      335.488        6.154      861.859
03/04/2014  06:16:00      -99.274      -36.033       -7.776       30.977       19.559       14.404      959.602      382.560      207.474        0.638        0.077      105.611       10.453        0.010      335.421        6.044      861.882
03/04/2014  06:17:00      -42.175      -11.361        0.846       21.925       20.108       10.107      480.720      404.329      102.161        0.145        0.049       43.678        5.916        0.018      335.388        5.987      861.892
03/04/2014  06:18:00      -42.053       23.982       -1.075       27.202       11.674       12.060      739.968      136.281      145.443        0.168        0.051       48.411       13.525        0.078      335.332        5.894      861.903
03/04/2014  06:19:00      -41.302       15.792        7.861       18.191       12.568       11.820      330.908      157.959      139.703        0.132        0.031       44.219        8.325        0.035      335.352        5.929      861.918
03/04/2014  06:20:00      -50.734       -6.769       -1.341       12.800       14.169        7.727      163.832      200.763       59.713        0.152        0.021       51.184        5.312        0.011      335.304        5.847      861.938
03/04/2014  06:21:00      -28.109       -6.741        1.066       19.588       11.423        9.856      383.703      130.490       97.146        0.072        0.031       28.906       10.240        0.125      335.317        5.870      861.977
03/04/2014  06:22:00      -16.156      -10.843        3.612       10.609       10.057        9.597      112.560      101.145       92.110        0.035        0.015       19.457        6.254        0.103      335.353        5.928      862.010
03/04/2014  06:23:00       -6.354       -4.484        2.872        8.788        7.702        9.328       77.227       59.317       87.005        0.015        0.011        7.777        7.531        0.938      335.355        5.932      862.044
03/04/2014  06:24:00      -13.196       -3.895       -2.071        8.506        7.095        5.684       72.351       50.340       32.310        0.017        0.008       13.758        3.608        0.069      335.388        5.987      862.058
03/04/2014  06:25:00      -18.662       11.659        0.348        8.071        5.760        5.418       65.148       33.173       29.359        0.031        0.006       22.005        3.683        0.028      335.310        5.857      862.076
03/04/2014  06:26:00       -1.382       26.019       -1.849        8.646       15.712        6.907       74.754      246.865       47.703        0.053        0.018       26.056        5.079        0.038      335.325        5.882      862.103
03/04/2014  06:27:00       13.885       39.319       -4.142       15.332       14.779        5.279      235.072      218.418       27.869        0.112        0.024       41.699        3.623        0.008      335.408        6.022      862.147
03/04/2014  06:28:00       51.338       22.521        1.385       20.417       11.352        6.093      416.859      128.869       37.129        0.186        0.029       56.061        6.824        0.015      335.383        5.979      862.173
03/04/2014  06:29:00       59.430       30.726       14.595       23.595       24.069       22.034      556.723      579.308      485.500        0.316        0.081       66.903       14.713        0.048      335.349        5.923      862.188
03/04/2014  06:30:00       56.261       19.729       23.557       23.626       15.034       17.313      558.176      226.033      299.740        0.260        0.054       59.620       12.447        0.044      335.427        6.054      862.192
03/04/2014  06:31:00       44.964       51.427       41.003       21.981       19.770       23.089      483.174      390.845      533.087        0.388        0.070       68.311       12.969        0.036      335.480        6.140      862.204
03/04/2014  06:32:00        9.928       -8.276       33.014       19.568       51.882       24.272      382.911     2691.761      589.114        0.246        0.183       12.925       28.538        4.876      335.468        6.120      862.220
03/04/2014  06:33:00       17.738      -51.292       18.145       40.637       54.750       30.311     1651.355     2997.576      918.728        0.442        0.278       54.273       27.276        0.253      335.465        6.116      862.232
03/04/2014  06:34:00       -3.610      -86.605      -10.121       35.423       43.374       30.950     1254.795     1881.325      957.913        0.585        0.205       86.681       25.880        0.089      335.436        6.068      862.233
03/04/2014  06:35:00      -47.329        1.307       -4.852       18.884       31.143       18.248      356.591      969.912      332.971        0.196        0.083       47.347       17.703        0.140      335.247        5.753      862.234
03/04/2014  06:36:00      -46.517       17.100      -12.475       13.207       12.066        9.196      174.435      145.592       84.572        0.151        0.020       49.560        5.945        0.014      335.228        5.721      862.231
03/04/2014  06:37:00      -26.312       20.398       31.696       18.601       21.935       28.770      345.993      481.154      827.690        0.188        0.083       33.293       17.376        0.272      335.333        5.895      862.218
03/04/2014  06:38:00        1.960      -40.397       31.722       35.246       34.876       37.017     1242.290     1216.354     1370.292        0.323        0.191       40.445       22.926        0.321      335.422        6.045      862.227
03/04/2014  06:39:00       13.855      -84.737        2.964       36.784       46.718       40.319     1353.036     2182.541     1625.585        0.627        0.258       85.862       26.274        0.094      335.545        6.250      862.240
03/04/2014  06:40:00        3.591     -101.039      -22.767       45.593       45.110       25.761     2078.731     2034.926      663.654        0.776        0.239      101.103       16.280        0.026      335.482        6.144      862.235
03/04/2014  06:41:00       -1.809       -4.882        7.317       11.520       21.017       10.990      132.701      441.698      120.783        0.039        0.035        5.207       10.666        4.197      335.431        6.059      862.228
03/04/2014  06:42:00       -3.196        2.106       11.014        7.598       15.119        8.717       57.728      228.590       75.988        0.025        0.018        3.828        4.874        1.621      335.333        5.897      862.214
03/04/2014  06:43:00      -37.703        6.477       -0.162       24.563       18.499        8.695      603.350      342.211       75.605        0.124        0.051       38.255        7.652        0.040      335.310        5.858      862.186
03/04/2014  06:44:00      -38.709      -27.487       -6.926       25.751       12.370        8.914      663.117      153.011       79.464        0.160        0.045       47.476        5.933        0.016      335.223        5.712      862.180
03/04/2014  06:45:00      -40.320      -13.632        5.782       32.187       14.916       16.084     1035.982      222.493      258.696        0.168        0.076       42.562       15.185        0.127      335.299        5.841      862.193
03/04/2014  06:46:00      -53.583       -5.588      -18.413       32.522       28.341       15.552     1057.669      803.232      241.858        0.267        0.105       53.874       15.515        0.083      335.428        6.055      862.198
03/04/2014  06:47:00      -30.137       12.928       12.997       21.848       13.138       12.823      477.319      172.608      164.437        0.103        0.041       32.793       11.953        0.133      335.462        6.111      862.196
03/04/2014  06:48:00       31.844       32.306       17.600       20.502       14.522       30.176      420.321      210.887      910.591        0.195        0.077       45.362       20.309        0.200      335.589        6.324      862.184
03/04/2014  06:49:00       44.032       37.517       30.406       36.218       34.251       23.653     1311.757     1173.133      559.458        0.366        0.152       57.848       17.929        0.096      335.558        6.272      862.185
03/04/2014  06:50:00       58.401       29.088        4.484       33.963       28.104       25.435     1153.499      789.838      646.926        0.343        0.130       65.244       15.466        0.056      335.340        5.909      862.201
03/04/2014  06:51:00       35.394       13.084       -4.919       13.115       14.780        9.646      172.005      218.459       93.044        0.097        0.024       37.735        7.489        0.039      335.254        5.764      862.211
03/04/2014  06:52:00       44.033       20.073        3.032       24.870       21.818       16.179      618.511      476.035      261.760        0.185        0.068       48.392       13.148        0.074      335.290        5.824      862.227
03/04/2014  06:53:00       64.196       36.432        2.187       18.430       16.671       14.320      339.662      277.937      205.055        0.314        0.041       73.813        7.898        0.011      335.279        5.807      862.229
03/04/2014  06:54:00       46.723       47.348       33.771       41.482       36.193       41.540     1720.770     1309.967     1725.598        0.516        0.238       66.520       30.124        0.205      335.296        5.834      862.223
03/04/2014  06:55:00       84.779       50.511       21.328       38.217       20.535       27.724     1460.520      421.698      768.639        0.642        0.133       98.685       23.334        0.056      335.294        5.831      862.243
03/04/2014  06:56:00       84.407       74.473       39.944       26.100       17.744       27.893      681.215      314.839      778.018        0.802        0.089      112.565       17.439        0.024      335.487        6.152      862.250
03/04/2014  06:57:00       13.585       35.951       57.428       28.853       45.493       30.764      832.479     2069.615      946.429        0.431        0.192       38.432       29.960        0.608      335.587        6.321      862.251
03/04/2014  06:58:00       35.332      -54.323       19.325       29.598       46.015       30.923      876.039     2117.352      956.206        0.426        0.197       64.802       24.517        0.143      335.703        6.515      862.243
03/04/2014  06:59:00      -16.910       15.476       14.693       25.048       41.297       32.249      627.405     1705.467     1040.008        0.206        0.169       22.923       18.672        0.663      335.741        6.578      862.231
03/04/2014  07:00:00        0.776        9.036       23.405       17.303       14.950        8.839      299.404      223.513       78.120        0.062        0.030        9.070        9.679        1.139      335.780        6.641      862.229
03/04/2014  07:01:00       53.787       23.318       12.764       22.744       21.466       16.688      517.287      460.777      278.505        0.243        0.063       58.624        8.703        0.022      335.484        6.148      862.236
03/04/2014  07:02:00        9.607        4.644       19.549       14.140       18.255       14.041      199.944      333.248      197.143        0.061        0.037       10.670        9.635        0.815      335.602        6.345      862.240
03/04/2014  07:03:00       14.213      -41.432       -2.971       17.581       36.649       18.413      309.107     1343.141      339.048        0.196        0.100       43.802       22.411        0.262      335.695        6.500      862.261
03/04/2014  07:04:00       -8.059      -62.535      -10.025       22.067       38.627       28.239      486.950     1492.026      797.422        0.343        0.139       63.052       19.861        0.099      335.844        6.748      862.271
03/04/2014  07:05:00       -4.149       -9.929      -13.838       22.904       19.879       18.668      524.581      395.182      348.508        0.079        0.063       10.761        6.667        0.384      335.918        6.871      862.296
03/04/2014  07:06:00       -0.751       10.476       33.961       14.765       29.617       22.836      218.016      877.145      521.499        0.144        0.081       10.503       23.378        4.954      335.934        6.899      862.305
03/04/2014  07:07:00       45.439       81.014       66.563       33.316       19.595       22.266     1109.964      383.951      495.770        0.752        0.099       92.887       18.356        0.039      335.692        6.496      862.300
03/04/2014  07:08:00       13.200       86.312       82.019       25.966       28.067       17.668      674.209      787.739      312.157        0.806        0.089       87.316       17.464        0.040      335.671        6.462      862.312
03/04/2014  07:09:00       10.891       49.050       51.988       16.725       28.341       22.222      279.741      803.209      493.808        0.340        0.079       50.244       21.814        0.188      335.700        6.508      862.329
03/04/2014  07:10:00       22.482        1.760       26.081       32.743       25.026       26.852     1072.073      626.288      721.010        0.180        0.121       22.551       13.588        0.363      335.708        6.521      862.328
03/04/2014  07:11:00       47.346       25.221       70.878       36.605       43.709       29.662     1339.939     1910.498      879.821        0.602        0.207       53.644       22.834        0.181      335.626        6.385      862.318
03/04/2014  07:12:00        7.154       50.250       84.786       32.396       38.120       29.044     1049.491     1453.155      843.525        0.655        0.167       50.757       20.586        0.165      335.681        6.478      862.318
03/04/2014  07:13:00       45.415       43.755       71.959       56.730      115.065       66.702     3218.267    13239.877     4449.184        1.503        1.045       63.064       71.896        1.300      335.602        6.346      862.312
03/04/2014  07:14:00      117.618     -174.455      -48.196       66.010       61.708       40.449     4357.368     3807.817     1636.137        2.819        0.490      210.401       36.190        0.030      335.506        6.182      862.294
03/04/2014  07:15:00      105.055     -129.266      -20.754       71.318       79.628       49.438     5086.314     6340.640     2444.087        2.102        0.694      166.572       54.205        0.106      335.514        6.196      862.284
03/04/2014  07:16:00       94.648     -107.759      -22.377       63.893       60.726       31.822     4082.345     3687.631     1012.622        1.493        0.439      143.424       32.304        0.051      335.522        6.212      862.290
03/04/2014  07:17:00       -6.760      -72.075       -5.551       65.936       46.337       33.314     4347.549     2147.079     1109.816        0.644        0.380       72.392       19.541        0.073      335.616        6.367      862.288
03/04/2014  07:18:00       49.816      -67.357       -6.761       70.150       56.613       31.199     4921.060     3205.009      973.360        0.808        0.455       83.777       33.617        0.161      335.655        6.433      862.330
03/04/2014  07:19:00       27.268      -90.507       -7.195       43.386       28.276       28.742     1882.334      799.537      826.093        0.625        0.175       94.526       24.922        0.070      335.668        6.456      862.395
03/04/2014  07:20:00       37.186      -81.899      -11.463       31.938       31.772       26.389     1020.028     1009.476      696.404        0.547        0.136       89.946       19.256        0.046      335.744        6.584      862.448
03/04/2014  07:21:00        2.882      -75.970      -27.494       36.655       25.985       23.355     1343.560      675.202      545.454        0.455        0.128       76.025       12.525        0.027      335.714        6.532      862.489
03/04/2014  07:22:00      -61.128      -60.957        2.033       61.643       40.250       23.239     3799.806     1620.083      540.056        0.671        0.298       86.327       25.466        0.087      335.637        6.402      862.546
03/04/2014  07:23:00      -36.282        1.890       19.254       59.695       42.460       25.798     3563.479     1802.835      665.512        0.386        0.302       36.331       29.771        0.671      335.743        6.580      862.581
03/04/2014  07:24:00      -11.878       -1.350       19.698       28.853       27.296       22.628      832.476      745.076      512.009        0.131        0.104       11.955       19.216        2.584      335.874        6.799      862.621
03/04/2014  07:25:00      -73.203      -40.319        3.669       36.869       35.633       20.804     1359.335     1269.707      432.807        0.503        0.153       83.572       20.678        0.061      335.618        6.372      862.680
03/04/2014  07:26:00     -104.123      -59.668       -9.723       23.233       27.052       14.217      539.752      731.829      202.132        0.798        0.074      120.008       11.167        0.009      335.555        6.267      862.720
03/04/2014  07:27:00       -4.677      -19.252       10.928       24.807       28.764       21.541      615.395      827.344      464.032        0.121        0.095       19.812       23.052        1.354      335.937        6.902      862.772
03/04/2014  07:28:00       35.469       29.832       18.767       26.240       19.428       15.316      688.541      377.453      234.571        0.190        0.065       46.347       11.471        0.061      335.843        6.746      862.807
03/04/2014  07:29:00       43.324       26.248       12.642       21.779       17.879       13.683      474.332      319.669      187.216        0.185        0.049       50.655       11.158        0.049      335.969        6.955      862.836
03/04/2014  07:30:00      -14.315       37.058       10.506       36.008       17.355       25.832     1296.572      301.210      667.317        0.198        0.113       39.726       20.594        0.269      335.989        6.989      862.844
03/04/2014  07:31:00      -45.082      -23.480       -9.249       17.976       11.148        9.263      323.123      124.272       85.806        0.160        0.027       50.830        9.492        0.035      335.772        6.629      862.856
03/04/2014  07:32:00        3.552       16.527       32.909       20.891       34.671       27.886      436.441     1202.045      777.602        0.189        0.121       16.904       29.178        2.979      336.240        7.408      862.836
03/04/2014  07:33:00       54.788       53.718       57.065       47.975       44.760       36.863     2301.573     2003.496     1358.881        0.740        0.283       76.729       27.973        0.133      336.045        7.083      862.838
03/04/2014  07:34:00        8.792       41.273       54.094       32.649       39.694       30.129     1065.985     1575.588      907.780        0.413        0.177       42.199       28.539        0.457      336.201        7.345      862.831
03/04/2014  07:35:00       61.246       33.928       22.345       39.858       36.120       26.248     1588.647     1304.624      688.955        0.449        0.179       70.016       20.195        0.083      336.065        7.117      862.836
03/04/2014  07:36:00       67.387       56.486       13.486       36.203       30.487       28.254     1310.630      929.456      798.305        0.548        0.152       87.930       19.004        0.047      336.093        7.162      862.834
03/04/2014  07:37:00       83.784       62.670        9.756       44.980       40.675       28.650     2023.170     1654.424      820.845        0.777        0.225      104.629       24.615        0.055      336.088        7.154      862.841
03/04/2014  07:38:00       79.674       59.221       17.980       28.207       23.099       24.512      795.651      533.543      600.835        0.605        0.097       99.273       10.470        0.011      336.108        7.189      862.849
03/04/2014  07:39:00       22.466       39.776       35.317       24.335       27.493       28.375      592.175      755.866      805.140        0.274        0.108       45.682       13.084        0.082      336.494        7.833      862.856
03/04/2014  07:40:00       60.313       46.475       31.006       32.292       36.024       33.788     1042.780     1297.698     1141.630        0.512        0.174       76.142       25.755        0.114      336.256        7.435      862.877
03/04/2014  07:41:00       18.215       48.981       35.361       51.857       45.363       49.769     2689.178     2057.817     2476.934        0.560        0.361       52.258       39.038        0.558      336.546        7.921      862.890
03/04/2014  07:42:00       23.639       21.588       17.151       41.966       41.146       30.151     1761.174     1692.963      909.068        0.284        0.218       32.013       16.197        0.256      336.630        8.061      862.924
03/04/2014  07:43:00      -67.350       62.099       -7.539       38.514       49.983       24.754     1483.366     2498.329      612.783        0.652        0.230       91.609       25.828        0.079      336.461        7.779      862.933
03/04/2014  07:44:00       -9.699       -1.491       -1.610       31.109       55.509       29.528      967.751     3081.214      871.931        0.251        0.246        9.813       22.023        5.037      336.482        7.813      862.921
03/04/2014  07:45:00      -12.374       -3.731        1.462       17.185       21.486       16.037      295.338      461.634      257.187        0.059        0.051       12.924       10.854        0.705      336.748        8.258      862.914
03/04/2014  07:46:00      -29.805      -40.755      -14.543       43.257       25.513       20.672     1871.184      650.917      427.326        0.285        0.147       50.491       18.756        0.138      336.436        7.737      862.926
03/04/2014  07:47:00       -5.914        2.915       14.302       31.056       43.947       26.362      964.489     1931.346      694.978        0.192        0.180        6.594       10.142        2.366      336.700        8.178      862.940
03/04/2014  07:48:00      -34.203       27.495       11.214       40.918       35.009       26.967     1674.273     1225.622      727.203        0.284        0.181       43.884       18.878        0.185      336.492        7.829      862.969
03/04/2014  07:49:00      -77.645      -57.672       -3.999       53.943       38.430       29.960     2909.837     1476.881      897.610        0.733        0.264       96.720       23.448        0.059      336.260        7.442      862.993
03/04/2014  07:50:00      -42.732      -46.834       14.680       56.765       39.134       28.904     3222.293     1531.449      835.434        0.491        0.279       63.399       26.632        0.176      336.514        7.868      862.988
03/04/2014  07:51:00     -118.657      -30.221       -6.151       51.681       53.818       36.803     2670.896     2896.370     1354.478        1.098        0.346      122.445       33.127        0.073      336.234        7.398      862.995
03/04/2014  07:52:00      -22.727      -45.600      -11.650       29.010       26.836       18.391      841.575      720.163      338.219        0.232        0.095       50.949       13.503        0.070      336.227        7.387      862.998
03/04/2014  07:53:00      -15.543      -28.952       -7.762       22.950       18.311       15.739      526.708      335.307      247.719        0.112        0.055       32.860        7.341        0.050      336.318        7.540      862.997
03/04/2014  07:54:00      -20.837      -21.648       -0.814       28.749       16.738       20.680      826.502      280.172      427.677        0.122        0.077       30.047       12.502        0.173      336.623        8.050      863.003
03/04/2014  07:55:00       54.307       40.872        8.121       77.223       42.754       31.224     5963.348     1827.913      974.909        0.672        0.438       67.969       18.376        0.073      336.879        8.477      863.017
03/04/2014  07:56:00      149.586       85.365        1.396       59.601       47.782       42.964     3552.296     2283.093     1845.942        1.867        0.384      172.230       24.356        0.020      336.528        7.888      863.042
03/04/2014  07:57:00       77.878       69.789       26.624       56.254       31.630       36.898     3164.475     1000.439     1361.455        0.858        0.276      104.573       23.004        0.048      336.520        7.876      863.057
03/04/2014  07:58:00      -20.896       21.691       -1.137       24.368       25.299       17.638      593.777      640.063      311.094        0.123        0.077       30.119       15.775        0.274      336.725        8.221      863.082
03/04/2014  07:59:00        1.558        2.925        8.531       22.396       22.314       20.652      501.570      497.917      426.523        0.075        0.071        3.314       16.248       24.038      336.917        8.540      863.103
03/04/2014  08:00:00     -100.513       11.829      -11.077       47.368       29.608       22.165     2243.690      876.605      491.292        0.699        0.181      101.207       23.046        0.052      336.460        7.777      863.111
03/04/2014  08:01:00      -77.758       18.056      -17.718       58.574       31.211       25.826     3430.862      974.147      666.977        0.588        0.254       79.827       20.437        0.066      336.432        7.731      863.127
03/04/2014  08:02:00       27.694       19.051       17.126       29.056       24.000       20.703      844.237      576.021      428.626        0.164        0.092       33.614       16.121        0.230      336.985        8.655      863.128
03/04/2014  08:03:00       -7.813      -58.487       18.203       31.722       35.867       37.398     1006.306     1286.462     1398.610        0.375        0.185       59.007       22.933        0.151      336.573        7.965      863.132
03/04/2014  08:04:00      -52.971      -12.818        6.684       46.454       34.182       28.650     2157.941     1168.426      820.805        0.358        0.207       54.500       26.824        0.242      336.695        8.170      863.159
03/04/2014  08:05:00     -139.334      -65.228       -9.173       46.607       38.215       26.278     2172.198     1460.383      690.514        1.404        0.216      153.846       22.416        0.021      336.406        7.686      863.176
03/04/2014  08:06:00     -132.289      -62.191       -2.645       55.042       36.867       24.574     3029.608     1359.167      603.896        1.318        0.250      146.178       23.495        0.026      336.346        7.584      863.197
03/04/2014  08:07:00      -23.748      -11.972       16.640       43.798       37.957       21.148     1918.269     1440.711      447.243        0.239        0.190       26.595       18.717        0.495      336.719        8.211      863.220
03/04/2014  08:08:00      -23.764       36.725       -0.756       29.751       40.530       23.431      885.125     1642.706      549.014        0.249        0.154       43.743       24.690        0.319      336.854        8.436      863.257
03/04/2014  08:09:00        9.375        8.094       14.405       41.039       25.501       16.233     1684.220      650.278      263.517        0.148        0.130       12.386       12.399        1.002      337.020        8.713      863.286
03/04/2014  08:10:00       14.533        7.432        5.358       19.608       14.401       13.989      384.492      207.401      195.700        0.054        0.039       16.323        6.429        0.155      336.988        8.658      863.307
03/04/2014  08:11:00        0.567       49.769        6.709       38.236       69.814       31.335     1461.993     4873.997      981.870        0.492        0.366       49.772       37.562        0.570      336.720        8.210      863.331
03/04/2014  08:12:00      -32.826       83.958       -2.148       35.630       48.926       27.716     1269.488     2393.782      768.203        0.628        0.222       90.147       27.529        0.093      336.755        8.271      863.342
03/04/2014  08:13:00       -7.202       10.947       -0.971       48.926       67.768       38.329     2393.772     4592.554     1469.090        0.431        0.423       13.104       33.087        6.376      336.668        8.124      863.357
03/04/2014  08:14:00      -91.897       20.086       -8.229       38.087       71.698       25.452     1450.639     5140.666      647.821        0.808        0.362       94.067       23.413        0.062      336.530        7.894      863.382
03/04/2014  08:15:00      -37.573      -22.795      -17.590       49.046       50.803       33.058     2405.486     2580.900     1092.816        0.416        0.304       43.947       30.993        0.497      336.542        7.914      863.403
03/04/2014  08:16:00     -114.135      -72.879       -9.012       49.513       38.851       26.112     2451.581     1509.398      681.842        1.153        0.232      135.419       12.936        0.009      336.492        7.830      863.441
03/04/2014  08:17:00     -149.537      -37.924      -28.233       70.020       45.350       25.917     4902.836     2056.629      671.672        1.611        0.382      154.271       19.575        0.016      336.429        7.724      863.474
03/04/2014  08:18:00       -1.894       42.827       21.843       65.246       52.297       52.447     4257.080     2735.003     2750.718        0.603        0.487       42.869       48.055        1.257      336.798        8.341      863.493
03/04/2014  08:19:00      -65.856      105.867      -19.365       67.785       47.928       29.903     4594.847     2297.059      894.177        1.185        0.389      124.679       21.923        0.031      336.631        8.063      863.508
03/04/2014  08:20:00      -66.731       44.036       -5.450       70.196       43.862       35.964     4927.459     1923.883     1293.410        0.728        0.407       79.951       22.376        0.078      336.729        8.228      863.509
03/04/2014  08:21:00      -32.728       25.439        3.350       28.780       27.893       19.541      828.277      778.009      381.854        0.186        0.099       41.452       13.248        0.102      336.967        8.623      863.498
03/04/2014  08:22:00      -29.995       10.418       -3.008       34.726       33.502       25.999     1205.877     1122.393      675.970        0.201        0.150       31.753       21.434        0.456      336.991        8.664      863.494
03/04/2014  08:23:00      -58.304       46.462        6.023       48.588       40.080       24.404     2360.790     1606.428      595.564        0.508        0.228       74.553       25.656        0.118      337.042        8.748      863.500
03/04/2014  08:24:00      -66.232       61.669        8.277       46.338       44.850       32.109     2147.248     2011.550     1030.967        0.672        0.259       90.497       28.717        0.101      336.909        8.528      863.508
03/04/2014  08:25:00     -144.031      132.561      -35.645       50.708       57.121       33.716     2571.325     3262.808     1136.740        2.328        0.349      195.748       33.203        0.029      336.577        7.969      863.519
03/04/2014  08:26:00     -170.433       72.852      -25.950       66.152       49.249       30.228     4376.129     2425.462      913.755        2.137        0.386      185.351       31.980        0.030      336.597        8.003      863.513
03/04/2014  08:27:00      -98.292       26.811      -16.443       51.808       33.001       24.706     2684.070     1089.061      610.375        0.752        0.219      101.883       21.460        0.044      336.608        8.023      863.524
03/04/2014  08:28:00      -67.219       29.091       -4.498       35.742       24.355       23.752     1277.490      593.147      564.181        0.391        0.122       73.244       25.806        0.124      336.722        8.215      863.531
03/04/2014  08:29:00       -0.388      -41.580        6.139       27.691       50.308       23.259      766.816     2530.913      540.970        0.280        0.192       41.582       20.878        0.252      336.811        8.364      863.533
03/04/2014  08:30:00      -26.901      -61.354       10.759       28.489       33.282       19.615      811.636     1107.672      384.748        0.345        0.115       66.992       16.118        0.058      336.838        8.409      863.549
03/04/2014  08:31:00      -21.464      -68.583       -1.374       28.242       48.595       20.367      797.603     2361.486      414.805        0.437        0.179       71.863       24.941        0.120      336.786        8.323      863.560
03/04/2014  08:32:00      -31.317      -12.145       -6.312       21.086       37.326       16.685      444.636     1393.211      278.381        0.164        0.106       33.589       13.275        0.156      336.631        8.064      863.566
03/04/2014  08:33:00      -38.882      -40.912      -11.254       29.149       30.756       14.488      849.641      945.936      209.913        0.266        0.100       56.442       14.138        0.063      336.723        8.218      863.570
03/04/2014  08:34:00      -80.292      -73.307       -1.750       23.809       43.599       12.339      566.848     1900.866      152.251        0.722        0.131      108.723        8.099        0.006      336.594        7.999      863.555
03/04/2014  08:35:00      -87.276      -93.226       -0.543       31.685       32.618       19.612     1003.937     1063.959      384.637        0.938        0.123      127.704       18.036        0.020      336.631        8.064      863.554
03/04/2014  08:36:00     -117.634      -86.261      -13.085       22.958       27.146       22.616      527.075      736.908      511.466        1.161        0.089      145.872       13.250        0.008      336.587        7.989      863.555
03/04/2014  08:37:00      -55.362      -75.789       -9.655       36.350       17.505       13.219     1321.302      306.416      174.753        0.535        0.090       93.855       15.919        0.029      336.555        7.937      863.561
03/04/2014  08:38:00      -80.162      -82.671      -12.451       34.448       31.299       25.487     1186.697      979.643      649.599        0.812        0.141      115.154       22.124        0.037      336.719        8.210      863.553
03/04/2014  08:39:00      -70.139      -63.135        5.640       46.870       35.694       23.313     2196.837     1274.084      543.511        0.648        0.201       94.368       23.265        0.061      336.802        8.350      863.557
03/04/2014  08:40:00     -101.721     -107.607       -1.778       59.365       45.379       35.433     3524.175     2059.268     1255.498        1.438        0.342      148.076       34.626        0.055      336.808        8.357      863.564
03/04/2014  08:41:00     -124.341      -69.622       -4.434       52.070       32.054       25.409     2711.258     1027.473      645.606        1.236        0.219      142.506       14.829        0.011      336.716        8.206      863.576
03/04/2014  08:42:00      -82.673      -31.072       17.327       66.652       47.109       38.072     4442.488     2219.266     1449.448        0.810        0.406       88.319       34.051        0.149      337.160        8.947      863.571
03/04/2014  08:43:00       -6.387      -22.755       31.701       55.363       72.869       44.971     3065.039     5309.914     2022.352        0.598        0.520       23.634       31.970        1.830      337.477        9.479      863.561
03/04/2014  08:44:00       21.374      -18.412       50.302       58.306       93.971       65.983     3399.587     8830.522     4353.796        0.995        0.829       28.211       53.248        3.562      337.695        9.843      863.586
03/04/2014  08:45:00      143.543     -196.783      -38.263       87.300       82.855       54.057     7621.293     6865.001     2922.150        3.910        0.870      243.574       59.341        0.059      336.876        8.468      863.602
03/04/2014  08:46:00      119.148      -43.132       17.205       70.020       90.422       81.090     4902.847     8176.206     6575.628        1.800        0.983      126.715       70.569        0.310      337.014        8.700      863.618
03/04/2014  08:47:00       33.173      -47.215       27.119       54.564       86.819       36.811     2977.197     7537.587     1355.014        0.797        0.593       57.704       20.375        0.125      337.337        9.244      863.626
03/04/2014  08:48:00       82.095     -126.317      -18.389       58.769       55.702       37.200     3453.768     3102.762     1383.842        1.549        0.397      150.650       23.047        0.023      337.167        8.958      863.644
03/04/2014  08:49:00       50.667      -26.485       29.153       46.989       73.947       50.681     2207.947     5468.135     2568.533        0.718        0.512       57.172       58.188        1.036      337.430        9.400      863.660
03/04/2014  08:50:00       29.586       64.369       80.985       47.354       62.798       35.283     2242.417     3943.589     1244.894        0.950        0.372       70.843       30.859        0.190      337.586        9.660      863.664
03/04/2014  08:51:00       89.090      -60.270       29.036       70.624      104.780       47.929     4987.816    10978.829     2297.213        1.534        0.913      107.562       51.261        0.227      337.522        9.552      863.676
03/04/2014  08:52:00       28.795       21.133       12.505       32.227       46.165       40.332     1038.595     2131.232     1626.648        0.311        0.240       35.718       19.821        0.308      337.331        9.233      863.686
03/04/2014  08:53:00        5.282        0.340        4.690       39.412       91.710       31.922     1553.306     8410.700     1019.002        0.551        0.549        5.292       31.971       36.493      337.380        9.314      863.679
03/04/2014  08:54:00       23.828      -16.778       52.769       76.077      113.300       59.020     5787.711    12836.880     3483.373        1.287        1.105       29.142       72.330        6.160      337.727        9.895      863.675
03/04/2014  08:55:00      148.742     -228.271      -41.871       38.125       48.861       31.528     1453.506     2387.352      994.040        4.041        0.242      272.455       23.235        0.007      336.772        8.294      863.677
03/04/2014  08:56:00       72.254      -38.532        9.502       85.408       94.110       53.486     7294.511     8856.619     2860.720        1.290        0.951       81.886       68.184        0.693      337.288        9.161      863.701
03/04/2014  08:57:00       29.323      -33.318        1.510       42.841       43.632       29.922     1835.376     1903.717      895.356        0.330        0.232       44.384       28.111        0.401      337.115        8.873      863.714
03/04/2014  08:58:00      -30.134      -56.367       -1.205       70.698       63.794       30.234     4998.216     4069.719      914.068        0.703        0.499       63.916       31.118        0.237      337.309        9.195      863.715
03/04/2014  08:59:00     -105.306      -65.714      -15.636       34.068       52.989       22.477     1160.621     2807.844      505.236        1.006        0.224      124.128       18.141        0.021      336.854        8.435      863.724
03/04/2014  09:00:00      -65.626      -28.221        0.443       22.174       47.559       21.585      491.702     2261.885      465.910        0.416        0.161       71.437       22.350        0.098      337.134        8.903      863.737
03/04/2014  09:01:00      -16.620      -45.182       11.137       47.970       43.824       26.909     2301.168     1920.503      724.093        0.369        0.247       48.142       23.707        0.242      337.523        9.555      863.762
03/04/2014  09:02:00      -15.819      -54.033      -10.303       36.705       50.181       35.282     1347.291     2518.123     1244.806        0.419        0.256       56.301       25.317        0.202      337.638        9.746      863.776
03/04/2014  09:03:00       16.340      -70.104      -19.849       39.878       33.475       36.246     1590.216     1120.571     1313.759        0.480        0.201       71.983       13.114        0.033      337.479        9.481      863.804
03/04/2014  09:04:00       17.551        7.701       50.402       31.302       28.499       33.057      979.826      812.170     1092.733        0.290        0.144       19.166       23.014        1.442      337.771        9.972      863.808
03/04/2014  09:05:00      -26.736       -6.072       17.672       28.284       26.665       25.600      799.991      711.049      655.335        0.161        0.108       27.416       20.527        0.561      337.700        9.852      863.792
03/04/2014  09:06:00       46.164     -105.175      -11.725       73.405       55.931       33.529     5388.343     3128.279     1124.210        1.148        0.482      114.860       23.435        0.042      337.253        9.101      863.788
03/04/2014  09:07:00      -39.806      -48.945        3.816       47.465       40.442       32.641     2252.919     1635.585     1065.421        0.447        0.248       63.089       30.607        0.235      337.572        9.637      863.786
03/04/2014  09:08:00      -59.353      -65.690      -10.433       50.188       39.971       32.689     2518.826     1597.684     1068.603        0.657        0.259       88.533       20.736        0.055      337.214        9.036      863.768
03/04/2014  09:09:00      -14.971        0.400       19.301       35.240       46.962       29.202     1241.874     2205.419      852.773        0.245        0.215       14.976       18.294        1.492      337.618        9.713      863.750
03/04/2014  09:10:00       18.061       17.001       -7.306       42.634       38.027       38.671     1817.688     1446.029     1495.480        0.271        0.238       24.804       33.046        1.775      337.556        9.610      863.746
03/04/2014  09:11:00       -4.351      -30.975       16.410       65.279       63.542       52.724     4261.319     4037.648     2779.800        0.616        0.554       31.279       51.099        2.669      337.535        9.575      863.737
03/04/2014  09:12:00      -42.005      -40.525       -4.986       48.198       37.158       26.083     2323.072     1380.705      680.324        0.391        0.219       58.367       17.103        0.086      337.292        9.168      863.738
03/04/2014  09:13:00      -22.910      -19.391        5.702       56.913       50.620       29.961     3239.063     2562.409      897.652        0.382        0.335       30.015       25.819        0.740      337.443        9.420      863.731
03/04/2014  09:14:00        0.326       73.011       95.678       37.702       60.235       42.448     1421.423     3628.283     1801.842        1.067        0.343       73.012       41.101        0.317      337.921       10.222      863.724
03/04/2014  09:15:00        4.230      -34.641       49.991       37.951       77.884       57.994     1440.303     6065.883     3363.325        0.729        0.543       34.898       46.216        1.754      338.103       10.528      863.714
03/04/2014  09:16:00        1.614        2.093       50.686       47.614       59.545       58.144     2267.131     3545.602     3380.736        0.588        0.460        2.643       46.201      305.548      338.290       10.842      863.727
03/04/2014  09:17:00       28.779       17.627       77.051       38.752       59.225       28.512     1501.733     3507.584      812.934        0.645        0.291       33.748       27.325        0.656      337.906       10.197      863.743
03/04/2014  09:18:00        6.834       73.923       87.040       61.892       65.995       43.681     3830.643     4355.293     1908.008        1.159        0.505       74.238       35.118        0.224      338.066       10.466      863.753
03/04/2014  09:19:00       14.837       19.484       66.147       33.615       39.816       34.844     1129.999     1585.344     1214.077        0.445        0.196       24.490       33.233        1.841      337.940       10.254      863.767
03/04/2014  09:20:00       42.705        9.932       27.220       40.229       53.615       27.524     1618.359     2874.528      757.598        0.396        0.263       43.845       14.238        0.105      337.780        9.984      863.780
03/04/2014  09:21:00       55.036       -7.257       11.671       34.730       85.164       35.728     1206.167     7252.930     1276.473        0.648        0.487       55.513       39.150        0.497      337.730        9.902      863.805
03/04/2014  09:22:00       29.244      -42.872       22.584       34.926       60.443       43.024     1219.839     3653.348     1851.051        0.496        0.336       51.897       37.636        0.526      337.641        9.752      863.800
03/04/2014  09:23:00       10.418       40.553       70.830       39.024       68.041       52.283     1522.834     4629.617     2733.524        0.783        0.444       41.869       44.930        1.152      337.979       10.318      863.804
03/04/2014  09:24:00        6.409       -2.766       50.675       54.891      155.300       97.025     3013.015    24118.197     9413.824        1.957        1.827        6.980      115.108      271.942      337.546        9.592      863.786
03/04/2014  09:25:00      -19.101     -117.440       -1.165       67.174       62.132       45.499     4512.300     3860.401     2070.171        1.230        0.522      118.983       28.613        0.058      337.874       10.141      863.808
03/04/2014  09:26:00      -19.839      -30.946       22.745       45.655       52.330       32.056     2084.411     2738.468     1027.592        0.386        0.293       36.759       36.489        0.985      337.967       10.300      863.814
03/04/2014  09:27:00       36.913      -83.907        1.772       53.253       96.620       46.784     2835.860     9335.499     2188.786        1.138        0.718       91.668       56.337        0.378      337.964       10.294      863.829
03/04/2014  09:28:00       39.687      -96.804       -1.309       95.756       79.642       42.095     9169.234     6342.794     1771.958        1.411        0.864      104.623       42.482        0.165      337.290        9.165      863.844
03/04/2014  09:29:00      -30.589        4.364       -0.988       39.451       24.876       19.854     1556.398      618.839      394.195        0.176        0.128       30.899        4.063        0.017      337.419        9.380      863.840
03/04/2014  09:30:00      -69.038      -65.856        4.575       71.793       51.590       34.022     5154.164     2661.488     1157.518        0.905        0.449       95.411       35.601        0.139      337.317        9.209      863.855
03/04/2014  09:31:00      -57.806      -73.038       13.748       78.843       60.266       38.735     6216.153     3631.995     1500.368        1.010        0.567       93.145       43.168        0.215      337.490        9.500      863.859
03/04/2014  09:32:00      -83.891      -63.523        5.024       54.930       41.683       37.868     3017.323     1737.439     1433.948        0.864        0.309      105.228       34.082        0.105      337.261        9.116      863.887
03/04/2014  09:33:00       38.317      -73.236       22.696       50.105       79.372       49.307     2510.503     6299.929     2431.206        0.929        0.562       82.654       39.623        0.230      337.761        9.954      863.898
03/04/2014  09:34:00       17.326       45.649       94.119       62.298       79.655       60.067     3881.063     6344.928     3608.058        1.254        0.692       48.827       55.753        1.304      337.824       10.060      863.908
03/04/2014  09:35:00       37.253       61.572      101.967       57.421       90.436       65.235     3297.158     8178.645     4255.662        1.565        0.787       71.964       65.915        0.839      337.646        9.760      863.919
03/04/2014  09:36:00       39.961       -5.901       26.403       53.635       86.622       64.252     2876.747     7503.368     4128.289        0.842        0.725       40.394       68.540        2.879      337.633        9.740      863.950
03/04/2014  09:37:00       20.917      -52.585       35.192       61.686       95.355       53.879     3805.215     9092.605     2902.909        1.012        0.790       56.593       54.008        0.911      337.919       10.219      863.962
03/04/2014  09:38:00       52.523      -82.145       -0.351       69.542       81.207       65.498     4836.083     6594.637     4290.006        1.261        0.786       97.501       49.291        0.256      337.673        9.804      863.971
03/04/2014  09:39:00       60.258       25.961       74.371       54.755       90.512       71.585     2998.152     8192.347     5124.385        1.307        0.816       65.613       72.963        1.237      337.718        9.882      863.981
03/04/2014  09:40:00       51.727        8.550       75.902       59.525       50.822       51.080     3543.167     2582.875     2609.170        0.862        0.437       52.429       33.821        0.416      337.759        9.949      863.983
03/04/2014  09:41:00       14.767      -15.827       39.467       37.335       63.955       49.651     1393.925     4090.285     2465.201        0.499        0.397       21.646       49.360        5.200      337.938       10.251      863.980
03/04/2014  09:42:00       83.002     -133.658      -12.361       73.848       99.232       61.828     5453.453     9847.082     3822.762        2.201        0.956      157.334       67.962        0.187      337.657        9.777      863.980
03/04/2014  09:43:00       51.716       -6.309       35.428       65.503       76.766       64.406     4290.650     5893.035     4148.123        0.915        0.717       52.100       60.748        1.360      337.912       10.207      863.988
03/04/2014  09:44:00       46.095       -8.165       33.810       62.554       95.187       50.081     3912.972     9060.633     2508.132        0.941        0.774       46.812       51.204        1.196      337.810       10.035      863.999
03/04/2014  09:45:00       24.946       25.399       67.289       36.457       32.664       20.339     1329.112     1066.945      413.664        0.430        0.140       35.601       12.985        0.133      337.775        9.977      864.021
03/04/2014  09:46:00       46.715      -60.901        8.720       55.493       78.052       46.717     3079.466     6092.055     2182.440        0.866        0.568       76.754       48.054        0.392      337.853       10.107      864.037
03/04/2014  09:47:00       13.731       -9.372       35.597       26.146       44.327       27.875      683.623     1964.913      777.036        0.248        0.171       16.624       18.544        1.244      338.071       10.474      864.028
03/04/2014  09:48:00       25.319      -26.105       15.697       41.997       65.338       39.009     1763.717     4269.064     1521.677        0.456        0.378       36.366       40.651        1.249      338.032       10.409      864.027
03/04/2014  09:49:00      -13.511      -20.204       13.889       39.562       32.309       24.929     1565.136     1043.893      621.463        0.201        0.162       24.306       11.565        0.226      337.922       10.225      864.040
03/04/2014  09:50:00      -17.673       10.756       22.548       47.922       20.520       26.263     2296.474      421.060      689.723        0.217        0.170       20.689       30.104        2.117      338.138       10.587      864.045
03/04/2014  09:51:00      -34.000      -50.064       -2.766       37.428       36.857       29.276     1400.863     1358.461      857.101        0.364        0.181       60.518       23.769        0.154      337.658        9.782      864.037
03/04/2014  09:52:00      -39.285      -84.181        3.971       60.848       43.817       34.363     3702.493     1919.914     1180.794        0.772        0.340       92.896       34.428        0.137      337.537        9.578      864.035
03/04/2014  09:53:00      -77.076      -62.732       10.910       53.568       41.663       36.408     2869.544     1735.835     1325.509        0.796        0.297       99.378       25.191        0.064      337.546        9.592      864.039
03/04/2014  09:54:00      -77.617      -26.944       -9.557       37.965       21.633       18.152     1441.344      467.975      329.506        0.454        0.112       82.161        7.952        0.009      337.361        9.282      864.045
03/04/2014  09:55:00      -28.983      -21.634       -0.183       23.982       14.158       11.020      575.120      200.453      121.437        0.110        0.045       36.167       10.442        0.083      337.670        9.799      864.043
03/04/2014  09:56:00      -39.395      -57.057       -8.226       24.313       27.932       18.005      591.117      780.215      324.176        0.329        0.085       69.336       15.606        0.051      337.625        9.725      864.047
03/04/2014  09:57:00      -14.345      -25.392        5.659       22.927       24.245       24.387      525.668      587.827      594.711        0.130        0.085       29.164       22.032        0.571      338.044       10.428      864.056
03/04/2014  09:58:00       65.548     -115.082       -8.227       88.774       86.832       55.194     7880.842     7539.786     3046.394        1.803        0.923      132.440       53.837        0.165      338.114       10.544      864.056
03/04/2014  09:59:00        0.939       12.821       49.831       34.235       62.947       38.933     1172.029     3962.282     1515.808        0.465        0.333       12.855       41.382       10.362      338.376       10.985      864.066
03/04/2014  10:00:00       11.539       63.100       84.753       51.680       61.240       35.793     2670.835     3750.341     1281.139        0.950        0.385       64.146       39.181        0.373      338.313       10.879      864.058
03/04/2014  10:01:00      -10.931       26.226       86.127       32.268       65.033       39.620     1041.238     4229.229     1569.770        0.753        0.342       28.413       33.319        1.375      338.429       11.074      864.059
03/04/2014  10:02:00       73.259     -116.590      -14.566       85.456       96.487       54.488     7302.674     9309.734     2968.958        1.937        0.979      137.696       60.516        0.193      337.868       10.132      864.066
03/04/2014  10:03:00       26.827       42.690      114.997       51.703       71.934       49.619     2673.248     5174.477     2462.035        1.304        0.515       50.419       51.334        1.037      338.007       10.366      864.055
03/04/2014  10:04:00       61.212      -16.016       33.948       40.844       46.766       35.398     1668.265     2187.090     1253.015        0.513        0.255       63.273       29.958        0.224      337.950       10.270      864.064
03/04/2014  10:05:00       22.402       60.284       56.484       29.413       45.916       38.078      865.118     2108.274     1449.921        0.587        0.221       64.312       34.986        0.296      338.163       10.628      864.027
03/04/2014  10:06:00       13.903       18.114       36.965       57.298       98.173       48.976     3283.116     9637.877     2398.647        0.860        0.766       22.834       55.744        5.960      338.526       11.237      864.022
03/04/2014  10:07:00      132.653     -206.597      -42.174       61.714       61.878       43.575     3808.622     3828.867     1898.751        3.580        0.477      245.518       37.371        0.023      337.933       10.237      864.010
03/04/2014  10:08:00       90.762      -86.772       31.958       65.307      158.838       78.531     4265.041    25229.543     6167.052        2.622        1.783      125.567       94.348        0.565      338.364       10.964      863.985
03/04/2014  10:09:00       20.836       26.625       67.289       47.446       76.219       47.721     2251.105     5809.261     2277.302        0.800        0.517       33.809       49.385        2.134      338.191       10.675      864.003
03/04/2014  10:10:00       40.410      -19.503       51.732       54.591       96.551       66.816     2980.192     9322.043     4464.436        1.073        0.838       44.870       69.141        2.374      338.441       11.092      863.990
03/04/2014  10:11:00        8.645      -52.489       60.202       46.132      112.101       57.930     2128.164    12566.728     3355.842        1.225        0.903       53.196       61.850        1.352      338.636       11.422      864.009
03/04/2014  10:12:00       48.251     -138.511      -18.693       73.231       85.779       53.436     5362.725     7358.115     2855.447        1.872        0.779      146.675       51.277        0.122      338.108       10.534      864.016
03/04/2014  10:13:00       81.742     -196.092      -25.268       54.351       63.273       38.552     2954.079     4003.532     1486.245        2.711        0.422      212.447       21.784        0.011      337.786        9.993      864.024
03/04/2014  10:14:00       21.550      -81.652        1.718       48.976       67.699       38.356     2398.602     4583.099     1471.200        0.779        0.423       84.448       30.054        0.127      338.219       10.723      864.032
03/04/2014  10:15:00       65.732      -66.347       18.654       73.600       87.241       52.891     5416.911     7611.046     2797.460        1.245        0.791       93.395       52.328        0.314      338.088       10.502      864.037
03/04/2014  10:16:00       36.121       -7.800       44.289       61.052       77.944       66.153     3727.352     6075.291     4376.232        0.875        0.709       36.954       66.295        3.218      338.508       11.207      864.040
03/04/2014  10:17:00        8.205       44.810      100.884       35.990       55.447       35.683     1295.291     3074.315     1273.271        0.895        0.282       45.555       32.536        0.510      338.461       11.129      864.063
03/04/2014  10:18:00       48.980     -115.933      -13.646       66.776      135.355       77.837     4459.098    18321.060     6058.550        2.243        1.442      125.855       89.562        0.506      338.122       10.558      864.051
03/04/2014  10:19:00       22.210       42.753       59.037       48.519       48.462       38.673     2354.131     2348.568     1495.607        0.600        0.310       48.178       30.778        0.408      338.566       11.305      864.062
03/04/2014  10:20:00        0.937       51.151       76.962       28.210       41.329       28.255      795.801     1708.079      798.343        0.592        0.165       51.160       21.155        0.171      338.263       10.795      864.036
03/04/2014  10:21:00       37.102      -54.910       35.026       86.678      117.464       63.242     7513.113    13797.797     3999.575        1.546        1.266       66.270       73.541        1.231      338.263       10.795      864.005
03/04/2014  10:22:00       46.518       27.505       92.560       72.271       87.521       72.175     5223.170     7659.861     5209.246        1.479        0.905       54.041       59.465        1.211      338.674       11.486      863.995
03/04/2014  10:23:00      150.431     -199.007      -44.027       74.711       90.171       55.562     5581.701     8130.779     3087.135        4.048        0.840      249.467       51.862        0.043      337.998       10.349      863.990
03/04/2014  10:24:00       77.860      -30.420       73.079       98.553      147.520      109.207     9712.627    21762.272    11926.094        2.786        2.170       83.592      124.611        2.222      338.479       11.157      863.978
03/04/2014  10:25:00       82.332      -67.966       27.630       79.450      105.575       70.883     6312.291    11146.039     5024.441        1.732        1.124      106.761       76.852        0.518      338.312       10.878      863.987
03/04/2014  10:26:00       41.543      -24.615       10.315       71.813       60.284       50.623     5157.164     3634.219     2562.722        0.689        0.568       48.288       55.305        1.312      338.479       11.159      863.976
03/04/2014  10:27:00        4.395      -42.055       16.372       58.229       63.571       34.664     3390.562     4041.334     1201.601        0.534        0.432       42.284       34.029        0.648      338.429       11.074      863.971
03/04/2014  10:28:00       38.091       22.247       75.019       61.551      106.322       56.140     3788.507    11304.410     3151.743        1.291        0.912       44.112       68.127        2.385      338.435       11.083      863.944
03/04/2014  10:29:00       93.734       -1.171       55.969       85.526      110.674       72.999     7314.631    12248.700     5328.875        1.840        1.245       93.741       75.891        0.655      338.335       10.916      863.906
03/04/2014  10:30:00      106.765       -5.913       69.591      111.341      155.597      102.811    12396.917    24210.517    10570.173        3.172        2.359      106.928      114.084        1.138      338.422       11.062      863.874
03/04/2014  10:31:00      157.597     -159.786        7.592       87.040      100.281       73.745     7575.963    10056.289     5438.280        3.674        1.154      224.429       79.672        0.126      338.015       10.378      863.861
03/04/2014  10:32:00       93.713       87.265      100.278      103.504      110.300       68.927    10713.077    12166.061     4750.894        2.704        1.382      128.053       72.792        0.323      338.328       10.902      863.842
03/04/2014  10:33:00      119.860      101.921       84.661       89.160       39.347       55.193     7949.448     1548.160     3046.213        2.223        0.627      157.335       55.600        0.125      338.070       10.471      863.855
03/04/2014  10:34:00       97.256      117.248       96.106       56.694       52.105       58.768     3214.206     2714.901     3453.681        2.091        0.469      152.334       39.985        0.069      338.017       10.382      863.862
03/04/2014  10:35:00       70.536       46.169       23.913       42.659       44.335       35.686     1819.795     1965.629     1273.516        0.637        0.253       84.302       31.510        0.140      337.851       10.106      863.868
03/04/2014  10:36:00      -37.219       43.571      -11.414       48.440       25.744       26.357     2346.450      662.736      694.706        0.356        0.185       57.303       20.852        0.132      337.994       10.345      863.860
03/04/2014  10:37:00     -112.310       -2.519      -15.933       32.424       37.170       31.224     1051.296     1381.638      974.964        0.814        0.170      112.338       24.765        0.049      337.739        9.917      863.844
03/04/2014  10:38:00       16.784       35.507       32.507       93.334       48.377       44.784     8711.153     2340.304     2005.612        0.783        0.653       39.274       49.544        1.591      338.276       10.818      863.845
03/04/2014  10:39:00       52.590      157.280      160.250       91.198       84.543       72.409     8317.124     7147.472     5243.108        3.694        1.035      165.839       69.282        0.175      338.275       10.814      863.813
03/04/2014  10:40:00       93.987      108.602       76.217      104.936       65.730       76.471    11011.517     4320.385     5847.738        2.380        1.059      143.625       76.435        0.283      338.118       10.550      863.804
03/04/2014  10:41:00      122.534      104.312       18.420       51.187       49.500       50.022     2620.071     2450.271     2502.201        1.690        0.379      160.921       22.907        0.020      337.958       10.283      863.800
03/04/2014  10:42:00      102.734       73.173       15.673       51.411       39.431       38.814     2643.120     1554.802     1506.500        1.093        0.285      126.128       25.564        0.041      338.357       10.954      863.786
03/04/2014  10:43:00       52.003       75.242       53.940       43.991       35.235       34.765     1935.221     1241.501     1208.613        0.783        0.219       91.464       17.051        0.035      338.504       11.201      863.764
03/04/2014  10:44:00       50.354       50.252       -7.763       26.248       22.687       41.333      688.944      514.719     1708.394        0.402        0.146       71.139       19.679        0.077      337.974       10.311      863.741
03/04/2014  10:45:00        7.863      -26.591       16.122       34.881       60.492       40.160     1216.655     3659.340     1612.832        0.376        0.324       27.729       37.403        1.819      338.489       11.175      863.725
03/04/2014  10:46:00       -1.460      -21.275       44.643       83.038       90.441       59.356     6895.265     8179.514     3523.132        1.052        0.930       21.325       56.472        7.012      338.738       11.594      863.702
03/04/2014  10:47:00       45.719       29.279       98.915       61.550       71.929       51.904     3788.459     5173.831     2694.017        1.219        0.583       54.290       41.490        0.584      338.863       11.805      863.685
03/04/2014  10:48:00      105.124      -99.705        8.059       54.573      108.936       64.488     2978.262    11867.159     4158.723        2.003        0.950      144.887       71.219        0.242      338.371       10.975      863.691
03/04/2014  10:49:00       27.989      -47.537       11.069       45.645       75.964       52.919     2083.440     5770.576     2800.473        0.691        0.533       55.165       50.678        0.844      338.558       11.291      863.692
03/04/2014  10:50:00      -23.974      -41.614       -6.476       44.248       38.886       25.821     1957.907     1512.090      666.726        0.324        0.207       48.026       19.731        0.169      338.692       11.517      863.671
03/04/2014  10:51:00       64.908       99.648      116.124       77.531       81.746       71.271     6011.053     6682.414     5079.486        2.270        0.889      118.924       64.375        0.293      338.466       11.137      863.667
03/04/2014  10:52:00       54.442     -129.118       -5.153       89.421      105.067       42.391     7996.138    11039.033     1797.011        2.024        1.042      140.127       35.199        0.063      338.509       11.209      863.658
03/04/2014  10:53:00       50.491     -124.535       -1.650       90.814       82.246       64.075     8247.223     6764.415     4105.546        1.859        0.956      134.381       50.199        0.140      338.720       11.562      863.648
03/04/2014  10:54:00       69.039     -148.984      -22.896       82.351       59.749       35.953     6781.750     3569.913     1292.625        1.956        0.582      164.203       19.938        0.015      338.515       11.216      863.630
03/04/2014  10:55:00       28.501       58.778       78.252       35.678       35.672       32.735     1272.905     1272.517     1071.586        0.700        0.181       65.324       23.406        0.128      338.735       11.590      863.617
03/04/2014  10:56:00       -3.611        0.960       35.186       24.059       55.243       35.998      578.853     3051.836     1295.848        0.309        0.246        3.737       32.788       76.987      338.613       11.383      863.598
03/04/2014  10:57:00      -21.697        6.935       15.988       36.435       34.336       41.701     1327.543     1178.959     1739.002        0.251        0.212       22.778       31.781        1.947      338.727       11.575      863.583
03/04/2014  10:58:00       28.084      -43.287       45.462       63.795       98.206       70.432     4069.787     9644.409     4960.606        1.170        0.934       51.599       63.723        1.525      339.058       12.132      863.563
03/04/2014  10:59:00       77.707      -45.861       21.876       86.665      116.283       70.421     7510.891    13521.789     4959.112        1.730        1.300       90.231       66.195        0.538      338.557       11.287      863.575
03/04/2014  11:00:00       86.679      -11.958       40.266       56.196       71.234       50.481     3157.949     5074.250     2548.324        1.003        0.539       87.500       38.842        0.197      338.569       11.310      863.578
03/04/2014  11:01:00       83.361       75.738       64.990       80.049       72.377       69.865     6407.767     5238.386     4881.173        1.672        0.826      112.629       62.239        0.305      338.788       11.676      863.564
03/04/2014  11:02:00      121.300      -88.186       20.188      102.237      114.967       84.170    10452.366    13217.330     7084.578        2.682        1.538      149.968       87.257        0.339      338.656       11.455      863.555
03/04/2014  11:03:00       74.298       27.515       92.028      104.224      151.826       81.185    10862.739    23051.036     6590.939        2.762        2.025       79.229       95.052        1.439      338.845       11.772      863.548
03/04/2014  11:04:00      106.097       72.926       76.544       77.769       73.036       58.155     6047.949     5334.272     3381.999        1.860        0.738      128.743       45.115        0.123      338.495       11.185      863.567
03/04/2014  11:05:00      100.920       75.059       84.770       54.510       51.513       58.443     2971.308     2653.569     3415.609        1.602        0.452      125.772       35.385        0.079      338.299       10.857      863.579
03/04/2014  11:06:00       -5.178       32.346       -8.664       31.995       26.116       22.899     1023.666      682.045      524.353        0.169        0.112       32.758       13.331        0.166      338.250       10.774      863.583
03/04/2014  11:07:00      -29.229       39.977      -15.065       20.421       34.811       20.278      417.007     1211.785      411.185        0.236        0.102       49.523       13.992        0.080      338.343       10.930      863.556
03/04/2014  11:08:00      -28.880       10.217      -10.531       16.564       22.229       22.696      274.378      494.121      515.090        0.117        0.064       30.634        9.641        0.099      338.382       10.995      863.551
03/04/2014  11:09:00       -0.283      -11.878       -0.454       21.797       29.935       20.096      475.101      896.096      403.830        0.096        0.089       11.881        8.485        0.510      339.024       12.075      863.563
03/04/2014  11:10:00        6.938      -45.678       -0.800       30.052       69.984       19.077      903.112     4897.804      363.918        0.415        0.308       46.202       18.609        0.162      339.167       12.315      863.570
03/04/2014  11:11:00       -0.207      -33.640       38.053       44.974      118.841       57.121     2022.637    14123.229     3262.777        1.099        0.970       33.641       77.748        5.341      339.452       12.795      863.566
03/04/2014  11:12:00      143.966     -240.243      -39.497       76.238       68.284       42.730     5812.180     4662.657     1825.891        4.615        0.615      280.077       32.615        0.014      338.468       11.136      863.583
03/04/2014  11:13:00       97.296     -171.169      -36.688       89.649       96.462       61.952     8036.909     9304.827     3838.083        3.064        1.059      196.889       50.451        0.066      338.566       11.302      863.593
03/04/2014  11:14:00       69.873     -123.895      -18.232       74.717      113.302       57.224     5582.649    12837.352     3274.556        2.113        1.085      142.240       64.281        0.204      338.841       11.766      863.609
03/04/2014  11:15:00       94.486     -254.569      -51.441       88.821       87.639       56.870     7889.118     7680.637     3234.226        4.759        0.940      271.538       42.181        0.024      338.670       11.475      863.606
03/04/2014  11:16:00       71.956     -188.173      -25.571      110.112       80.971       48.914    12124.706     6556.231     2392.544        3.115        1.054      201.462       43.030        0.046      338.548       11.271      863.615
03/04/2014  11:17:00       -1.002      -56.484       20.820       81.971       66.425       44.668     6719.213     4412.230     1995.262        0.837        0.656       56.493       28.234        0.250      339.307       12.549      863.592
03/04/2014  11:18:00       90.845     -197.813      -31.322       96.704      103.107       55.839     9351.575    10631.140     3117.987        3.573        1.155      217.676       45.450        0.044      338.740       11.593      863.572
03/04/2014  11:19:00       71.016     -176.238      -22.724       65.616       62.821       45.294     4305.424     3946.455     2051.550        2.346        0.515      190.008       28.171        0.022      338.720       11.561      863.579
03/04/2014  11:20:00        0.787      -32.565        1.799       80.631       51.738       36.290     6501.328     2676.839     1316.948        0.578        0.525       32.575       28.026        0.740      339.087       12.181      863.575
03/04/2014  11:21:00       40.131     -135.302      -20.939       61.890       75.123       40.426     3830.318     5643.399     1634.241        1.573        0.555      141.129       46.560        0.109      338.738       11.595      863.571
03/04/2014  11:22:00       48.100       -3.274       24.249       41.429       86.249       58.474     1716.386     7438.825     3419.198        0.774        0.629       48.211       51.673        1.149      338.736       11.590      863.573
03/04/2014  11:23:00      -19.534      -11.081       18.539       50.707       58.045       31.683     2571.219     3369.278     1003.793        0.390        0.347       22.458       33.939        2.284      338.903       11.873      863.555
03/04/2014  11:24:00      -51.490      -57.975        1.409       84.211       54.261       35.472     7091.567     2944.211     1258.235        0.865        0.565       77.539       20.792        0.072      338.958       11.963      863.533
03/04/2014  11:25:00       -0.987      -85.845       -6.525       61.675       61.846       33.929     3803.784     3824.948     1151.197        0.809        0.439       85.850       33.125        0.149      339.173       12.325      863.540
03/04/2014  11:26:00       32.241      -93.761       11.490       62.118       72.183       38.946     3858.705     5210.412     1516.828        1.027        0.529       99.149       39.967        0.162      339.187       12.350      863.539
03/04/2014  11:27:00       72.960     -158.690      -21.470       78.024       52.515       43.381     6087.819     2757.809     1881.930        2.085        0.536      174.659       35.752        0.042      338.691       11.513      863.542
03/04/2014  11:28:00       32.272      -49.478        4.313       73.427       74.650       36.947     5391.514     5572.607     1365.088        0.792        0.616       59.073       43.452        0.541      338.776       11.657      863.540
03/04/2014  11:29:00       22.679     -160.658      -25.972       77.410       51.222       38.016     5992.281     2623.665     1445.198        1.853        0.503      162.251       30.843        0.036      338.986       12.010      863.528
03/04/2014  11:30:00       71.310     -164.250      -29.385       59.999       61.742       41.998     3599.935     3812.094     1763.819        2.105        0.459      179.062       23.111        0.017      338.779       11.662      863.545
03/04/2014  11:31:00      -16.882      -61.273       -4.459       65.643       87.965       56.635     4308.949     7737.846     3207.491        0.965        0.763       63.556       62.523        0.968      339.075       12.159      863.551
03/04/2014  11:32:00      -33.287       17.782        8.449       27.608       27.147       28.726      762.193      736.962      825.198        0.191        0.116       37.739       15.491        0.168      339.366       12.651      863.563
03/04/2014  11:33:00       12.082      -23.162       16.743       67.929       64.349       43.784     4614.313     4140.758     1917.080        0.582        0.534       26.123       50.239        3.699      339.576       13.004      863.562
03/04/2014  11:34:00       11.533       41.015       97.777       49.471       79.088       44.030     2447.343     6254.923     1938.634        1.101        0.532       42.606       51.200        1.444      339.534       12.934      863.552
03/04/2014  11:35:00       57.473     -105.911       -6.251       55.432      120.145       60.294     3072.707    14434.788     3635.359        1.785        1.057      120.500       75.541        0.393      338.906       11.875      863.556
03/04/2014  11:36:00       33.872      -95.686       10.026       64.607       60.287       46.727     4174.019     3634.487     2183.432        1.020        0.500      101.504       34.234        0.114      339.043       12.108      863.555
03/04/2014  11:37:00      -60.597      -89.156       -9.249       74.412       55.423       30.221     5537.207     3071.681      913.290        1.061        0.476      107.800       24.774        0.053      339.321       12.575      863.565
03/04/2014  11:38:00      -42.750      -80.428       -2.563       46.657       42.641       29.396     2176.850     1818.290      864.122        0.658        0.243       91.084       18.269        0.040      339.205       12.378      863.580
03/04/2014  11:39:00      -84.881      -98.339      -10.948       60.615       60.685       38.119     3674.137     3682.720     1453.042        1.290        0.440      129.905       38.458        0.088      339.052       12.122      863.577
03/04/2014  11:40:00      -19.157      -85.435        9.462       66.196       62.290       46.975     4381.856     3880.006     2206.669        0.911        0.523       87.556       19.410        0.049      339.406       12.717      863.570
03/04/2014  11:41:00      -27.339      -93.238       20.767       65.741       74.493       46.365     4321.887     5549.254     2149.672        1.094        0.601       97.163       37.543        0.149      339.334       12.596      863.555
03/04/2014  11:42:00      -44.387      -60.157       15.148       65.219       92.899       48.664     4253.555     8630.166     2368.166        1.053        0.763       74.760       42.945        0.330      339.365       12.648      863.562
03/04/2014  11:43:00      -31.707      -50.575       12.970       76.032       74.248       40.011     5780.832     5512.834     1600.903        0.831        0.645       59.692       29.704        0.248      339.489       12.857      863.571
03/04/2014  11:44:00      -49.398       -8.440        8.839       49.046       34.029       29.623     2405.543     1157.996      877.546        0.351        0.222       50.114       19.509        0.152      339.385       12.683      863.565
03/04/2014  11:45:00        2.331       -5.704       44.302       46.917       72.259       41.064     2201.177     5221.318     1686.241        0.555        0.455        6.162       41.043       44.361      339.524       12.916      863.538
03/04/2014  11:46:00      -28.498      -45.451       18.827       52.541       66.084       32.134     2760.598     4367.142     1032.600        0.569        0.408       53.646       31.480        0.344      339.278       12.503      863.501
03/04/2014  11:47:00      -18.327      -43.004       11.277       37.679       48.240       29.483     1419.736     2327.079      869.267        0.346        0.231       46.746       19.403        0.172      339.259       12.470      863.502
03/04/2014  11:48:00       -2.650      -25.429       16.691       25.618       43.263       27.141      656.291     1871.686      736.660        0.210        0.163       25.566       15.448        0.365      339.410       12.725      863.502
03/04/2014  11:49:00     -100.788      -46.187       -9.245       39.292       31.065       22.125     1543.857      965.035      489.509        0.769        0.150      110.867       14.088        0.016      338.708       11.543      863.494
03/04/2014  11:50:00     -135.824      -55.603       -5.256       54.930       42.737       28.782     3017.320     1826.458      828.383        1.362        0.284      146.765       27.051        0.034      338.869       11.814      863.477
03/04/2014  11:51:00      -84.802      -15.807        2.345       53.787       39.172       26.858     2893.030     1534.467      721.375        0.630        0.257       86.263       26.367        0.093      339.397       12.701      863.468
03/04/2014  11:52:00     -100.626      -73.501        2.294       93.886       56.690       34.731     8814.575     3213.790     1206.224        1.438        0.662      124.611       34.990        0.079      339.116       12.227      863.454
03/04/2014  11:53:00     -202.766      -48.775      -17.566       54.806       49.310       30.446     3003.742     2431.475      926.963        2.508        0.318      208.550       22.804        0.012      338.694       11.516      863.465
03/04/2014  11:54:00     -145.177       46.480      -13.019       39.343       62.002       28.566     1547.879     3844.266      816.001        1.481        0.310      152.436       28.816        0.036      338.630       11.412      863.471
03/04/2014  11:55:00     -164.422       54.059      -15.527       55.554       32.069       33.759     3086.288     1028.422     1139.701        1.773        0.263      173.081       32.020        0.034      338.678       11.493      863.447
03/04/2014  11:56:00     -134.205       12.002       -9.311       49.088       27.768       20.782     2409.608      771.057      431.880        1.093        0.181      134.741       22.477        0.028      338.709       11.545      863.428
03/04/2014  11:57:00     -112.871        8.601       -1.492       50.336       39.794       30.006     2533.723     1583.532      900.336        0.892        0.251      113.199       25.957        0.053      338.993       12.021      863.417
03/04/2014  11:58:00      -96.372      -14.640        0.951       24.064       25.804       17.171      579.055      665.845      294.847        0.552        0.077       97.478       11.506        0.014      338.770       11.647      863.403
03/04/2014  11:59:00     -105.350      -26.298       -0.711       55.306       37.563       28.770     3058.776     1411.005      827.688        0.854        0.265      108.582       26.366        0.059      339.105       12.210      863.380
03/04/2014  12:00:00      -66.100      -70.185        1.415       59.812       48.860       29.195     3577.456     2387.307      852.352        0.806        0.341       96.411       16.742        0.030      339.224       12.411      863.375
03/04/2014  12:01:00      -20.121        5.139       -8.318       40.366       41.742       26.113     1629.409     1742.417      681.875        0.228        0.203       20.766       25.684        1.530      338.999       12.033      863.381
03/04/2014  12:02:00      -11.781       74.524       -0.117       24.803       75.611       26.232      615.208     5717.058      688.137        0.636        0.351       75.450       38.461        0.260      339.304       12.548      863.379
03/04/2014  12:03:00       20.926       25.684       11.250       32.059       33.819       31.340     1027.796     1143.714      982.204        0.219        0.158       33.130       20.883        0.397      339.400       12.708      863.358
03/04/2014  12:04:00      -26.567       34.427        4.703       21.114       48.098       25.849      445.783     2313.408      668.161        0.267        0.171       43.486       23.731        0.298      339.592       13.032      863.347
03/04/2014  12:05:00       13.266       37.789       13.595       52.135       37.979       22.874     2718.054     1442.393      523.204        0.324        0.234       40.050       10.658        0.071      339.878       13.513      863.342
03/04/2014  12:06:00      127.830      102.174        5.235       62.058       35.357       42.928     3851.176     1250.147     1842.788        1.687        0.347      163.646       24.712        0.023      339.319       12.571      863.347
03/04/2014  12:07:00       16.217        3.431       21.335       68.206       48.344       36.437     4652.087     2337.177     1327.686        0.452        0.416       16.575       33.628        4.116      339.507       12.888      863.360
03/04/2014  12:08:00      -50.529      115.527       -8.458       72.916       87.209       34.631     5316.703     7605.340     1199.278        1.504        0.706      126.094       30.887        0.060      339.243       12.442      863.356
03/04/2014  12:09:00     -117.312      104.235      -22.388       43.310       51.264       33.552     1875.773     2627.974     1125.719        1.538        0.281      156.930       29.437        0.035      338.946       11.942      863.334
03/04/2014  12:10:00     -166.216       56.282      -16.891       46.012       35.707       31.425     2117.122     1274.976      987.515        1.773        0.219      175.487       24.572        0.020      338.840       11.763      863.314
03/04/2014  12:11:00      -99.257       39.750      -10.461       55.466       58.162       25.312     3076.467     3382.872      640.714        0.932        0.355      106.920       24.179        0.051      339.100       12.202      863.311
03/04/2014  12:12:00     -128.155      -66.558       -4.257       59.848       59.165       35.529     3581.791     3500.552     1262.279        1.461        0.417      144.408       27.545        0.036      339.239       12.435      863.283
03/04/2014  12:13:00     -119.715      -64.944       -3.465       78.587       53.361       37.775     6175.960     2847.397     1426.984        1.450        0.523      136.196       34.737        0.065      339.096       12.196      863.270
03/04/2014  12:14:00     -119.652      -36.781      -21.916       57.848       49.601       31.571     3346.402     2460.306      996.746        1.148        0.340      125.178       33.900        0.073      338.981       12.003      863.239
03/04/2014  12:15:00     -115.330      -68.121      -11.079       96.056       44.410       29.360     9226.728     1972.267      862.021        1.506        0.603      133.946       24.394        0.033      339.084       12.175      863.211
03/04/2014  12:16:00     -102.671      -55.788        9.284       66.692       64.681       34.243     4447.847     4183.590     1172.595        1.177        0.490      116.849       32.801        0.079      339.246       12.448      863.184
03/04/2014  12:17:00     -125.656      -31.151      -10.311      107.504       76.976       43.653    11557.158     5925.318     1905.625        1.812        0.969      129.460       58.052        0.201      339.513       12.896      863.163
03/04/2014  12:18:00     -142.201      180.390      -11.650      169.701      149.325      109.383    28798.330    22298.026    11964.634        5.797        3.153      229.698       72.204        0.099      339.572       12.993      863.127
03/04/2014  12:19:00      122.505      155.352        7.332      109.609       95.011       69.142    12014.213     9027.027     4780.623        3.250        1.291      197.843       41.866        0.045      339.648       13.123      863.092
03/04/2014  12:20:00      227.679      102.563       10.107      107.355       62.555       54.178    11525.109     3913.097     2935.295        4.041        0.919      249.714       18.044        0.005      339.381       12.671      863.143
03/04/2014  12:21:00      175.838      112.472       29.395       62.503       38.974       61.559     3906.669     1519.005     3789.506        2.682        0.461      208.732       39.413        0.036      339.074       12.155      863.157
03/04/2014  12:22:00       84.934       62.635        1.445       59.515       49.505       38.354     3542.061     2450.725     1471.039        0.930        0.373      105.532       24.089        0.052      338.934       11.923      863.138
03/04/2014  12:23:00       42.321      125.445      -20.656       42.610       62.364       36.874     1815.628     3889.290     1359.720        1.251        0.353      132.391       22.690        0.029      339.122       12.239      863.118
03/04/2014  12:24:00       85.751       79.140       51.007       76.827       48.416       66.470     5902.451     2344.133     4418.205        1.444        0.633      116.689       32.467        0.077      339.671       13.163      863.089
03/04/2014  12:25:00       88.727       42.038       39.286       66.141       45.951       53.495     4374.636     2111.536     2861.681        1.026        0.467       98.182       32.198        0.108      339.344       12.612      863.062
03/04/2014  12:26:00      121.158       34.933       -2.110       93.698       74.547       47.933     8779.367     5557.293     2297.579        1.627        0.832      126.094       38.787        0.095      339.250       12.454      863.049
03/04/2014  12:27:00      104.808       62.106       33.372       71.381       64.190       45.481     5095.224     4120.302     2068.480        1.362        0.564      121.828       31.945        0.069      339.647       13.123      863.043
03/04/2014  12:28:00      156.835       98.045        3.895       67.097       65.056       46.358     4501.980     4232.268     2149.040        2.255        0.544      184.959       41.152        0.050      339.184       12.341      863.035
03/04/2014  12:29:00      120.170       94.204       13.971       51.677       47.138       48.905     2670.469     2222.006     2391.703        1.540        0.364      152.693       24.388        0.026      339.033       12.089      863.023
03/04/2014  12:30:00       27.745       46.584       -1.475       32.587       40.153       28.186     1061.940     1612.225      794.458        0.320        0.173       54.220       26.723        0.243      339.199       12.370      862.999
03/04/2014  12:31:00       63.495       56.498       19.353       67.512       41.487       47.687     4557.846     1721.183     2274.073        0.807        0.428       84.992       36.004        0.179      339.165       12.312      862.965
03/04/2014  12:32:00      136.668       80.136       24.326       52.105       45.370       49.540     2714.972     2058.463     2454.211        1.646        0.361      158.430       31.650        0.040      338.971       11.984      862.942
03/04/2014  12:33:00       61.414       45.358       40.392       51.384       52.140       47.928     2640.282     2718.564     2297.056        0.756        0.383       76.348       40.107        0.276      339.381       12.676      862.924
03/04/2014  12:34:00       37.983       58.900       12.725       47.256       50.195       44.711     2233.090     2519.520     1999.034        0.591        0.338       70.085       35.824        0.261      339.668       13.160      862.909
03/04/2014  12:35:00      164.612      111.993       23.263       92.119       72.320       57.405     8485.875     5230.194     3295.329        2.859        0.851      199.097       40.802        0.042      339.389       12.686      862.912
03/04/2014  12:36:00      258.038      168.018       28.894       89.374       53.889       55.190     7987.727     2904.010     3045.985        5.479        0.697      307.918       38.291        0.015      339.045       12.105      862.920
03/04/2014  12:37:00      161.353       94.025       15.471       91.997       66.303       49.201     8463.416     4396.143     2420.725        2.520        0.764      186.750       23.077        0.015      339.073       12.155      862.930
03/04/2014  12:38:00        9.878      121.143      -15.226       52.254       73.283       33.950     2730.494     5370.456     1152.613        1.213        0.463      121.545       40.568        0.111      339.140       12.269      862.922
03/04/2014  12:39:00      101.404       96.046       15.051       91.526       67.429       46.842     8377.062     4546.654     2194.216        1.742        0.756      139.670       32.323        0.054      339.254       12.460      862.914
03/04/2014  12:40:00       98.286       90.606       14.774       78.396       39.630       34.895     6145.924     1570.549     1217.670        1.351        0.447      133.677       35.869        0.072      339.146       12.279      862.934
03/04/2014  12:41:00      -96.034       47.934      -24.260       36.315       25.895       21.059     1318.794      670.576      443.476        0.727        0.122      107.332       11.547        0.012      338.958       11.963      862.905
03/04/2014  12:42:00      -36.817       44.092        9.399       90.351       32.216       40.343     8163.332     1037.868     1627.596        0.711        0.541       57.442       53.427        0.865      339.325       12.582      862.884
03/04/2014  12:43:00      127.270       91.804       23.499       60.859       36.312       36.829     3703.814     1318.565     1356.361        1.578        0.319      156.926       23.563        0.023      339.079       12.165      862.891
03/04/2014  12:44:00       44.212       49.440        3.411       37.118       29.417       31.256     1377.721      865.376      976.961        0.381        0.161       66.326       26.041        0.154      339.317       12.568      862.872
03/04/2014  12:45:00       81.531       46.093       25.284       77.292       56.173       32.633     5973.991     3155.398     1064.903        0.980        0.510       93.658       18.296        0.038      339.823       13.419      862.859
03/04/2014  12:46:00      194.008      121.968       22.496       70.272       68.485       61.624     4938.220     4690.183     3797.553        3.322        0.671      229.162       44.797        0.038      339.297       12.531      862.858
03/04/2014  12:47:00      179.452      133.042       28.602       47.675       36.601       44.740     2272.889     1339.606     2001.710        2.817        0.281      223.390       25.670        0.013      338.996       12.025      862.862
03/04/2014  12:48:00       25.118      133.845      -17.719       43.864       51.782       33.096     1924.051     2681.349     1095.330        1.228        0.285      136.182       26.488        0.038      339.163       12.309      862.847
03/04/2014  12:49:00       -0.447      111.805        9.653       30.462       73.058       37.048      927.945     5337.532     1372.566        1.011        0.382      111.806       41.865        0.140      339.559       12.974      862.832
03/04/2014  12:50:00       29.123       79.064       61.003       58.598       43.973       67.173     3433.777     1933.615     4512.244        1.035        0.494       84.257       55.956        0.441      339.612       13.065      862.835
03/04/2014  12:51:00       66.016       83.464       74.995       49.427       64.812       55.101     2443.047     4200.559     3036.152        1.331        0.484      106.416       48.987        0.212      339.284       12.510      862.841
03/04/2014  12:52:00       19.454       26.550       36.363       35.131       36.039       25.831     1234.168     1298.828      667.243        0.280        0.160       32.914       21.124        0.412      339.667       13.157      862.837
03/04/2014  12:53:00       38.810       47.251       61.389       44.813       77.540       68.393     2008.222     6012.435     4677.590        1.010        0.635       61.146       69.294        1.284      339.473       12.832      862.824
03/04/2014  12:54:00       28.131       12.336       42.828       22.720       55.729       38.974      516.209     3105.709     1518.947        0.396        0.257       30.717       44.364        2.086      339.471       12.826      862.794
03/04/2014  12:55:00       75.241       23.064       51.881       26.536       43.123       39.092      704.142     1859.629     1528.198        0.649        0.205       78.697       35.100        0.199      339.581       13.014      862.777
03/04/2014  12:56:00       21.828       21.100       35.172       35.471       25.812       24.075     1258.180      666.239      579.583        0.233        0.125       30.359       10.195        0.113      339.948       13.633      862.754
03/04/2014  12:57:00      -40.683      -89.020       -5.205       45.628       55.316       24.522     2081.943     3059.906      601.342        0.767        0.287       97.876       24.717        0.064      339.505       12.885      862.742
03/04/2014  12:58:00       60.987      -51.381        9.368       61.028       38.867       30.316     3724.474     1510.661      919.090        0.630        0.308       79.746       29.499        0.137      339.842       13.452      862.726
03/04/2014  12:59:00        2.126       36.994       68.898       35.362       37.771       21.819     1250.461     1426.634      476.057        0.464        0.158       37.055       17.798        0.231      339.780       13.346      862.702
03/04/2014  13:00:00      -11.013        0.908       31.884       24.317       27.200       26.094      591.332      739.837      680.901        0.158        0.101       11.051       23.676        4.590      340.257       14.154      862.681
03/04/2014  13:01:00       25.182       32.264       19.530       34.305       27.670       32.352     1176.821      765.612     1046.663        0.252        0.149       40.928       17.109        0.175      340.054       13.809      862.670
03/04/2014  13:02:00      -67.788      -15.893       -1.994       33.655       33.275       27.609     1132.630     1107.250      762.280        0.393        0.150       69.626       21.982        0.100      339.879       13.515      862.659
03/04/2014  13:03:00       -7.711       -5.532       35.488       43.359       44.313       34.707     1880.005     1963.603     1204.554        0.320        0.252        9.490       35.567       14.046      340.217       14.086      862.659
03/04/2014  13:04:00       65.858      -18.236       13.242       56.107       72.640       36.183     3147.998     5276.626     1309.192        0.729        0.487       68.336       30.440        0.198      339.694       13.204      862.622
03/04/2014  13:05:00       75.958       24.294       68.817       56.342       79.303       48.382     3174.465     6289.011     2340.853        1.145        0.590       79.748       50.556        0.402      339.930       13.601      862.590
03/04/2014  13:06:00       90.996       84.629       75.284       72.280       64.218       41.462     5224.367     4124.004     1719.112        1.609        0.553      124.267       24.747        0.040      339.630       13.093      862.580
03/04/2014  13:07:00       52.572       92.199      112.654       64.203       63.479       50.724     4121.983     4029.637     2572.881        1.734        0.536      106.134       45.282        0.182      339.877       13.511      862.584
03/04/2014  13:08:00       91.872      170.914      155.611      107.642       84.854       58.959    11586.783     7200.281     3476.141        4.206        1.113      194.042       50.836        0.069      339.595       13.032      862.559
03/04/2014  13:09:00      140.346      142.960      115.528      105.132       88.865       85.594    11052.805     7896.954     7326.269        3.987        1.314      200.336       70.355        0.123      339.626       13.086      862.558
03/04/2014  13:10:00       83.575       27.005       24.607       93.210       84.070       45.300     8688.126     7067.715     2052.048        1.306        0.890       87.830       43.604        0.246      339.924       13.589      862.544
03/04/2014  13:11:00      121.488       74.036       42.919       72.663       70.334       55.883     5279.961     4946.853     3122.873        1.771        0.667      142.270       41.764        0.086      339.640       13.110      862.507
03/04/2014  13:12:00       36.449       10.228       63.601       69.918       79.015       40.171     4888.594     6243.396     1613.730        0.911        0.637       37.857       39.768        1.104      340.200       14.057      862.492
03/04/2014  13:13:00      143.550     -106.463       37.083      114.083      135.894       87.406    13014.918    18467.213     7639.811        3.621        1.956      178.721       95.264        0.284      340.060       13.819      862.465
03/04/2014  13:14:00      156.295     -199.482       13.485      104.307      105.487       71.415    10879.939    11127.546     5100.135        4.575        1.355      253.419       82.193        0.105      339.447       12.784      862.474
03/04/2014  13:15:00        1.234      -75.079       43.709      105.154       78.817       61.599    11057.334     6212.086     3794.452        1.430        1.053       75.089       40.723        0.294      339.974       13.674      862.461
03/04/2014  13:16:00      125.271     -178.981      -18.663      111.406       89.776       65.136    12411.375     8059.699     4242.700        3.639        1.236      218.465       68.880        0.099      339.802       13.384      862.482
03/04/2014  13:17:00      160.439     -173.303      -50.127      101.772      130.088       58.313    10357.474    16922.813     3400.417        4.448        1.534      236.166       72.664        0.095      339.410       12.722      862.501
03/04/2014  13:18:00       60.398      -31.603       28.409       47.313       65.943       50.918     2238.549     4348.543     2592.657        0.732        0.459       68.167       55.690        0.667      339.850       13.466      862.538
03/04/2014  13:19:00       35.033       10.987       18.388       44.083       31.996       29.316     1943.301     1023.722      859.400        0.276        0.191       36.716       27.909        0.578      339.934       13.607      862.517
03/04/2014  13:20:00      -19.091       31.003        7.457       29.811       36.453       25.900      888.668     1328.798      670.815        0.213        0.144       36.410       22.739        0.390      340.236       14.117      862.503
03/04/2014  13:21:00       34.524       54.267        6.640       37.122       26.565       29.429     1378.031      705.713      866.092        0.356        0.147       64.318       24.144        0.141      339.838       13.446      862.484
03/04/2014  13:22:00      -11.823       50.175       -8.316       24.239       24.091       22.676      587.538      580.389      514.223        0.220        0.084       51.549       15.761        0.093      339.968       13.664      862.462
03/04/2014  13:23:00      -23.184       74.580        2.710       23.738       38.064       23.472      563.514     1448.887      550.945        0.433        0.128       78.101       23.514        0.091      340.012       13.738      862.441
03/04/2014  13:24:00      -21.893       78.380        1.095       19.111       25.104       23.247      365.235      630.235      540.446        0.408        0.077       81.380       13.223        0.026      339.847       13.461      862.423
03/04/2014  13:25:00       -4.004       75.488       -2.555       25.805       33.347       23.864      665.887     1111.989      569.488        0.403        0.117       75.594       20.159        0.071      339.797       13.377      862.397
03/04/2014  13:26:00       11.018       43.807       -4.169       38.841       33.811       24.784     1508.614     1143.174      614.225        0.266        0.163       45.171       27.542        0.372      339.781       13.350      862.385
03/04/2014  13:27:00       16.667       -4.995       12.630       34.325       37.992       35.717     1178.240     1443.375     1275.725        0.218        0.195       17.399       23.504        1.825      339.921       13.586      862.378
03/04/2014  13:28:00       38.251       37.046       24.486       53.210       57.000       36.808     2831.300     3249.047     1354.814        0.543        0.372       53.250       19.216        0.130      339.974       13.676      862.368
03/04/2014  13:29:00       58.881      -48.342      -14.501       62.487       99.672       39.711     3904.574     9934.530     1576.936        1.071        0.771       76.183       36.350        0.228      339.981       13.685      862.341
03/04/2014  13:30:00       67.929     -190.241      -22.781       42.558       68.784       26.692     1811.171     4731.213      712.449        2.429        0.363      202.005       23.607        0.014      339.640       13.109      862.305
03/04/2014  13:31:00      110.624     -102.226       -7.910       58.361       86.867       47.000     3406.055     7545.905     2208.969        1.795        0.658      150.625       49.935        0.110      339.666       13.154      862.258
03/04/2014  13:32:00       20.110      -69.075      -21.971       81.345       43.181       28.532     6617.073     1864.586      814.091        0.748        0.465       71.942       31.768        0.195      339.820       13.416      862.261
03/04/2014  13:33:00       20.256      -38.274       20.688       60.613       85.707       45.548     3673.899     7345.762     2074.586        0.770        0.655       43.304       57.998        1.794      340.074       13.844      862.273
03/04/2014  13:34:00       14.755       -1.862       42.618       38.232       65.604       38.417     1461.666     4303.837     1475.873        0.464        0.362       14.872       41.301        7.712      340.418       14.425      862.266
03/04/2014  13:35:00      -21.257      -10.873       28.168       39.768       82.316       53.731     1581.522     6775.917     2887.065        0.630        0.562       23.876       57.332        5.766      340.183       14.028      862.254
03/04/2014  13:36:00      118.166       55.084       27.803      127.481       70.938       50.634    16251.292     5032.268     2563.761        2.080        1.192      130.375       31.587        0.059      340.313       14.247      862.255
03/04/2014  13:37:00      157.945       63.607       62.127       98.978       74.804       74.270     9796.627     5595.686     5515.970        2.688        1.045      170.272       55.843        0.108      339.826       13.424      862.240
03/04/2014  13:38:00       92.345       68.951       64.875       69.862       80.066       62.054     4880.655     6410.537     3850.733        1.631        0.757      115.247       43.222        0.141      340.169       14.003      862.232
03/04/2014  13:39:00       60.923       72.743       14.114       83.535       41.660       39.489     6978.124     1735.593     1559.416        0.974        0.514       94.885       32.895        0.120      339.728       13.259      862.208
03/04/2014  13:40:00       57.383       17.347       14.200       54.209       66.961       34.808     2938.567     4483.833     1211.591        0.621        0.432       59.948       23.051        0.148      340.018       13.750      862.199
03/04/2014  13:41:00       78.997       -7.805       41.055       78.680       72.736       48.731     6190.617     5290.503     2374.744        1.092        0.693       79.382       30.611        0.149      340.221       14.091      862.184
03/04/2014  13:42:00       44.029       28.622       53.505       56.687       72.064       40.435     3213.402     5193.239     1634.966        0.783        0.502       52.514       33.949        0.418      340.380       14.361      862.172
03/04/2014  13:43:00       -3.420      -49.603       15.657       59.812       91.093       55.572     3577.429     8297.967     3088.302        0.884        0.748       49.721       60.857        1.498      340.534       14.621      862.177
03/04/2014  13:44:00       32.419      -67.002       -0.344       34.676       80.963       34.476     1202.437     6555.029     1188.591        0.724        0.447       74.433       34.582        0.216      340.264       14.164      862.174
03/04/2014  13:45:00       13.152       61.945       47.285       34.093       47.075       39.489     1162.319     2216.085     1559.363        0.559        0.247       63.326       18.770        0.088      340.690       14.884      862.161
03/04/2014  13:46:00      121.687       81.052       34.527       96.104       58.397       61.681     9236.067     3410.170     3804.544        1.951        0.823      146.209       44.054        0.091      340.144       13.961      862.143
03/04/2014  13:47:00       84.929       12.744        6.494       92.537       47.938       35.523     8563.045     2298.057     1261.904        0.977        0.606       85.880       17.929        0.044      339.942       13.621      862.141
03/04/2014  13:48:00       -0.808        2.045       12.111       23.621       14.967       18.194      557.930      224.006      331.020        0.063        0.056        2.199        7.402       11.332      340.699       14.901      862.142
03/04/2014  13:49:00        6.657      -19.368       13.361       27.585       36.113       25.237      760.956     1304.174      636.888        0.165        0.135       20.480       19.842        0.939      340.875       15.198      862.133
03/04/2014  13:50:00       18.201       17.729       31.832       31.690       34.322       22.938     1004.278     1177.997      526.167        0.218        0.135       25.409       20.256        0.636      341.068       15.525      862.109
03/04/2014  13:51:00       29.611       47.108       80.381       40.254       65.982       41.958     1620.375     4353.610     1760.483        0.864        0.387       55.642       34.024        0.374      340.771       15.022      862.098
03/04/2014  13:52:00      131.618       61.772       57.697       93.811       73.988       62.601     8800.568     5474.239     3918.939        2.133        0.910      145.393       47.897        0.109      340.174       14.011      862.092
03/04/2014  13:53:00      131.881       98.030       39.905       67.015       55.350       59.244     4491.073     3063.603     3509.853        1.983        0.553      164.325       31.650        0.037      340.070       13.836      862.088
03/04/2014  13:54:00       36.984       50.671       74.929       63.121       56.098       34.132     3984.319     3147.017     1165.021        0.892        0.415       62.733       27.707        0.195      340.474       14.518      862.077
03/04/2014  13:55:00       94.612       48.681       13.874       49.870       42.138       32.686     2487.004     1775.579     1068.378        0.842        0.267      106.401       26.639        0.063      340.092       13.874      862.071
03/04/2014  13:56:00      162.626       88.776        6.353       84.099       85.463       53.512     7072.586     7303.966     2863.527        2.580        0.862      185.280       24.287        0.017      340.231       14.106      862.063
03/04/2014  13:57:00      113.199      107.519        0.177       80.665       67.525       56.663     6506.829     4559.636     3210.687        1.932        0.714      156.122       49.038        0.099      339.845       13.455      862.067
03/04/2014  13:58:00      158.237       98.152       41.669       79.232       81.675       52.718     6277.777     6670.799     2779.226        2.607        0.786      186.206       41.681        0.050      340.044       13.791      862.064
03/04/2014  13:59:00       90.386      130.313      149.439       70.277       76.606       55.877     4938.923     5868.552     3122.206        3.070        0.696      158.590       46.652        0.087      340.148       13.966      862.049
03/04/2014  14:00:00      116.414       48.992       46.862       75.042       64.556       56.916     5631.367     4167.419     3239.399        1.559        0.652      126.303       55.638        0.194      340.055       13.809      862.057
03/04/2014  14:01:00       37.523       27.392       50.807       60.670       60.853       44.722     3680.828     3703.113     2000.062        0.706        0.469       46.458       36.755        0.626      340.682       14.870      862.029
03/04/2014  14:02:00      110.568       59.733       64.754      107.410      100.085       69.165    11536.951    10017.078     4783.801        2.316        1.317      125.672       68.692        0.299      340.315       14.249      862.036
03/04/2014  14:03:00       94.453      -70.579       25.264       50.922       65.255       42.161     2593.067     4258.225     1777.580        1.158        0.431      117.910       45.190        0.147      339.976       13.679      862.054
03/04/2014  14:04:00       29.916       19.734       62.064       49.204       57.183       41.269     2421.024     3269.920     1703.165        0.626        0.370       35.838       37.068        1.070      340.091       13.873      862.062
03/04/2014  14:05:00       22.850       25.441       47.324       36.738       72.117       46.990     1349.660     5200.859     2208.017        0.608        0.438       34.196       52.375        2.346      340.404       14.401      862.074
03/04/2014  14:06:00       60.588        5.262       43.304       58.186       51.124       46.192     3385.598     2613.678     2133.669        0.685        0.407       60.817       39.660        0.425      340.193       14.046      862.085
03/04/2014  14:07:00       74.212      -73.646       11.014       66.466       51.630       47.720     4417.709     2665.637     2277.163        1.020        0.468      104.552       48.813        0.218      340.341       14.295      862.060
03/04/2014  14:08:00       39.054       -9.043       54.682       60.691       65.250       44.444     3683.404     4257.548     1975.288        0.726        0.496       40.088       42.616        1.130      340.473       14.517      862.040
03/04/2014  14:09:00       48.287       54.979       59.394       66.844       49.082       50.866     4468.100     2409.083     2587.364        0.917        0.473       73.173       41.497        0.322      340.553       14.652      862.040
03/04/2014  14:10:00      222.996      118.583       28.439      106.282       81.452       55.498    11295.899     6634.484     3080.027        4.280        1.051      252.565       41.502        0.027      340.079       13.848      862.043
03/04/2014  14:11:00      132.475      161.197      102.438      103.716       57.808       79.586    10756.981     3341.778     6333.882        3.723        1.022      208.648       62.023        0.088      340.146       13.962      862.030
03/04/2014  14:12:00      110.407      -94.039       22.296       97.137      128.158       79.779     9435.674    16424.454     6364.732        2.687        1.611      145.028       95.106        0.430      340.123       13.923      862.033
03/04/2014  14:13:00      143.580     -221.209      -43.935       76.559       82.305       46.507     5861.288     6774.137     2162.893        4.314        0.740      263.721       30.535        0.013      339.889       13.527      862.021
03/04/2014  14:14:00       88.874       29.471      114.915       88.705      136.727       87.177     7868.551    18694.268     7599.819        2.806        1.708       93.633       87.241        0.868      340.243       14.126      861.986
03/04/2014  14:15:00       56.602       61.994      108.467       94.131       89.278       78.052     8860.557     7970.556     6092.054        2.086        1.146       83.947       78.889        0.883      340.260       14.157      861.989
03/04/2014  14:16:00      146.397      -46.370       33.142       94.410       85.244       63.787     8913.161     7266.607     4068.835        2.246        1.012      153.565       62.480        0.166      340.123       13.925      861.979
03/04/2014  14:17:00       95.308        5.433       77.347       89.738       83.992       63.503     8052.923     7054.680     4032.614        1.711        0.957       95.462       67.501        0.500      340.316       14.252      861.976
03/04/2014  14:18:00       50.620       91.013       97.772       63.100       62.424       42.923     3981.628     3896.717     1842.360        1.506        0.486      104.143       21.514        0.043      340.274       14.180      862.002
03/04/2014  14:19:00       45.589       43.634       50.240       30.132       29.674       30.893      907.909      880.544      954.387        0.462        0.137       63.105       19.757        0.098      340.114       13.910      862.016
03/04/2014  14:20:00       59.144     -105.134      -22.711       53.175       72.121       38.633     2827.623     5201.420     1492.519        1.229        0.476      120.628       39.101        0.105      340.217       14.086      862.010
03/04/2014  14:21:00       68.603      -63.755       -7.349       39.136       50.413       32.348     1531.609     2541.469     1046.375        0.697        0.256       93.654       31.470        0.113      340.165       13.998      861.993
03/04/2014  14:22:00       -6.677       22.093       51.265       21.164       36.787       19.159      447.910     1353.281      367.057        0.266        0.108       23.080       19.169        0.690      340.471       14.516      861.969
03/04/2014  14:23:00       18.341       11.726       34.542       57.347       27.423       25.346     3288.695      752.035      642.444        0.317        0.234       21.769       24.511        1.268      340.701       14.904      861.968
03/04/2014  14:24:00       82.928      111.182      101.637       82.956       91.945       94.054     6881.746     8453.881     8846.138        2.687        1.209      138.703       85.468        0.380      340.362       14.328      861.988
03/04/2014  14:25:00       74.127       91.518       81.036       84.801       72.549       49.529     7191.151     5263.390     2453.109        1.767        0.745      117.772       47.328        0.161      340.012       13.737      862.008
03/04/2014  14:26:00       50.307       -8.707       29.457       44.747       82.482       47.201     2002.310     6803.216     2227.912        0.725        0.552       51.055       47.731        0.874      340.217       14.087      861.982
03/04/2014  14:27:00       77.543       31.332       50.132       75.452       55.399       64.461     5692.999     3069.021     4155.249        1.121        0.646       83.634       32.572        0.152      340.284       14.199      861.957
03/04/2014  14:28:00       55.263       -0.261       49.112       49.187       86.709       48.240     2419.372     7518.454     2327.096        0.886        0.613       55.263       59.692        1.167      340.141       13.958      861.968
03/04/2014  14:29:00       69.592      -68.624        3.310       42.599       76.315       38.732     1814.708     5823.955     1500.195        0.935        0.457       97.736       48.013        0.241      340.205       14.064      861.953
03/04/2014  14:30:00       84.034       92.460       81.426       89.256       97.733       82.487     7966.640     9551.772     6804.097        2.328        1.216      124.942       67.479        0.292      340.238       14.120      861.925
03/04/2014  14:31:00      180.245      114.534       66.334       52.274       60.770       57.181     2732.612     3693.042     3269.719        2.985        0.485      213.556       33.377        0.024      339.988       13.696      861.902
03/04/2014  14:32:00      125.836       95.611       98.447       73.428       71.889       49.243     5391.673     5167.995     2424.880        2.382        0.649      158.038       31.740        0.040      340.263       14.160      861.883
03/04/2014  14:33:00       85.540      143.751      140.422       64.905       77.887       54.296     4212.603     6066.316     2948.074        3.046        0.661      167.276       45.228        0.073      340.195       14.046      861.859
03/04/2014  14:34:00       49.451       76.647       64.773       80.685       66.153       86.391     6509.990     4376.282     7463.417        1.543        0.917       91.215       71.213        0.610      340.211       14.074      861.853
03/04/2014  14:35:00      151.188      108.699       39.859       98.349       56.783       48.417     9672.538     3224.279     2344.164        2.575        0.762      186.208       37.151        0.040      340.069       13.832      861.841
03/04/2014  14:36:00       93.938       23.569       18.931       71.592       51.473       36.005     5125.451     2649.520     1296.370        0.940        0.454       96.849       25.002        0.067      340.166       14.000      861.833
03/04/2014  14:37:00      128.455       52.522        7.600       71.241       48.889       35.984     5075.229     2390.108     1294.816        1.404        0.438      138.778       30.061        0.047      340.193       14.044      861.815
03/04/2014  14:38:00       96.508       57.299        7.719       42.712       34.504       25.768     1824.285     1190.519      663.979        0.817        0.184      112.236       23.288        0.043      340.007       13.732      861.799
03/04/2014  14:39:00      -10.153       60.712      -11.020       46.174       43.690       22.966     2132.038     1908.813      527.456        0.424        0.228       61.555       24.432        0.158      340.198       14.054      861.778
03/04/2014  14:40:00        8.131       10.637        1.930       25.072       17.562       22.727      628.621      308.423      516.497        0.082        0.073       13.388       15.295        1.305      340.578       14.695      861.778
03/04/2014  14:41:00       16.121       14.555        1.291       36.106       32.728       20.112     1303.628     1071.128      404.504        0.163        0.139       21.720       17.940        0.682      340.532       14.617      861.774
03/04/2014  14:42:00      -14.045      -24.485      -18.739       48.497       73.568       22.389     2351.938     5412.202      501.249        0.471        0.413       28.227       21.341        0.572      340.479       14.528      861.782
03/04/2014  14:43:00       23.936        5.165       -3.028       30.353       69.243       28.238      921.277     4794.632      797.379        0.356        0.326       24.487       35.104        2.055      340.387       14.372      861.784
03/04/2014  14:44:00      -17.444        8.895      -14.045       29.216       29.466       20.114      853.551      868.258      404.557        0.135        0.106       19.581       16.017        0.669      340.542       14.634      861.755
03/04/2014  14:45:00        0.501       15.125       21.843       14.886       18.590       10.558      221.599      345.579      111.463        0.069        0.034       15.133        6.483        0.184      341.054       15.500      861.737
03/04/2014  14:46:00      -20.973      -69.277       -2.298       73.952       56.790       25.168     5468.942     3225.086      633.414        0.728        0.466       72.382       19.560        0.073      340.950       15.324      861.736
03/04/2014  14:47:00       -0.743      -33.641       18.564       67.329       72.790       42.093     4533.127     5298.435     1771.792        0.654        0.580       33.649       45.556        1.833      340.678       14.866      861.735
03/04/2014  14:48:00      103.547     -116.203       -6.544       65.828       61.778       37.149     4333.299     3816.550     1380.037        1.690        0.476      155.645       27.680        0.032      340.520       14.597      861.735
03/04/2014  14:49:00       68.002     -129.820      -14.782       76.038       84.258       46.716     5781.760     7099.431     2182.338        1.838        0.753      146.552       48.886        0.111      340.383       14.365      861.726
03/04/2014  14:50:00       65.737      -16.743       30.877       58.828       66.459       45.038     3460.678     4416.836     2028.401        0.773        0.495       67.835       48.128        0.503      340.360       14.326      861.700
03/04/2014  14:51:00       35.195       53.772       64.723       48.127       43.682       44.358     2316.206     1908.127     1967.615        0.725        0.310       64.266       28.430        0.196      340.387       14.373      861.668
03/04/2014  14:52:00       13.329       30.628        2.039       21.822       37.045       25.150      476.210     1372.315      632.511        0.180        0.124       33.402       14.983        0.201      340.395       14.386      861.639
03/04/2014  14:53:00       38.247       13.229        6.628       37.217       46.650       23.090     1385.112     2176.267      533.131        0.289        0.205       40.470       14.927        0.136      340.570       14.682      861.630
03/04/2014  14:54:00       55.160       -3.352       33.631       61.762       48.942       38.515     3814.589     2395.343     1483.427        0.594        0.385       55.262       21.800        0.156      340.931       15.293      861.609
03/04/2014  14:55:00       37.179      -59.129       30.670       72.952       77.214       46.426     5321.966     5962.063     2155.334        0.963        0.672       69.846       40.330        0.333      340.888       15.218      861.599
03/04/2014  14:56:00       87.670     -152.443       -0.318       65.694       70.506       44.336     4315.645     4971.115     1965.694        2.109        0.563      175.855       42.272        0.058      340.657       14.828      861.601
03/04/2014  14:57:00      -73.655      -54.625      -10.207       57.122       51.493       32.802     3262.934     2651.487     1075.979        0.775        0.350       91.700       29.966        0.107      340.554       14.655      861.582
03/04/2014  14:58:00      -26.822      -24.190       10.846       34.954       45.016       27.870     1221.769     2026.411      776.729        0.272        0.201       36.119       25.135        0.484      341.028       15.456      861.572
03/04/2014  14:59:00      -21.750      -16.620       13.483       25.233       30.254       28.309      636.729      915.325      801.426        0.164        0.118       27.373       18.406        0.452      341.060       15.510      861.578
03/04/2014  15:00:00        3.504      -36.560       13.180       34.888       29.934       26.544     1217.192      896.071      704.558        0.217        0.141       36.728       18.370        0.250      340.837       15.134      861.596
03/04/2014  15:01:00      -57.254      -16.495       10.253       61.210       39.666       27.556     3746.666     1573.373      759.335        0.487        0.304       59.582       31.064        0.272      340.873       15.194      861.596
03/04/2014  15:02:00      -13.642      -51.483       14.606       43.324       60.313       32.664     1876.975     3637.677     1066.950        0.481        0.329       53.260       39.668        0.555      340.761       15.005      861.596
03/04/2014  15:03:00      -31.289      -48.653       -3.797       38.179       35.906       23.198     1457.648     1289.221      538.169        0.332        0.164       57.846       21.020        0.132      340.577       14.695      861.590
03/04/2014  15:04:00       22.223      -12.395        8.418       25.620       36.123       21.149      656.409     1304.836      447.278        0.156        0.120       25.446       14.621        0.330      340.940       15.307      861.573
03/04/2014  15:05:00       65.950      -26.630       43.013       75.701      102.085       63.750     5730.584    10421.344     4064.061        1.356        1.011       71.124       78.025        1.203      340.729       14.951      861.545
03/04/2014  15:06:00       72.489      -82.786       15.940       74.024      109.647       64.986     5479.511    12022.389     4223.126        1.704        1.086      110.037       64.918        0.348      340.815       15.094      861.516
03/04/2014  15:07:00      117.461       60.629       76.784       71.272       90.434       66.241     5079.639     8178.266     4387.813        2.050        0.882      132.186       63.437        0.230      340.627       14.777      861.522
03/04/2014  15:08:00      146.082       99.789       41.567       47.021       47.103       38.681     2210.942     2218.677     1496.205        1.947        0.296      176.912       20.434        0.013      340.190       14.039      861.507
03/04/2014  15:09:00       95.002       58.161        0.867       54.776       31.656       32.066     3000.418     1002.092     1028.232        0.872        0.252      111.391       14.963        0.018      340.404       14.401      861.509
03/04/2014  15:10:00       22.608       23.926       29.141       31.023       39.596       36.752      962.452     1567.863     1350.702        0.291        0.194       32.918       26.715        0.659      340.553       14.652      861.536
03/04/2014  15:11:00       -5.558       36.945      -11.231       12.859       21.093       16.239      165.349      444.915      263.713        0.120        0.044       37.361       10.708        0.082      340.173       14.011      861.541
03/04/2014  15:12:00      -42.585        4.655      -21.330       22.441       14.168       16.662      503.597      200.746      277.612        0.164        0.049       42.839        8.597        0.040      340.227       14.100      861.529
03/04/2014  15:13:00      -40.624        5.175      -16.305       12.839       13.005       15.998      164.837      169.140      255.927        0.127        0.029       40.952        4.877        0.014      340.233       14.112      861.523
03/04/2014  15:14:00      -15.961       28.917      -12.979       16.211       15.546       18.964      262.785      241.676      359.639        0.106        0.043       33.030       12.297        0.139      340.277       14.186      861.511
03/04/2014  15:15:00      -26.584       13.669      -17.023       30.313       15.946       25.605      918.881      254.290      655.623        0.151        0.091       29.892       18.307        0.375      340.578       14.696      861.504
03/04/2014  15:16:00      -31.839       32.001       -0.364       25.670       46.200       23.663      658.953     2134.415      559.951        0.270        0.168       45.142       21.315        0.223      340.811       15.089      861.490
03/04/2014  15:17:00      -30.825       62.987        3.634       20.043       35.929       20.193      401.737     1290.902      407.747        0.352        0.105       70.125       17.418        0.062      340.652       14.821      861.486
03/04/2014  15:18:00        3.324      102.574       -5.153       21.970       27.418       21.028      482.663      751.746      442.183        0.612        0.084      102.628       16.738        0.027      340.484       14.536      861.469
03/04/2014  15:19:00       67.102       40.213       -8.214       35.607       41.115       22.755     1267.894     1690.454      517.776        0.483        0.174       78.229       18.510        0.056      340.406       14.404      861.460
03/04/2014  15:20:00       77.748       59.285        4.252       44.667       39.786       34.431     1995.134     1582.894     1185.459        0.717        0.238       97.773       12.203        0.016      340.373       14.348      861.435
03/04/2014  15:21:00       68.653       40.346       22.080       34.342       27.481       27.332     1179.377      755.228      747.014        0.475        0.134       79.631       20.105        0.064      340.437       14.457      861.422
03/04/2014  15:22:00       26.874       -5.950       26.623       53.948       53.246       32.994     2910.344     2835.101     1088.587        0.415        0.342       27.524       28.100        1.042      340.712       14.923      861.410
03/04/2014  15:23:00       63.677       57.493       57.006       78.610       48.501       51.536     6179.598     2352.326     2655.965        1.090        0.559       85.792       39.486        0.212      340.760       15.003      861.391
03/04/2014  15:24:00      115.359       71.249        1.834       42.429       34.296       28.428     1800.214     1176.211      808.135        1.109        0.189      135.589       12.953        0.009      340.407       14.406      861.395
03/04/2014  15:25:00       45.920       72.996       56.803       48.593       50.286       54.195     2361.262     2528.700     2937.136        0.924        0.391       86.238       41.817        0.235      340.545       14.641      861.392
03/04/2014  15:26:00       67.540       73.342       95.050       56.781       36.370       29.681     3224.120     1322.782      880.937        1.220        0.271       99.703       19.694        0.039      340.484       14.536      861.385
03/04/2014  15:27:00      119.114      101.614       87.206       74.788       64.314       60.812     5593.182     4136.337     3698.043        2.277        0.671      156.568       53.744        0.118      340.408       14.405      861.368
03/04/2014  15:28:00       64.316      -25.680       41.406       64.306      108.004       62.626     4135.322    11664.837     3922.022        1.311        0.986       69.253       73.512        1.127      340.525       14.604      861.341
03/04/2014  15:29:00      164.208     -207.315      -37.089       42.615       73.133       33.418     1816.063     5348.435     1116.790        3.980        0.414      264.469       18.730        0.005      340.331       14.274      861.309
03/04/2014  15:30:00       77.383      -81.438       17.346       63.622       65.294       48.636     4047.763     4263.368     2365.508        1.180        0.534      112.340       44.491        0.157      340.536       14.623      861.296
03/04/2014  15:31:00       59.002      -94.460       -6.487       43.079       38.637       17.725     1855.801     1492.817      314.191        0.805        0.183      111.373       12.497        0.013      340.565       14.672      861.301
03/04/2014  15:32:00       15.118      -21.280       23.768       22.598       48.920       20.653      510.660     2393.213      426.541        0.229        0.167       26.103       20.112        0.594      340.799       15.070      861.317
03/04/2014  15:33:00        3.301       65.393        7.001       29.487       41.478       35.810      869.485     1720.402     1282.348        0.410        0.194       65.476       29.531        0.203      340.632       14.786      861.320
03/04/2014  15:34:00      118.165       53.282       26.698       76.879       56.928       33.206     5910.369     3240.752     1102.665        1.388        0.513      129.622       32.007        0.061      340.712       14.921      861.313
03/04/2014  15:35:00      139.977       81.412       20.572       68.161       57.984       42.770     4645.859     3362.090     1829.315        1.824        0.492      161.931       34.756        0.046      340.630       14.781      861.299
03/04/2014  15:36:00      146.242       74.721        8.750       66.701       61.673       40.912     4449.023     3803.503     1673.812        1.848        0.496      164.226       24.594        0.022      340.583       14.701      861.304
03/04/2014  15:37:00       92.368      117.810      114.926      101.464       68.055       58.863    10294.855     4631.501     3464.878        2.700        0.920      149.704       61.140        0.167      340.697       14.895      861.323
03/04/2014  15:38:00      126.359       98.004       21.900       72.952       45.707       47.523     5322.063     2089.140     2258.467        1.786        0.483      159.911       34.359        0.046      340.616       14.758      861.336
03/04/2014  15:39:00       94.320       41.199       23.007       74.864       65.551       39.050     5604.584     4296.966     1524.930        1.127        0.571      102.926       26.661        0.067      340.785       15.045      861.317
03/04/2014  15:40:00      119.018       69.489       14.029       50.526       32.554       37.742     2552.847     1059.733     1424.437        1.211        0.252      137.819       10.560        0.006      340.535       14.622      861.305
03/04/2014  15:41:00      109.175       59.180       18.466       47.867       24.145       29.462     2291.253      583.005      868.037        0.975        0.187      124.183        6.928        0.003      340.489       14.543      861.289
03/04/2014  15:42:00       80.847       49.207       69.926       52.505       53.864       40.408     2756.797     2901.350     1632.826        1.057        0.365       94.644       40.182        0.180      340.677       14.865      861.278
03/04/2014  15:43:00       26.083       34.593       80.177       52.842       74.608       39.736     2792.249     5566.421     1578.946        0.912        0.497       43.324       44.992        1.078      340.816       15.098      861.294
03/04/2014  15:44:00       23.514        1.379       59.201       44.548       78.432       48.983     1984.512     6151.563     2399.316        0.730        0.527       23.554       51.796        4.836      340.902       15.243      861.300
03/04/2014  15:45:00       81.730      -29.210       33.836       81.635       85.119       47.013     6664.196     7245.184     2210.221        1.240        0.806       86.793       62.206        0.514      340.705       14.909      861.287
03/04/2014  15:46:00       93.651       -3.445       51.029       60.449       55.952       35.482     3654.033     3130.654     1258.991        0.971        0.402       93.714       33.460        0.127      340.700       14.903      861.267
03/04/2014  15:47:00       80.281       35.798       16.969       69.353       35.479       35.761     4809.879     1258.750     1278.820        0.768        0.367       87.901       34.733        0.156      340.814       15.094      861.255
03/04/2014  15:48:00       88.947       35.391       22.325       46.503       59.911       38.858     2162.528     3589.376     1509.962        0.846        0.363       95.729       19.561        0.042      340.685       14.877      861.271
03/04/2014  15:49:00       76.393       40.689        9.746       47.737       39.730       38.742     2278.819     1578.497     1500.971        0.647        0.268       86.553       30.145        0.121      340.610       14.749      861.282
03/04/2014  15:50:00       26.774       78.008       -4.806       33.492       32.031       28.000     1121.703     1025.954      783.998        0.488        0.147       82.474       21.479        0.068      340.423       14.434      861.294
03/04/2014  15:51:00       12.179       18.526        5.759       14.924       22.786       21.426      222.730      519.220      459.089        0.086        0.060       22.171       18.728        0.714      340.528       14.612      861.283
03/04/2014  15:52:00       42.416       52.957       43.899       47.587       36.799       46.258     2264.503     1354.178     2139.757        0.614        0.288       67.849       32.445        0.229      340.661       14.836      861.278
03/04/2014  15:53:00       55.978      106.864       93.489       54.940       51.067       37.940     3018.357     2607.847     1439.460        1.518        0.353      120.638       33.918        0.079      340.676       14.861      861.251
03/04/2014  15:54:00       84.229       67.464       82.491       78.356       51.485       47.630     6139.710     2650.679     2268.596        1.475        0.553      107.916       42.066        0.152      340.542       14.635      861.233
03/04/2014  15:55:00       67.236       39.893       26.342       48.190       34.067       38.089     2322.261     1160.593     1450.795        0.587        0.247       78.181       25.033        0.103      340.588       14.712      861.226
03/04/2014  15:56:00       73.260       58.982        8.363       39.609       33.174       28.502     1568.895     1100.483      812.384        0.620        0.174       94.052       26.183        0.078      340.448       14.473      861.220
03/04/2014  15:57:00       51.571       77.005        6.041       37.960       38.005       30.624     1440.961     1444.406      937.828        0.622        0.191       92.678       23.293        0.063      340.431       14.446      861.212
03/04/2014  15:58:00      111.033       63.481       16.916       53.297       38.858       31.437     2840.613     1509.955      988.254        1.099        0.267      127.899       21.964        0.029      340.512       14.584      861.193
03/04/2014  15:59:00       30.120       62.706       -7.881       30.660       31.101       27.464      940.066      967.285      754.272        0.378        0.133       69.565       19.799        0.081      340.464       14.502      861.188
03/04/2014  16:00:00       30.824       31.633       17.620       34.887       20.038       20.324     1217.099      401.509      413.083        0.215        0.102       44.167       11.483        0.068      340.568       14.680      861.187
03/04/2014  16:01:00        1.521       28.072       34.541       15.770       24.317       28.535      248.708      591.331      814.274        0.182        0.083       28.113       21.943        0.609      340.674       14.857      861.192
03/04/2014  16:02:00       52.981       14.823       18.410       24.143       21.198       21.861      582.872      449.360      477.884        0.244        0.076       55.016       16.441        0.089      340.483       14.536      861.193
03/04/2014  16:03:00       26.609      -11.789       17.054       37.436       39.407       23.243     1401.418     1552.886      540.232        0.232        0.175       29.104       25.375        0.760      340.677       14.863      861.188
03/04/2014  16:04:00       41.843       -6.485       24.662       39.760       54.910       34.961     1580.843     3015.058     1222.294        0.411        0.291       42.342       41.208        0.947      340.570       14.683      861.181
03/04/2014  16:05:00       28.045       31.344       42.924       27.168       27.165       16.495      738.076      737.934      272.093        0.268        0.087       42.059        7.492        0.032      340.605       14.740      861.187
03/04/2014  16:06:00       83.644     -114.705      -10.193       52.148       63.527       31.148     2719.413     4035.664      970.173        1.399        0.386      141.964       34.789        0.060      340.637       14.795      861.191
03/04/2014  16:07:00       44.440      -83.280       -6.515       35.343       50.144       32.621     1249.095     2514.466     1064.143        0.689        0.241       94.396       29.356        0.097      340.632       14.785      861.186
03/04/2014  16:08:00       -0.533       17.177       13.872       20.722       19.822       17.039      429.394      392.910      290.314        0.080        0.056       17.186       12.080        0.494      340.731       14.955      861.176
03/04/2014  16:09:00      -75.470      -20.415        7.599       42.949       43.415       23.869     1844.602     1884.829      569.752        0.523        0.215       78.182       12.496        0.026      340.837       15.133      861.160
03/04/2014  16:10:00      -48.830      -84.838       -9.445       75.348       40.598       33.427     5677.396     1648.209     1117.353        0.906        0.422       97.887       19.812        0.041      340.772       15.022      861.138
03/04/2014  16:11:00      -51.468      -51.554      -12.040       41.831       39.132       24.733     1749.869     1531.302      611.737        0.467        0.195       72.847       25.757        0.125      340.565       14.673      861.131
03/04/2014  16:12:00      -79.122      -21.157       -4.695       18.540       17.589       17.015      343.742      309.367      289.499        0.384        0.047       81.902       10.375        0.016      340.563       14.670      861.147
03/04/2014  16:13:00      -62.155      -29.277       -6.631       25.969       29.678       17.782      674.377      880.783      316.210        0.332        0.094       68.705       16.401        0.057      340.747       14.982      861.163
03/04/2014  16:14:00      -46.331       -3.689       11.463       27.420       42.054       23.405      751.864     1768.564      547.814        0.268        0.153       46.478       15.495        0.111      340.857       15.166      861.177
03/04/2014  16:15:00      -89.287       20.292       -2.965       27.551       22.110       15.312      759.052      488.834      234.463        0.494        0.074       91.563       12.330        0.018      340.687       14.879      861.172
03/04/2014  16:16:00      -35.492       14.949        8.733       33.144       31.334       18.293     1098.530      981.835      334.620        0.199        0.121       38.512       18.367        0.227      340.863       15.177      861.168
03/04/2014  16:17:00       -3.696       22.951       18.343       13.710       28.848       23.194      187.953      832.218      537.969        0.122        0.078       23.246       23.627        1.033      340.965       15.349      861.159
03/04/2014  16:18:00      -10.883        6.370       27.298       17.092       20.462       22.071      292.143      418.710      487.148        0.105        0.060       12.610       17.612        1.950      340.994       15.399      861.152
03/04/2014  16:19:00       32.488       19.841       35.384       30.969       20.546       20.808      959.077      422.130      432.982        0.226        0.091       38.067       14.486        0.145      340.787       15.048      861.147
03/04/2014  16:20:00       83.515       17.882       33.380       51.062       49.178       39.379     2607.352     2418.489     1550.672        0.749        0.329       85.408       39.091        0.209      340.766       15.014      861.138
03/04/2014  16:21:00       93.928        7.110       13.669       63.864       55.830       34.066     4078.647     3116.973     1160.491        0.871        0.418       94.197       25.388        0.073      340.693       14.889      861.128
03/04/2014  16:22:00       14.573      -25.522       33.625       32.592       54.879       41.867     1062.266     3011.751     1752.824        0.391        0.291       29.390       39.216        1.780      340.901       15.242      861.120
03/04/2014  16:23:00       15.720       15.792       68.891       45.091       54.663       33.731     2033.235     2988.033     1137.758        0.570        0.308       22.282       35.999        2.610      340.804       15.077      861.120
03/04/2014  16:24:00       29.470       14.925       37.616       39.276       49.437       36.511     1542.631     2444.026     1333.019        0.391        0.266       33.034       36.390        1.213      340.674       14.857      861.117
03/04/2014  16:25:00       26.365      -24.356       21.164       36.552       67.693       30.362     1336.074     4582.353      921.821        0.429        0.342       35.894       39.859        1.233      340.794       15.060      861.114
03/04/2014  16:26:00        1.373       15.181       37.357       21.667       27.623       35.983      469.469      763.022     1294.757        0.208        0.126       15.243       28.381        3.467      340.886       15.216      861.107
03/04/2014  16:27:00       20.204       43.611       59.647       33.290       41.885       34.378     1108.213     1754.360     1181.851        0.496        0.202       48.064       15.207        0.100      340.839       15.137      861.105
03/04/2014  16:28:00       38.367       32.030       43.233       38.346       51.882       32.483     1470.447     2691.699     1055.121        0.479        0.261       49.979       19.983        0.160      340.837       15.133      861.108
03/04/2014  16:29:00       57.177       41.258        9.260       39.670       32.446       26.933     1573.699     1052.766      725.400        0.420        0.168       70.509        8.865        0.016      340.614       14.755      861.113
03/04/2014  16:30:00       62.096       30.767       22.561       29.812       34.569       23.035      888.758     1195.019      530.598        0.396        0.131       69.300       14.029        0.041      340.671       14.851      861.127
03/04/2014  16:31:00       97.653       62.759       10.572       25.840       16.797       22.624      667.725      282.156      511.829        0.752        0.073      116.081       13.900        0.014      340.597       14.728      861.130
03/04/2014  16:32:00       58.381       34.524       13.647       14.442       33.819       15.360      208.566     1143.709      235.928        0.319        0.079       67.825        9.288        0.019      340.609       14.748      861.128
03/04/2014  16:33:00       44.398       19.597       19.114       32.736       30.181       22.571     1071.640      910.901      509.468        0.261        0.125       48.531       17.733        0.134      340.760       15.003      861.114
03/04/2014  16:34:00       48.277       31.666       30.887       28.616       26.561       23.401      818.900      705.504      547.623        0.318        0.104       57.735       15.142        0.069      340.826       15.115      861.111
03/04/2014  16:35:00       -9.246      -11.547       14.091       24.570       39.362       19.530      603.692     1549.343      381.434        0.148        0.127       14.793       12.376        0.700      340.994       15.399      861.110
03/04/2014  16:36:00       44.948      -48.835       15.566       45.143       61.825       42.492     2037.852     3822.314     1805.563        0.616        0.383       66.372       31.716        0.228      340.892       15.226      861.108
03/04/2014  16:37:00       47.311      -26.297       32.515       37.921       61.504       32.373     1438.027     3782.757     1047.992        0.513        0.313       54.128       35.396        0.428      340.833       15.126      861.114
03/04/2014  16:38:00        3.516       -5.531       23.384       29.519       59.912       26.879      871.359     3589.491      722.457        0.289        0.259        6.554       29.361       20.069      340.999       15.407      861.108
03/04/2014  16:39:00       94.848     -131.761       -9.813       44.890       51.192       26.387     2015.124     2620.606      696.271        1.589        0.267      162.349       22.095        0.019      340.701       14.903      861.106
03/04/2014  16:40:00       51.506      -41.160       25.585       53.756       93.050       47.832     2889.720     8658.353     2287.903        0.942        0.692       65.932       61.501        0.870      340.748       14.983      861.105
03/04/2014  16:41:00       65.601     -106.901       -4.781       44.045       22.333       21.101     1939.923      498.767      445.258        0.932        0.144      125.424       14.707        0.014      340.590       14.718      861.114
03/04/2014  16:42:00       33.545      -14.454        3.779       19.678       51.888       27.236      387.219     2692.314      741.795        0.258        0.191       36.527       30.203        0.684      340.803       15.076      861.093
03/04/2014  16:43:00       16.012       -7.987       10.763       36.115       41.237       21.550     1304.283     1700.519      464.383        0.195        0.173       17.894        8.764        0.240      340.777       15.031      861.081
03/04/2014  16:44:00        5.978       -1.408       40.431       24.721       34.559       15.491      611.126     1194.340      239.966        0.186        0.102        6.142       17.476        8.096      340.877       15.201      861.066
03/04/2014  16:45:00       -1.820       28.359       50.849       11.686       23.605       12.822      136.555      557.216      164.400        0.213        0.043       28.418       14.469        0.259      340.918       15.270      861.057
03/04/2014  16:46:00       75.715       55.838       74.239       91.107       77.072       44.085     8300.412     5940.087     1943.500        1.527        0.809       94.078       49.346        0.275      340.772       15.022      861.047
03/04/2014  16:47:00      124.717       96.992       76.029       51.538       51.638       52.992     2656.202     2666.524     2808.198        1.944        0.407      157.993       39.448        0.062      340.620       14.766      861.038
03/04/2014  16:48:00      103.549       61.451       79.168       79.768       59.040       57.952     6362.872     3485.689     3358.416        1.698        0.660      120.410       51.804        0.185      340.592       14.717      861.023
03/04/2014  16:49:00       48.920       18.353       58.998       46.155       49.035       25.140     2130.254     2404.417      632.000        0.569        0.258       52.250       24.731        0.224      340.613       14.754      861.013
03/04/2014  16:50:00      133.811       74.811       58.770       97.660       64.138       62.675     9537.428     4113.724     3928.135        2.226        0.879      153.304       60.120        0.154      340.600       14.731      860.999
03/04/2014  16:51:00      110.191       54.568       16.646       86.510       73.012       59.801     7483.970     5330.731     3576.109        1.589        0.820      122.962       53.213        0.187      340.590       14.715      860.989
03/04/2014  16:52:00      101.908       54.711       49.866       81.858       56.058       52.580     6700.733     3142.495     2764.658        1.423        0.630      115.666       30.059        0.068      340.619       14.764      860.983
03/04/2014  16:53:00      121.099       90.665       96.059       88.145       69.750       55.749     7769.458     4865.131     3107.988        2.392        0.787      151.278       54.611        0.130      340.616       14.757      860.971
03/04/2014  16:54:00       43.263       56.720       77.984       48.999       41.670       31.226     2400.926     1736.394      975.041        0.814        0.256       71.336       27.054        0.144      340.644       14.806      860.975
03/04/2014  16:55:00       64.986      106.550      103.497       62.434       36.234       36.819     3898.010     1312.887     1355.644        1.643        0.328      124.804       37.886        0.092      340.578       14.696      860.987
03/04/2014  16:56:00      116.684       67.698       30.170       69.213       54.701       44.735     4790.453     2992.189     2001.203        1.444        0.489      134.901       34.188        0.064      340.605       14.740      860.983
03/04/2014  16:57:00       44.364       57.999       67.962       37.019       47.792       33.216     1370.398     2284.084     1103.297        0.735        0.238       73.021       32.981        0.204      340.602       14.735      860.963
03/04/2014  16:58:00       56.886        3.856       14.043       21.982       32.201       24.682      483.189     1036.922      609.180        0.279        0.106       57.017       13.454        0.056      340.544       14.639      860.922
03/04/2014  16:59:00       35.799        8.684       28.713       25.846       23.914       16.227      668.035      571.895      263.314        0.184        0.075       36.838       14.078        0.146      340.636       14.794      860.875
03/04/2014  17:00:00       34.662      -52.346       13.569       45.031       70.477       26.274     2027.762     4967.077      690.340        0.590        0.384       62.782       37.019        0.348      340.719       14.934      860.847
03/04/2014  17:01:00       71.755      -20.294        2.343       36.824       95.545       27.748     1355.984     9128.797      769.950        0.841        0.563       74.569       28.618        0.147      340.695       14.893      860.848
03/04/2014  17:02:00       84.884       60.480        0.614       43.132       28.292       27.703     1860.389      800.450      767.446        0.715        0.171      104.227       18.968        0.033      340.598       14.728      860.845
03/04/2014  17:03:00       49.884       49.859        7.187       30.714       27.204       25.924      943.346      740.053      672.043        0.369        0.118       70.529       17.399        0.061      340.559       14.665      860.827
03/04/2014  17:04:00       86.221       49.926       17.042       33.178       36.035       29.306     1100.782     1298.496      858.861        0.674        0.163       99.633        9.808        0.010      340.574       14.689      860.808
03/04/2014  17:05:00       85.771       55.443       44.422       62.807       41.010       44.460     3944.778     1681.853     1976.716        1.000        0.380      102.130       34.013        0.111      340.635       14.791      860.811
03/04/2014  17:06:00       69.722       27.833       30.422       61.005       51.347       43.325     3721.605     2636.513     1877.038        0.740        0.412       75.073       35.292        0.221      340.629       14.781      860.827
03/04/2014  17:07:00       42.113       36.554       65.445       56.387       36.896       28.425     3179.474     1361.284      807.959        0.637        0.267       55.765       27.296        0.240      340.686       14.878      860.833
03/04/2014  17:08:00       60.838       86.121       96.606       61.709       48.842       36.240     3807.997     2385.514     1313.370        1.398        0.375      105.442       35.825        0.115      340.591       14.716      860.810
03/04/2014  17:09:00      112.793       49.717       54.089       60.989       43.685       45.789     3719.645     1908.337     2096.647        1.292        0.386      123.264       37.482        0.092      340.561       14.669      860.791
03/04/2014  17:10:00       87.633       82.918       71.529       53.696       58.168       58.531     2883.270     3383.517     3425.913        1.468        0.485      120.644       48.800        0.164      340.557       14.661      860.806
03/04/2014  17:11:00       76.485       65.274       68.734       73.828       59.248       49.717     5450.550     3510.283     2471.764        1.313        0.572      100.552       46.149        0.211      340.589       14.713      860.826
03/04/2014  17:12:00       86.390       36.225       33.160       74.715       56.989       46.788     5582.366     3247.753     2189.073        1.045        0.551       93.677       38.158        0.166      340.645       14.809      860.845
03/04/2014  17:13:00       87.508       15.341       19.523       72.311       45.211       33.426     5228.944     2043.999     1117.279        0.833        0.420       88.843       38.507        0.188      340.636       14.793      860.870
03/04/2014  17:14:00       62.928       38.152       58.503       48.401       41.809       36.649     2342.612     1747.993     1343.157        0.714        0.272       73.590       35.008        0.226      340.658       14.831      860.892
03/04/2014  17:15:00       35.702       60.869       90.579       63.721       44.104       30.773     4060.371     1945.123      946.995        1.007        0.348       70.567       30.332        0.185      340.651       14.819      860.919
03/04/2014  17:16:00       89.945       30.947       57.241       87.240       52.005       41.471     7610.774     2704.477     1719.838        1.218        0.602       95.120       47.750        0.252      340.599       14.731      860.936
03/04/2014  17:17:00       41.388       58.737       69.517       54.427       48.278       35.902     2962.286     2330.781     1288.944        0.829        0.329       71.854       34.939        0.236      340.551       14.650      860.955
03/04/2014  17:18:00       18.363       50.225       64.640       28.864       39.980       23.944      833.129     1598.363      573.339        0.502        0.150       53.477       20.135        0.142      340.601       14.734      860.977
03/04/2014  17:19:00       31.560       79.767       79.538       40.453       37.276       35.080     1636.441     1389.502     1230.613        0.897        0.213       85.783       24.883        0.084      340.658       14.830      860.981
03/04/2014  17:20:00       66.156       70.455       57.217       31.263       41.597       36.856      977.365     1730.307     1358.332        0.834        0.203       96.646       24.683        0.065      340.612       14.754      860.978
03/04/2014  17:21:00       33.317        4.775       38.104       41.541       57.164       31.263     1725.673     3267.671      977.356        0.428        0.299       33.657       27.061        0.646      340.638       14.797      860.981
03/04/2014  17:22:00       80.625      -50.239       14.921       45.269       48.474       25.707     2049.291     2349.767      660.831        0.715        0.253       94.996       20.193        0.045      340.602       14.735      860.992
03/04/2014  17:23:00       53.971     -124.298        1.373       31.169       33.845       21.688      971.489     1145.513      470.364        1.048        0.129      135.509       16.262        0.014      340.649       14.815      860.999
03/04/2014  17:24:00       28.554      -56.314       12.572       33.674       53.923       23.795     1133.966     2907.657      566.221        0.438        0.230       63.139       22.160        0.123      340.657       14.829      860.998
03/04/2014  17:25:00       25.008        0.424       28.653       32.347       45.160       32.001     1046.324     2039.429     1024.035        0.278        0.205       25.012       31.852        1.622      340.567       14.677      861.008
03/04/2014  17:26:00       31.057       -2.197       47.452       41.653       64.402       45.785     1735.014     4147.589     2096.269        0.560        0.399       31.134       40.524        1.694      340.555       14.658      861.005
03/04/2014  17:27:00       50.883      -32.156       38.009       62.596       65.746       32.607     3918.307     4322.593     1063.237        0.718        0.465       60.192       40.179        0.446      340.605       14.739      860.990
03/04/2014  17:28:00       69.266       19.023       57.200       76.260       91.109       45.995     5815.593     8300.830     2115.546        1.233        0.812       71.831       64.100        0.796      340.524       14.603      860.989
03/04/2014  17:29:00       47.406       66.713       56.055       62.744       62.162       45.540     3936.820     3864.161     2073.886        0.986        0.494       81.841       35.771        0.191      340.499       14.561      861.002
03/04/2014  17:30:00       16.943       18.500       51.641       32.968       40.616       28.474     1086.891     1649.679      810.751        0.342        0.177       25.087       22.260        0.787      340.552       14.651      860.998
03/04/2014  17:31:00       47.113      -73.651       20.288       59.661       57.196       43.236     3559.482     3271.365     1869.316        0.838        0.435       87.430       42.891        0.241      340.576       14.691      860.998
03/04/2014  17:32:00       17.109       -2.973       46.173       35.173       64.312       39.787     1237.170     4136.004     1583.021        0.469        0.348       17.366       39.571        5.192      340.559       14.664      860.987
03/04/2014  17:33:00       68.967       50.471       51.756       50.758       46.607       43.876     2576.369     2172.187     1925.077        0.833        0.334       85.462       37.419        0.192      340.490       14.546      860.979
03/04/2014  17:34:00       30.016       -4.334       55.639       48.195       46.024       30.265     2322.785     2118.172      915.964        0.469        0.268       30.328       32.363        1.139      340.524       14.604      860.976
03/04/2014  17:35:00       33.003       16.729       63.355       60.379       54.429       49.432     3645.566     2962.552     2443.564        0.722        0.453       37.000       53.066        2.057      340.524       14.604      860.971
03/04/2014  17:36:00       21.060      -18.942       45.021       39.228       57.481       29.153     1538.845     3304.044      849.895        0.426        0.285       28.325       31.750        1.256      340.573       14.687      860.966
03/04/2014  17:37:00        4.471       28.022       57.402       27.938       48.556       32.023      780.531     2357.702     1025.464        0.413        0.208       28.376       32.562        1.317      340.539       14.629      860.959
03/04/2014  17:38:00       18.092       52.541       64.383       41.223       61.282       34.461     1699.335     3755.437     1187.573        0.694        0.332       55.569       33.462        0.363      340.534       14.621      860.971
03/04/2014  17:39:00      133.514       60.616       57.052       71.095       56.262       47.313     5054.488     3165.432     2238.505        1.761        0.523      146.630       38.676        0.070      340.376       14.353      860.984
03/04/2014  17:40:00      128.471      102.329      117.116       95.484       87.676       69.514     9117.226     7687.052     4832.171        3.116        1.082      164.244       64.823        0.156      340.345       14.297      861.025
03/04/2014  17:41:00      164.764      145.757      105.448       91.130       80.478       78.564     8304.597     6476.730     6172.294        4.023        1.048      219.983       47.067        0.046      340.317       14.250      861.041
03/04/2014  17:42:00      103.388      178.540      170.563      101.403       89.035       58.518    10282.659     7927.261     3424.360        4.664        1.082      206.314       57.242        0.077      340.300       14.222      861.042
03/04/2014  17:43:00      153.922      125.497      123.238      105.223      105.094       82.403    11071.892    11044.706     6790.272        4.176        1.445      198.599       73.335        0.136      340.296       14.214      861.022
03/04/2014  17:44:00      176.698       63.046      103.636      144.052      118.700       82.779    20751.048    14089.723     6852.301        4.381        2.085      187.609       88.567        0.223      340.277       14.184      861.020
03/04/2014  17:45:00       46.479       -5.771       58.916       60.869       60.289       47.157     3705.032     3634.721     2223.741        0.761        0.478       46.836       20.514        0.192      340.278       14.187      861.028
03/04/2014  17:46:00       77.121       88.244       83.038      102.673       84.911       72.145    10541.823     7209.922     5204.936        2.179        1.148      117.195       53.876        0.211      340.255       14.148      861.045
03/04/2014  17:47:00       43.980       34.052       88.588       73.713       77.704       52.582     5433.556     6037.891     2764.911        1.259        0.712       55.622       52.389        0.887      340.260       14.158      861.041
03/04/2014  17:48:00      141.005      123.617      113.937      102.580       91.522       75.797    10522.618     8376.226     5745.249        3.639        1.232      187.520       56.320        0.090      340.224       14.095      861.032
03/04/2014  17:49:00       92.670       90.622       95.655       82.045       76.243       60.610     6731.323     5813.056     3673.513        2.108        0.811      129.615       52.533        0.164      340.216       14.082      861.036
03/04/2014  17:50:00      112.286      102.564       93.672      118.400       88.017       59.461    14018.618     7746.978     3535.649        2.860        1.265      152.077       51.082        0.113      340.182       14.023      861.051
03/04/2014  17:51:00      152.769       60.998       76.590      107.363       96.662       73.270    11526.765     9343.538     5368.557        2.958        1.312      164.497       79.957        0.236      340.186       14.027      861.071
03/04/2014  17:52:00       86.590       47.141       56.867       68.363       57.647       59.244     4673.566     3323.155     3509.874        1.223        0.575       98.590       46.271        0.220      340.177       14.016      861.092
03/04/2014  17:53:00      105.335       84.601       72.843       87.583       59.799       51.566     7670.820     3575.943     2659.036        1.873        0.695      135.102       46.925        0.121      340.144       13.960      861.099
03/04/2014  17:54:00       86.533       93.776       87.232       84.365       60.337       55.474     7117.391     3640.546     3077.354        1.886        0.692      127.600       50.926        0.159      340.135       13.946      861.097
03/04/2014  17:55:00      104.861       58.633       40.111       82.428       66.903       53.094     6794.301     4476.074     2818.983        1.506        0.704      120.140       28.121        0.055      340.037       13.781      861.102
03/04/2014  17:56:00      113.527       54.270       59.853       98.501       79.925       50.704     9702.457     6388.075     2570.935        1.904        0.933      125.832       46.964        0.139      340.015       13.743      861.107
03/04/2014  17:57:00      110.077       71.263       65.060       61.720       64.841       53.636     3809.298     4204.420     2876.874        1.616        0.545      131.131       44.678        0.116      340.021       13.752      861.121
03/04/2014  17:58:00      122.430      109.911      101.553       86.414       85.313       68.553     7467.398     7278.368     4699.477        2.841        0.972      164.528       56.723        0.119      340.037       13.779      861.138
03/04/2014  17:59:00      149.696      108.646       79.441      121.307       72.359       87.941    14715.438     5235.858     7733.681        3.410        1.384      184.967       84.104        0.207      340.045       13.790      861.146
03/04/2014  18:00:00      117.741       27.670       58.416       94.294       62.708       52.000     8891.298     3932.246     2703.974        1.678        0.776      120.949       45.738        0.143      340.015       13.745      861.147
03/04/2014  18:01:00       90.915       48.306       57.818       77.506       59.702       51.991     6007.156     3564.307     2703.026        1.311        0.614      102.952       37.566        0.133      340.011       13.736      861.150
03/04/2014  18:02:00       85.216       68.311       64.762       77.316       46.632       44.460     5977.758     2174.549     1976.723        1.312        0.506      109.216       39.153        0.129      339.976       13.677      861.153
03/04/2014  18:03:00      138.932       64.263       60.140      106.296       71.832       53.544    11298.882     5159.853     2866.991        2.318        0.966      153.075       54.959        0.129      340.018       13.746      861.153
03/04/2014  18:04:00       73.812       46.047       39.072       51.474       47.353       53.677     2649.545     2242.316     2881.192        0.843        0.389       86.998       30.835        0.126      339.975       13.677      861.143
03/04/2014  18:05:00       89.201       24.430       34.203       80.801       51.310       39.795     6528.840     2632.725     1583.673        1.023        0.537       92.486       22.120        0.057      339.938       13.614      861.135
03/04/2014  18:06:00      161.189       37.866       28.353       98.930       59.843       57.083     9787.122     3581.227     3258.494        2.242        0.831      165.577       53.119        0.103      339.894       13.536      861.132
03/04/2014  18:07:00       88.541       31.456       59.431       68.189       55.891       36.173     4649.766     3123.844     1308.467        1.072        0.454       93.963       40.405        0.185      339.891       13.534      861.128
03/04/2014  18:08:00      109.787       90.052       46.209       48.758       33.372       38.271     2377.341     1113.673     1464.679        1.363        0.248      141.995       26.431        0.035      339.852       13.470      861.131
03/04/2014  18:09:00       94.323       66.057       61.500       60.916       33.851       36.579     3710.801     1145.895     1338.040        1.162        0.310      115.154       37.504        0.106      339.861       13.484      861.129
03/04/2014  18:10:00      137.497       72.555        9.799       53.027       40.458       28.672     2811.903     1636.861      822.058        1.477        0.264      155.466       17.601        0.013      339.870       13.499      861.143
03/04/2014  18:11:00       55.174       30.904       12.395       50.072       40.915       36.924     2507.198     1674.064     1363.354        0.485        0.277       63.239       23.693        0.140      339.881       13.518      861.158
03/04/2014  18:12:00       65.047       49.563       58.562       37.433       29.105       25.131     1401.257      847.109      631.579        0.650        0.144       81.778       12.532        0.023      339.946       13.628      861.169
03/04/2014  18:13:00       60.703       29.114       45.625       49.787       42.906       33.479     2478.781     1840.954     1120.856        0.603        0.272       67.324       28.056        0.174      339.954       13.641      861.167
03/04/2014  18:14:00       72.872       19.181       21.134       52.665       45.247       33.897     2773.603     2047.276     1149.008        0.605        0.298       75.354       21.179        0.079      339.969       13.667      861.150
03/04/2014  18:15:00       50.276       10.714       24.490       39.025       27.427       31.961     1522.948      752.228     1021.504        0.327        0.165       51.405       25.115        0.239      339.968       13.663      861.146
03/04/2014  18:16:00       58.855       47.772       49.281       34.044       34.655       28.843     1158.975     1200.983      831.909        0.568        0.160       75.803       15.898        0.044      339.946       13.629      861.143
03/04/2014  18:17:00       26.234       65.444       77.068       41.842       38.682       39.189     1750.790     1496.275     1535.801        0.785        0.239       70.506       33.080        0.220      339.996       13.711      861.147
03/04/2014  18:18:00       30.379       49.290       52.854       40.494       39.918       38.006     1639.734     1593.467     1444.481        0.541        0.234       57.900       30.532        0.278      340.050       13.804      861.146
03/04/2014  18:19:00       49.743       52.919       70.854       44.575       34.677       26.366     1986.955     1202.497      695.188        0.709        0.194       72.628       24.539        0.114      340.010       13.736      861.140
03/04/2014  18:20:00       29.615       83.351      104.775       41.956       53.525       32.859     1760.311     2864.880     1079.724        1.225        0.285       88.456       29.087        0.108      340.034       13.776      861.138
03/04/2014  18:21:00       64.515       36.365       75.915       80.530       51.498       38.596     6485.041     2652.002     1489.621        1.094        0.531       74.058       39.009        0.277      340.012       13.739      861.159
03/04/2014  18:22:00       40.987       25.552       39.807       48.479       62.082       40.053     2350.260     3854.214     1604.258        0.586        0.390       48.299       41.423        0.736      339.992       13.706      861.184
03/04/2014  18:23:00       81.479      -71.778       26.719       73.387      113.893       68.748     5385.615    12971.698     4726.285        1.779        1.154      108.586       76.823        0.501      340.056       13.813      861.197
03/04/2014  18:24:00       24.947        6.051       83.132       65.675       80.798       61.287     4313.271     6528.303     3756.042        1.108        0.730       25.670       58.814        5.249      340.014       13.742      861.205
03/04/2014  18:25:00       93.008     -117.654      -16.812       67.704       80.702       45.207     4583.807     6512.736     2043.650        1.796        0.657      149.976       50.255        0.112      340.049       13.801      861.218
03/04/2014  18:26:00       45.050      -34.031       28.360       64.224       79.535       54.030     4124.723     6325.863     2919.214        0.868        0.668       56.459       61.449        1.185      340.022       13.757      861.235
03/04/2014  18:27:00      118.756     -122.027       -0.965       68.793       99.573       63.456     4732.483     9914.853     4026.608        2.383        0.934      170.275       64.830        0.145      340.050       13.801      861.251
03/04/2014  18:28:00       76.857      -32.441       47.396       86.736       88.761       76.043     7523.205     7878.548     5782.547        1.519        1.059       83.423       72.374        0.753      340.030       13.768      861.259
03/04/2014  18:29:00       19.709       40.774       68.187       45.122       57.698       38.995     2035.951     3329.025     1520.646        0.679        0.344       45.288       36.884        0.663      340.023       13.757      861.282
03/04/2014  18:30:00       16.245       41.845       98.627       45.355       94.665       57.640     2057.118     8961.494     3322.368        1.304        0.717       44.888       71.649        2.548      339.985       13.694      861.283
03/04/2014  18:31:00       66.904       48.087       69.854       78.617       90.756       65.428     6180.710     8236.591     4280.814        1.518        0.935       82.392       74.434        0.816      339.951       13.637      861.292
03/04/2014  18:32:00       39.076        5.255       49.797       40.267       64.722       38.263     1621.392     4188.994     1464.063        0.565        0.364       39.427       42.925        1.185      339.929       13.599      861.293
03/04/2014  18:33:00       51.752       72.990       72.884       36.835       32.008       25.757     1356.791     1024.521      663.402        0.818        0.152       89.475       12.596        0.020      339.862       13.485      861.295
03/04/2014  18:34:00       88.332       57.873       54.079       66.758       53.885       43.290     4456.679     2903.599     1873.983        1.165        0.462      105.602       39.463        0.140      339.754       13.304      861.309
03/04/2014  18:35:00      135.412       39.519       20.540       68.264       47.662       35.164     4660.019     2271.701     1236.530        1.424        0.408      141.061       27.980        0.039      339.671       13.161      861.310
03/04/2014  18:36:00       80.138       52.969       74.451       68.062       52.777       39.865     4632.440     2785.437     1589.210        1.189        0.450       96.061       42.314        0.194      339.650       13.129      861.333
03/04/2014  18:37:00       43.469       54.185       70.756       52.442       41.378       32.675     2750.196     1712.138     1067.644        0.768        0.276       69.466       30.973        0.199      339.644       13.120      861.355
03/04/2014  18:38:00       37.808       13.171       15.831       37.254       35.170       39.574     1387.859     1236.951     1566.119        0.302        0.210       40.036       23.276        0.338      339.581       13.014      861.390
03/04/2014  18:39:00       45.473       25.345       28.218       48.772       24.559       28.417     2378.725      603.168      807.514        0.365        0.189       52.060       26.767        0.264      339.509       12.889      861.414
03/04/2014  18:40:00       83.530       54.440       57.100       43.635       36.679       32.244     1903.993     1345.382     1039.684        0.874        0.214       99.705       23.440        0.055      339.534       12.932      861.426
03/04/2014  18:41:00       70.948       50.592       44.141       51.521       38.752       42.408     2654.405     1501.689     1798.413        0.775        0.298       87.138       34.429        0.156      339.495       12.866      861.436
03/04/2014  18:42:00       75.383       42.312       61.621       36.512       39.833       31.605     1333.142     1586.640      998.856        0.759        0.196       86.446       28.540        0.109      339.494       12.865      861.442
03/04/2014  18:43:00       79.253       79.448       55.460       58.963       43.164       39.737     3476.607     1863.148     1579.043        1.129        0.346      112.218       30.695        0.075      339.538       12.939      861.453
03/04/2014  18:44:00       70.369       38.335       50.952       56.909       60.204       62.919     3238.674     3624.556     3958.828        0.992        0.541       80.134       52.399        0.428      339.470       12.825      861.453
03/04/2014  18:45:00       82.158       75.263       53.254       69.978       36.745       32.036     4896.904     1350.164     1026.317        1.126        0.364      111.420       31.980        0.082      339.480       12.841      861.446
03/04/2014  18:46:00       94.509       72.046       60.857       64.563       36.765       38.154     4168.377     1351.639     1455.748        1.240        0.349      118.838       30.916        0.068      339.470       12.825      861.458
03/04/2014  18:47:00       54.401       42.610       47.108       65.928       40.256       42.139     4346.536     1620.529     1775.669        0.737        0.387       69.102       45.182        0.428      339.481       12.843      861.463
03/04/2014  18:48:00       66.921       28.908       21.203       38.990       42.227       22.792     1520.219     1783.156      519.453        0.479        0.191       72.898       17.041        0.055      339.406       12.717      861.463
03/04/2014  18:49:00       82.165       26.712       44.312       70.196       49.099       33.656     4927.521     2410.698     1132.725        0.895        0.424       86.398       42.135        0.238      339.413       12.729      861.470
03/04/2014  18:50:00       79.598       49.739       64.465       62.476       50.182       38.504     3903.261     2518.267     1482.556        1.043        0.395       93.861       37.767        0.162      339.391       12.692      861.469
03/04/2014  18:51:00       66.295       49.254       48.107       33.499       39.777       31.535     1122.193     1582.229      994.441        0.642        0.185       82.589       22.928        0.077      339.355       12.630      861.453
03/04/2014  18:52:00       60.425       35.548       47.280       56.881       39.689       31.334     3235.482     1575.224      981.848        0.647        0.290       70.106       25.740        0.135      339.340       12.606      861.451
03/04/2014  18:53:00       87.131       53.748       36.163       55.251       30.018       28.830     3052.690      901.050      831.172        0.829        0.239      102.375       29.061        0.081      339.303       12.543      861.450
03/04/2014  18:54:00       96.235       60.419       40.251       58.743       38.184       41.049     3450.698     1457.996     1685.019        1.056        0.330      113.630       32.755        0.083      339.350       12.622      861.453
03/04/2014  18:55:00      110.778       51.759       26.394       53.840       34.302       37.139     2898.760     1176.659     1379.278        1.055        0.273      122.273       18.928        0.024      339.311       12.557      861.484
03/04/2014  18:56:00       82.605       22.304       38.146       53.052       33.910       32.713     2814.496     1149.867     1070.169        0.690        0.252       85.563       33.447        0.153      339.343       12.611      861.508
03/04/2014  18:57:00      109.514        1.400       16.629       64.552       42.937       26.599     4167.003     1843.616      707.517        0.949        0.336      109.522       30.675        0.078      339.329       12.588      861.538
03/04/2014  18:58:00       74.307       38.796       41.516       37.457       44.471       28.451     1403.045     1977.713      809.438        0.647        0.210       83.825       24.596        0.086      339.259       12.469      861.559
03/04/2014  18:59:00       80.376       42.107       32.614       38.856       34.038       31.807     1509.775     1158.607     1011.705        0.649        0.184       90.737       26.751        0.087      339.227       12.414      861.565
03/04/2014  19:00:00       82.975       47.146       46.801       43.217       42.141       30.038     1867.740     1775.853      902.293        0.792        0.227       95.434       20.305        0.045      339.235       12.428      861.583
03/04/2014  19:01:00       88.348       31.701       39.483       45.958       38.299       34.951     2112.169     1466.812     1221.595        0.758        0.240       93.863       26.273        0.078      339.291       12.522      861.612
03/04/2014  19:02:00       91.772       50.061       37.593       62.402       39.112       35.162     3894.028     1529.752     1236.357        0.950        0.333      104.538       13.713        0.017      339.265       12.480      861.624
03/04/2014  19:03:00       25.847       42.130       55.754       38.722       34.329       32.747     1499.406     1178.461     1072.387        0.465        0.188       49.427       22.708        0.211      339.224       12.411      861.627
03/04/2014  19:04:00       39.685       56.878       61.936       35.377       30.920       27.493     1251.498      956.049      755.888        0.580        0.148       69.354       19.085        0.076      339.198       12.366      861.645
03/04/2014  19:05:00       82.919       12.741       17.406       45.357       26.068       30.725     2057.287      679.551      944.050        0.551        0.184       83.893       18.858        0.051      339.231       12.422      861.645
03/04/2014  19:06:00       26.524        9.813       26.605       31.122       43.781       29.572      968.574     1916.802      874.501        0.263        0.188       28.281       22.467        0.631      339.209       12.386      861.650
03/04/2014  19:07:00       52.761       48.917       63.201       19.372       22.500       17.068      375.277      506.245      291.316        0.517        0.059       71.948        7.150        0.010      339.146       12.281      861.680
03/04/2014  19:08:00       10.590       41.751       65.564       34.934       44.738       34.820     1220.371     2001.450     1212.449        0.529        0.222       43.073       35.000        0.660      339.271       12.490      861.673
03/04/2014  19:09:00       45.259       44.305       43.804       38.259       34.446       36.395     1463.718     1186.507     1324.604        0.495        0.199       63.335       29.502        0.217      339.236       12.430      861.667
03/04/2014  19:10:00       91.711       75.365       59.272       27.477       36.821       30.246      754.971     1355.790      914.818        1.031        0.151      118.705       16.611        0.020      339.209       12.386      861.658
03/04/2014  19:11:00       73.730       32.141       33.906       77.500       62.507       43.854     6006.177     3907.122     1923.146        0.973        0.592       80.431       46.029        0.328      339.164       12.310      861.654
03/04/2014  19:12:00        9.884       27.332       56.412       28.348       35.273       31.451      803.585     1244.174      989.155        0.353        0.152       29.064       25.105        0.746      339.114       12.224      861.653
03/04/2014  19:13:00       72.230        5.357       33.390       57.509       32.928       38.287     3307.315     1084.238     1465.921        0.611        0.293       72.428       30.636        0.179      339.272       12.491      861.644
03/04/2014  19:14:00       17.074       57.466       74.656       39.989       38.306       33.159     1599.081     1467.325     1099.538        0.667        0.208       59.949       26.102        0.190      339.237       12.433      861.642
03/04/2014  19:15:00       49.837       52.534       57.466       41.333       35.294       30.161     1708.443     1245.701      909.707        0.620        0.193       72.412       17.032        0.055      339.151       12.288      861.643
03/04/2014  19:16:00       59.288       19.752       46.401       61.068       40.765       25.331     3729.317     1661.786      641.656        0.604        0.302       62.492       27.236        0.190      339.244       12.444      861.624
03/04/2014  19:17:00       87.980       56.580       40.445       44.278       36.368       32.043     1960.515     1322.619     1026.786        0.844        0.215      104.603       21.279        0.041      339.231       12.423      861.621
03/04/2014  19:18:00       95.372       68.534       46.045       51.204       24.594       37.404     2621.811      604.870     1399.034        1.027        0.231      117.443       28.166        0.058      339.137       12.264      861.623
03/04/2014  19:19:00       43.503       74.873       57.662       42.085       38.197       29.372     1771.134     1459.007      862.733        0.746        0.205       86.594       24.780        0.082      339.157       12.298      861.607
03/04/2014  19:20:00       57.151       64.021       44.305       51.695       40.156       34.160     2672.419     1612.536     1166.879        0.739        0.273       85.819       27.998        0.106      339.108       12.215      861.580
03/04/2014  19:21:00       43.715       43.730       44.606       36.359       34.855       25.761     1321.991     1214.844      663.647        0.451        0.160       61.833       13.380        0.047      339.079       12.168      861.564
03/04/2014  19:22:00       81.499       55.175       19.305       37.146       28.749       23.386     1379.853      826.515      546.925        0.641        0.138       98.419       23.445        0.057      339.044       12.109      861.559
03/04/2014  19:23:00       87.025       51.598       19.139       26.651       27.499       19.856      710.296      756.197      394.269        0.623        0.093      101.172       14.673        0.021      338.989       12.016      861.561
03/04/2014  19:24:00       94.148       64.959        1.327       22.728       13.684       14.115      516.582      187.257      199.222        0.699        0.045      114.384       10.314        0.008      338.963       11.971      861.566
03/04/2014  19:25:00       84.696       60.684        9.626       37.648       18.611       17.715     1417.377      346.356      313.808        0.651        0.104      104.192       10.926        0.011      338.906       11.875      861.570
03/04/2014  19:26:00       75.265       38.253        2.406       35.099       25.577       21.941     1231.906      654.184      481.392        0.475        0.118       84.428        7.614        0.008      338.973       11.989      861.583
03/04/2014  19:27:00       72.490       46.014       17.027       36.456       28.767       20.483     1329.033      827.531      419.560        0.512        0.129       85.861        9.166        0.011      338.874       11.821      861.595
03/04/2014  19:28:00       97.674       66.319       15.128       32.640       23.249       21.929     1065.347      540.528      480.880        0.813        0.104      118.061       12.800        0.012      338.831       11.749      861.601
03/04/2014  19:29:00       89.874       39.881       -0.221       29.915       23.680       23.242      894.918      560.725      540.175        0.583        0.100       98.325       13.913        0.020      338.827       11.744      861.611
03/04/2014  19:30:00       75.089       21.816        4.075       23.462       18.892       20.316      550.469      356.903      412.739        0.373        0.066       78.194       15.271        0.038      338.810       11.713      861.628
03/04/2014  19:31:00       47.792       12.823        6.853       31.608       13.048       16.279      999.052      170.261      265.003        0.196        0.072       49.483       14.943        0.091      338.782       11.667      861.642
03/04/2014  19:32:00       65.701       43.717       12.762       26.970       21.468       19.513      727.366      460.870      380.747        0.398        0.078       78.916        5.302        0.005      338.738       11.595      861.669
03/04/2014  19:33:00       48.963       28.250       -1.495       21.407       16.878       13.990      458.278      284.880      195.712        0.207        0.047       56.528       10.607        0.035      338.693       11.516      861.687
03/04/2014  19:34:00       87.971       56.305       15.034       47.136       29.126       25.204     2221.810      848.333      635.243        0.742        0.185      104.446       14.734        0.020      338.742       11.600      861.708
03/04/2014  19:35:00       85.107       57.671       18.103       42.979       31.173       28.924     1847.180      971.732      836.615        0.728        0.183      102.807       18.911        0.034      338.753       11.619      861.712
03/04/2014  19:36:00       80.886       68.967       11.784       35.274       23.519       22.406     1244.242      553.162      502.022        0.687        0.115      106.297        8.474        0.006      338.738       11.594      861.710
03/04/2014  19:37:00      114.548       86.668       14.384       41.417       29.171       30.873     1715.360      850.955      953.153        1.218        0.176      143.641       24.330        0.029      338.759       11.630      861.710
03/04/2014  19:38:00       75.615       56.810       15.896       44.998       31.551       26.995     2024.815      995.467      728.708        0.647        0.187       94.578       12.860        0.018      338.716       11.556      861.707
03/04/2014  19:39:00       99.094       46.745       13.738       32.683       26.846       27.548     1068.178      720.732      758.916        0.737        0.127      109.566       16.991        0.024      338.665       11.471      861.696
03/04/2014  19:40:00       84.424       49.771        4.985       28.948       24.808       21.358      837.985      615.435      456.166        0.577        0.095       98.003       13.581        0.019      338.646       11.440      861.690
03/04/2014  19:41:00       83.142       50.075       16.863       31.110       22.386       22.966      967.845      501.123      527.452        0.585        0.100       97.057       13.929        0.021      338.617       11.392      861.676
03/04/2014  19:42:00       79.401       46.325        7.436       26.991       24.698       23.004      728.522      609.978      529.188        0.519        0.093       91.927       18.110        0.039      338.579       11.327      861.674
03/04/2014  19:43:00       64.437       27.620       19.446       27.122       23.715       19.910      735.591      562.386      396.414        0.349        0.085       70.107       15.116        0.046      338.569       11.309      861.666
03/04/2014  19:44:00       80.209       55.120        9.654       37.444       30.472       21.722     1402.041      928.551      471.850        0.618        0.140       97.322        9.655        0.010      338.566       11.308      861.671
03/04/2014  19:45:00       83.093       52.840       17.683       35.188       23.777       23.769     1238.220      565.352      564.962        0.619        0.118       98.470       17.538        0.032      338.514       11.217      861.669
03/04/2014  19:46:00       84.125       56.952        8.381       27.743       27.239       20.284      769.666      741.951      411.439        0.616        0.096      101.590       12.994        0.016      338.526       11.237      861.671
03/04/2014  19:47:00       79.587       36.075       -0.115       44.576       34.512       22.325     1986.999     1191.074      498.399        0.566        0.184       87.381       17.543        0.040      338.579       11.326      861.665
03/04/2014  19:48:00       80.904       52.000        1.581       39.876       35.736       26.216     1590.103     1277.055      687.271        0.640        0.178       96.174       21.374        0.049      338.519       11.226      861.678
03/04/2014  19:49:00       94.959       48.714        6.359       25.297       20.985       19.292      639.932      440.383      372.184        0.644        0.073      106.725       11.002        0.011      338.508       11.207      861.692
03/04/2014  19:50:00       80.790       38.867       -1.542       25.813       21.943       13.826      666.310      481.501      191.159        0.469        0.067       89.653        9.818        0.012      338.506       11.203      861.688
03/04/2014  19:51:00       67.346       29.481        1.933       30.659       18.958       15.551      939.958      359.412      241.842        0.347        0.077       73.517       11.454        0.024      338.472       11.145      861.686
03/04/2014  19:52:00       95.750       37.243        6.699       37.111       33.964       22.817     1377.207     1153.525      520.603        0.683        0.153      102.738       12.125        0.014      338.501       11.196      861.688
03/04/2014  19:53:00       99.017       50.692        9.002       35.715       24.717       26.301     1275.592      610.940      691.743        0.752        0.129      111.239        6.251        0.003      338.515       11.219      861.697
03/04/2014  19:54:00       93.318       54.841        0.266       34.664       31.414       28.016     1201.609      986.809      784.907        0.734        0.149      108.239       16.822        0.024      338.515       11.219      861.687
03/04/2014  19:55:00      109.967       63.937        9.248       43.795       31.831       24.145     1917.985     1013.182      582.964        0.989        0.176      127.203        9.617        0.006      338.473       11.148      861.631
03/04/2014  19:56:00       89.088       67.724       11.992       51.805       38.365       30.607     2683.786     1471.843      936.806        0.888        0.255      111.907       14.884        0.018      338.416       11.053      861.580
03/04/2014  19:57:00      106.418       72.224       28.163       38.678       24.499       27.131     1495.971      600.195      736.113        1.008        0.142      128.612       19.321        0.023      338.413       11.047      861.547
03/04/2014  19:58:00       98.009       56.519       15.281       35.359       26.491       24.757     1250.259      701.758      612.895        0.780        0.128      113.138       11.409        0.010      338.385       11.001      861.540
03/04/2014  19:59:00      109.166       72.756       21.267       25.117       22.691       17.626      630.843      514.879      310.689        0.956        0.073      131.189       10.527        0.006      338.368       10.971      861.524
03/04/2014  20:00:00       86.365       56.697       12.092       33.973       23.055       17.942     1154.157      531.519      321.907        0.641        0.100      103.312        8.344        0.007      338.354       10.948      861.514
03/04/2014  20:01:00       69.211       41.535       17.113       26.823       23.852       21.464      719.453      568.902      460.716        0.428        0.087       80.717        9.887        0.015      338.382       10.997      861.524
03/04/2014  20:02:00       77.125       46.443        6.407       40.133       20.996       19.573     1610.680      440.852      383.122        0.529        0.122       90.029        8.869        0.010      338.401       11.028      861.545
03/04/2014  20:03:00       67.280       39.785        5.806       25.938       22.319       20.247      672.758      498.135      409.957        0.386        0.079       78.163       14.148        0.033      338.368       10.972      861.560
03/04/2014  20:04:00       59.378       29.773        9.050       27.752       18.229       16.349      770.184      332.305      267.299        0.293        0.068       66.424        9.575        0.021      338.346       10.934      861.557
03/04/2014  20:05:00       62.156       39.350        9.079       24.629       21.689       18.604      606.573      470.393      346.111        0.346        0.071       73.565       15.318        0.043      338.378       10.990      861.569
03/04/2014  20:06:00       76.772       70.557        9.476       39.502       29.153       32.590     1560.409      849.884     1062.090        0.722        0.174      104.270       28.377        0.074      338.437       11.088      861.598
03/04/2014  20:07:00       14.945       60.482       -2.200       22.488       31.639       18.073      505.688     1001.002      326.632        0.286        0.092       62.301       17.975        0.083      338.405       11.033      861.629
03/04/2014  20:08:00       28.654       59.480      -10.353       25.001       34.852       18.917      625.058     1214.669      357.846        0.333        0.110       66.022       21.865        0.110      338.437       11.086      861.642
03/04/2014  20:09:00       24.502       99.588      -21.064       46.985       33.951       14.675     2207.591     1152.704      215.360        0.727        0.179      102.558       15.822        0.024      338.490       11.177      861.651
03/04/2014  20:10:00       21.563       75.700       -2.077       39.052       44.804       28.187     1525.030     2007.400      794.503        0.526        0.216       78.711       29.889        0.144      338.452       11.112      861.668
03/04/2014  20:11:00       14.223      114.476      -13.348       44.780       30.315       31.249     2005.210      918.985      976.483        0.869        0.195      115.356       24.050        0.043      338.508       11.205      861.673
03/04/2014  20:12:00       48.720       91.758      -10.091       38.334       47.979       32.180     1469.487     2301.953     1035.542        0.785        0.240      103.890       23.683        0.052      338.397       11.020      861.657
03/04/2014  20:13:00       39.541       57.389       -5.108       29.658       46.720       28.903      879.569     2182.736      835.392        0.439        0.195       69.692       28.112        0.163      338.307       10.871      861.627
03/04/2014  20:14:00       46.096       81.228       -3.103       35.612       49.072       29.298     1268.215     2408.017      858.390        0.663        0.227       93.396       28.212        0.091      338.276       10.818      861.600
03/04/2014  20:15:00       24.748       59.312        2.625       44.067       52.064       37.675     1941.861     2710.610     1419.425        0.510        0.304       64.268       30.618        0.227      338.279       10.822      861.591
03/04/2014  20:16:00       48.941       91.749       -3.934       49.401       51.100       38.875     2440.460     2611.212     1511.255        0.869        0.328      103.986       32.976        0.101      338.275       10.816      861.583
03/04/2014  20:17:00       41.247       54.990        6.266       32.554       35.679       30.467     1059.760     1272.969      928.233        0.401        0.163       68.740       18.515        0.073      338.231       10.742      861.581
03/04/2014  20:18:00       27.258       45.137        4.375       26.518       35.040       25.066      703.218     1227.836      628.329        0.268        0.128       52.729       20.390        0.150      338.185       10.664      861.576
03/04/2014  20:19:00       34.489       65.947       -7.451       35.482       50.156       24.604     1258.973     2515.589      605.353        0.499        0.219       74.421       29.077        0.153      338.187       10.668      861.576
03/04/2014  20:20:00       43.155       82.449      -11.082       32.406       49.304       25.298     1050.174     2430.888      639.978        0.645        0.206       93.060       25.593        0.076      338.166       10.633      861.575
03/04/2014  20:21:00       81.315       62.599       10.216       51.059       40.508       32.735     2607.001     1640.908     1071.551        0.798        0.266      102.619       26.002        0.064      338.163       10.628      861.565
03/04/2014  20:22:00      126.579       89.725       12.135       46.981       57.597       41.796     2207.200     3317.367     1746.937        1.574        0.364      155.154       36.135        0.054      338.131       10.574      861.544
03/04/2014  20:23:00      112.468       77.240       21.943       50.025       33.055       30.759     2502.531     1092.618      946.120        1.182        0.227      136.437       20.471        0.023      338.124       10.562      861.532
03/04/2014  20:24:00      101.103       67.636       18.805       61.706       27.180       22.873     3807.691      738.769      523.159        1.011        0.253      121.641       12.897        0.011      338.122       10.559      861.515
03/04/2014  20:25:00       68.725       54.279       12.481       54.432       37.613       29.233     2962.799     1414.743      854.575        0.653        0.262       87.575       18.626        0.045      338.083       10.492      861.511
03/04/2014  20:26:00       70.616       50.943        7.393       42.785       29.335       28.554     1830.519      860.530      815.321        0.557        0.175       87.074       19.069        0.048      338.039       10.420      861.520
03/04/2014  20:27:00       48.845       41.569        7.444       31.098       27.411       27.990      967.107      751.340      783.422        0.334        0.125       64.139       18.755        0.086      338.007       10.367      861.551
03/04/2014  20:28:00       49.635       33.631        7.835       36.538       21.074       17.913     1335.012      444.102      320.881        0.288        0.105       59.956       11.850        0.039      338.004       10.362      861.573
03/04/2014  20:29:00       60.825       41.286        9.793       25.854       18.530       14.336      668.419      343.353      205.530        0.336        0.061       73.514        9.646        0.017      338.018       10.386      861.586
03/04/2014  20:30:00       41.779       35.347       -0.171       17.627       19.080       13.910      310.726      364.056      193.486        0.193        0.043       54.726        8.036        0.022      337.959       10.285      861.606
03/04/2014  20:31:00       52.498       31.969       16.808       15.585       20.164       17.660      242.888      406.591      311.865        0.251        0.048       61.465        6.141        0.010      337.981       10.321      861.643
03/04/2014  20:32:00       38.752       28.317        3.729       27.645       12.983       13.937      764.255      168.568      194.243        0.172        0.056       47.996       13.569        0.080      337.940       10.255      861.687
03/04/2014  20:33:00       58.138       42.646        8.085       31.544       22.322       14.687      994.998      498.274      215.716        0.349        0.085       72.102        4.095        0.003      337.939       10.250      861.720
03/04/2014  20:34:00       61.704       38.905        9.529       21.910       25.710       24.041      480.039      661.008      577.987        0.357        0.086       72.945       15.488        0.045      338.026       10.398      861.752
03/04/2014  20:35:00       59.853       36.211        1.960       20.597       15.567       17.189      424.226      242.319      295.447        0.293        0.048       69.955       12.334        0.031      337.991       10.340      861.787
03/04/2014  20:36:00       76.624       41.610        7.770       20.138       21.928       16.149      405.534      480.854      260.782        0.440        0.057       87.193       13.229        0.023      338.044       10.430      861.809
03/04/2014  20:37:00       65.943       34.702       12.772       22.007       23.837       19.359      484.318      568.221      374.790        0.357        0.071       74.517       12.602        0.029      337.996       10.349      861.804
03/04/2014  20:38:00       79.877       31.744       13.164       25.369       19.230       18.703      643.591      369.787      349.805        0.446        0.068       85.953       12.398        0.021      338.047       10.434      861.805
03/04/2014  20:39:00       69.364       29.898       13.365       26.519       15.743       20.729      703.240      247.842      429.706        0.363        0.069       75.533       15.720        0.043      338.026       10.399      861.816
03/04/2014  20:40:00       81.360       50.242       -0.724       21.898       18.327       15.686      479.522      335.890      246.046        0.510        0.053       95.623       12.068        0.016      337.970       10.303      861.825
03/04/2014  20:41:00       77.156       30.396       -1.840       35.287       29.798       18.344     1245.166      887.898      336.504        0.467        0.123       82.927       11.080        0.018      337.942       10.259      861.815
03/04/2014  20:42:00       76.440       51.236        1.947       19.538       19.701       15.961      381.718      388.143      254.742        0.475        0.051       92.023       10.519        0.013      337.907       10.199      861.796
03/04/2014  20:43:00       64.340       45.232        2.584       24.863       18.416       15.112      618.190      339.163      228.366        0.369        0.059       78.648       12.364        0.025      337.860       10.120      861.778
03/04/2014  20:44:00       47.785       33.437        7.297       19.630       16.332       14.934      385.354      266.730      223.018        0.216        0.044       58.322        7.429        0.016      337.815       10.044      861.780
03/04/2014  20:45:00       82.491       45.948        6.063       20.371       20.000       18.403      414.994      399.990      338.684        0.505        0.058       94.425       14.151        0.022      337.831       10.071      861.792
03/04/2014  20:46:00       73.287       51.002        1.659       27.705       20.264       18.920      767.586      410.630      357.968        0.476        0.077       89.287       11.913        0.018      337.789       10.002      861.795
03/04/2014  20:47:00       93.232       83.475       -2.889       38.099       28.279       22.006     1451.536      799.675      484.258        0.920        0.137      125.141       12.549        0.010      337.840       10.085      861.786
03/04/2014  20:48:00       55.630       52.593        7.148       33.810       30.181       29.761     1143.099      910.885      885.726        0.443        0.147       76.555       22.803        0.089      337.820       10.054      861.773
03/04/2014  20:49:00       84.096       64.903       -3.289       45.035       33.783       31.744     2028.160     1141.312     1007.685        0.774        0.209      106.228       24.220        0.052      337.765        9.961      861.758
03/04/2014  20:50:00       67.835       61.018       -3.174       44.625       32.308       29.119     1991.423     1043.820      847.905        0.611        0.194       91.241       14.215        0.024      337.739        9.916      861.755
03/04/2014  20:51:00       94.429       71.799        6.928       46.030       37.248       35.118     2118.759     1387.439     1233.298        0.943        0.237      118.625       26.212        0.049      337.759        9.951      861.758
03/04/2014  20:52:00      100.329       76.579        9.091       49.689       34.363       32.614     2469.002     1180.806     1063.656        1.036        0.236      126.215       24.782        0.039      337.758        9.949      861.762
03/04/2014  20:53:00       94.876       90.371       20.018       54.026       32.591       31.533     2918.789     1062.189      994.301        1.127        0.249      131.028       16.842        0.017      337.770        9.970      861.767
03/04/2014  20:54:00       89.275       60.038       20.836       39.916       30.307       26.822     1593.307      918.527      719.399        0.762        0.162      107.586       14.780        0.019      337.710        9.868      861.785
03/04/2014  20:55:00      108.318       65.521       28.803       43.637       26.628       28.955     1904.160      709.053      838.384        1.015        0.173      126.593       18.817        0.022      337.741        9.919      861.799
03/04/2014  20:56:00       84.703       62.768        3.861       38.724       25.311       30.775     1499.534      640.658      947.076        0.711        0.154      105.425       17.778        0.028      337.712        9.870      861.825
03/04/2014  20:57:00       90.689       61.053       10.516       43.235       35.130       29.247     1869.255     1234.109      855.397        0.801        0.198      109.325       22.427        0.042      337.762        9.956      861.858
03/04/2014  20:58:00       78.139       66.443        8.055       48.426       36.970       30.133     2345.076     1366.810      907.993        0.760        0.231      102.569       22.983        0.050      337.735        9.909      861.893
03/04/2014  20:59:00       74.068       61.672       12.101       55.014       41.034       32.979     3026.488     1683.752     1087.584        0.762        0.290       96.382       22.819        0.056      337.762        9.955      861.906
03/04/2014  21:00:00       94.815       76.113        9.966       54.324       37.223       29.127     2951.052     1385.520      848.353        1.003        0.259      121.586       20.325        0.028      337.782        9.989      861.925
03/04/2014  21:01:00       93.323       74.592       12.525       50.311       34.380       37.512     2531.224     1182.016     1407.135        0.977        0.256      119.470       18.372        0.024      337.795       10.011      861.956
03/04/2014  21:02:00       55.540       63.705        8.007       42.535       36.755       28.665     1809.198     1350.926      821.705        0.559        0.199       84.516       25.026        0.088      337.764        9.959      861.985
03/04/2014  21:03:00       57.208      107.451      -11.008       33.086       58.274       29.964     1094.669     3395.824      897.865        1.016        0.269      121.731       29.034        0.057      337.813       10.040      861.984
03/04/2014  21:04:00       38.848       64.483       -1.649       38.568       38.789       26.870     1487.528     1504.610      721.974        0.469        0.186       75.281       24.689        0.108      337.799       10.018      861.989
03/04/2014  21:05:00       35.759       57.605       -2.622       32.269       46.549       27.482     1041.293     2166.841      755.264        0.428        0.198       67.801       24.826        0.134      337.799       10.017      862.005
03/04/2014  21:06:00       35.873       74.300       -8.077       36.263       49.895       27.317     1314.973     2489.525      746.232        0.571        0.228       82.507       25.546        0.096      337.819       10.050      862.040
03/04/2014  21:07:00       43.417      129.182      -19.568       33.244       38.959       25.995     1105.180     1517.782      675.721        1.113        0.165      136.283       23.869        0.031      337.834       10.076      862.081
03/04/2014  21:08:00       42.051      123.917      -17.945       26.792       32.283       20.858      717.801     1042.210      435.044        0.982        0.110      130.858       17.923        0.019      337.758        9.951      862.109
03/04/2014  21:09:00       44.227       85.377       -3.009       40.066       49.743       34.624     1605.251     2474.363     1198.811        0.727        0.264       96.152       30.107        0.098      337.744        9.925      862.113
03/04/2014  21:10:00       26.238       83.085        3.833       31.450       48.326       28.701      989.122     2335.408      823.757        0.588        0.207       87.129       24.842        0.081      337.708        9.864      862.102
03/04/2014  21:11:00       51.048       98.970       -7.469       31.022       59.467       33.032      962.364     3536.291     1091.132        0.902        0.279      111.359       35.091        0.099      337.741        9.920      862.093
03/04/2014  21:12:00       52.808       62.062        2.457       35.526       47.286       37.277     1262.128     2235.940     1389.585        0.577        0.244       81.488       32.230        0.156      337.712        9.872      862.099
03/04/2014  21:13:00       53.467       52.926        5.090       47.112       32.021       28.386     2219.586     1025.352      805.755        0.487        0.203       75.232       15.762        0.044      337.671        9.803      862.093
03/04/2014  21:14:00       27.173       58.955       -7.413       31.848       41.045       21.850     1014.300     1684.665      477.437        0.372        0.159       64.916       20.770        0.102      337.686        9.828      862.075
03/04/2014  21:15:00       21.440       78.434      -16.860       26.802       39.023       22.056      718.343     1522.787      486.472        0.481        0.136       81.312       19.551        0.058      337.720        9.885      862.069
03/04/2014  21:16:00       28.253       85.579      -14.732       24.552       53.662       16.377      602.806     2879.588      268.219        0.604        0.188       90.122       20.025        0.049      337.715        9.877      862.057
03/04/2014  21:17:00       -0.419       78.425      -18.010       18.966       21.028        8.890      359.725      442.174       79.030        0.368        0.044       78.426        7.985        0.010      337.809       10.035      862.037
03/04/2014  21:18:00       10.614       57.350       -9.899       28.389       30.132       16.478      805.937      907.942      271.531        0.274        0.099       58.324       17.362        0.089      337.872       10.139      862.019
03/04/2014  21:19:00      -16.845        7.951        0.780       18.655       13.351       10.970      348.010      178.247      120.342        0.050        0.032       18.627        6.733        0.131      337.835       10.077      862.027
03/04/2014  21:20:00      -22.662       24.526       -1.959       20.780       22.491       19.432      431.792      505.834      377.602        0.122        0.066       33.393       14.950        0.200      337.806       10.030      862.060
03/04/2014  21:21:00      -30.244       18.065      -10.342       20.487       25.433       13.701      419.703      646.848      187.730        0.130        0.063       35.229        7.192        0.042      338.023       10.393      862.086
03/04/2014  21:22:00      -42.556        7.745       -8.142       30.719       34.084       15.990      943.678     1161.751      255.684        0.215        0.118       43.255       15.219        0.124      337.950       10.271      862.099
03/04/2014  21:23:00      -45.444       24.235      -14.482       23.861       23.128       17.203      569.327      534.897      295.929        0.213        0.070       51.502       12.282        0.057      338.009       10.370      862.111
03/04/2014  21:24:00      -29.025       -3.015       -6.415       16.958       27.483       17.136      287.584      755.298      293.643        0.111        0.067       29.181       14.800        0.257      337.984       10.327      862.139
03/04/2014  21:25:00      -28.312       -2.882        3.535       20.785       29.732       15.127      432.024      883.992      228.827        0.118        0.077       28.459       12.855        0.204      337.928       10.234      862.177
03/04/2014  21:26:00      -56.023       11.096      -16.769       38.806       31.870       16.507     1505.908     1015.677      272.477        0.317        0.140       57.111       22.608        0.157      338.046       10.432      862.203
03/04/2014  21:27:00      -70.118        1.588      -11.439       27.921       37.157       13.633      779.576     1380.628      185.848        0.370        0.117       70.136        8.177        0.014      338.007       10.365      862.212
03/04/2014  21:28:00       -8.871        2.099       14.597       24.167       27.143       18.640      584.044      736.747      347.460        0.098        0.083        9.116       14.505        2.532      337.844       10.093      862.212
03/04/2014  21:29:00      -67.295       12.552       -4.258       54.632       39.433       24.263     2984.647     1554.959      588.697        0.492        0.256       68.455       28.302        0.171      338.003       10.361      862.205
03/04/2014  21:30:00      -85.504      -11.159       -6.873       54.591       29.761       24.996     2980.219      885.696      624.776        0.599        0.225       86.229       30.856        0.128      337.723        9.890      862.214
03/04/2014  21:31:00      -87.296      -31.154       -6.288       26.813       35.932       16.768      718.946     1291.097      281.181        0.546        0.115       92.688       15.602        0.028      337.630        9.733      862.217
03/04/2014  21:32:00      -81.530        2.193       -8.870       28.188       33.000       14.991      794.548     1088.989      224.722        0.442        0.105       81.559        8.426        0.011      337.832       10.071      862.227
03/04/2014  21:33:00      -83.736      -14.081       -8.761       23.525       31.438       17.499      553.425      988.353      306.225        0.457        0.092       84.912       15.178        0.032      337.848       10.098      862.234
03/04/2014  21:34:00      -43.294      -23.291        1.123       28.655       25.396       15.848      821.118      644.970      251.168        0.207        0.086       49.162       15.537        0.100      337.682        9.821      862.227
03/04/2014  21:35:00      -84.822       33.002      -17.875       41.905       46.717       22.392     1756.042     2182.503      501.392        0.652        0.222       91.016       28.981        0.101      337.772        9.972      862.229
03/04/2014  21:36:00      -77.803       19.518       -8.670       25.365       35.299       18.939      643.399     1246.036      358.696        0.438        0.112       80.214       13.930        0.030      337.794       10.009      862.226
03/04/2014  21:37:00      -70.900       15.844       -6.232       31.866       31.404       23.457     1015.453      986.221      550.251        0.393        0.128       72.649       23.547        0.105      337.980       10.321      862.224
03/04/2014  21:38:00      -67.039       32.690      -15.900       21.906       34.650       17.273      479.867     1200.615      298.355        0.390        0.099       74.585       15.179        0.041      337.906       10.198      862.218
03/04/2014  21:39:00      -71.057       50.567      -16.935       22.938       26.011       19.220      526.156      676.559      369.404        0.473        0.079       87.213       15.306        0.031      337.942       10.258      862.211
03/04/2014  21:40:00      -65.885       39.375      -11.838       24.329       22.329       17.820      591.897      498.575      317.546        0.372        0.070       76.754       16.368        0.045      338.056       10.448      862.204
03/04/2014  21:41:00      -57.550       28.038      -12.091       20.893       31.699       16.112      436.498     1004.812      259.598        0.297        0.085       64.017       11.581        0.033      338.150       10.607      862.199
03/04/2014  21:42:00      -23.891       -2.778       -5.650       20.628       20.427       11.341      425.516      417.268      128.612        0.079        0.049       24.052       11.114        0.214      337.739        9.917      862.189
03/04/2014  21:43:00      -38.595       -7.976       -4.841       25.156       25.059       13.487      632.819      627.968      181.908        0.151        0.072       39.411       12.625        0.103      337.535        9.575      862.177
03/04/2014  21:44:00      -45.348      -12.189       -6.974       34.127       20.129       12.840     1164.678      405.181      164.859        0.199        0.087       46.958       15.362        0.107      337.411        9.366      862.166
03/04/2014  21:45:00     -103.218      -14.477       -9.760       21.669       18.798       18.923      469.566      353.371      358.097        0.607        0.059      104.228       15.863        0.023      337.258        9.112      862.171
03/04/2014  21:46:00      -69.847       -9.002       -5.092       34.392       25.227       18.300     1182.832      636.388      334.903        0.357        0.108       70.424       18.974        0.073      337.282        9.151      862.186
03/04/2014  21:47:00      -90.599       -7.378       -9.851       54.398       30.342       23.794     2959.175      920.647      566.136        0.640        0.222       90.899       18.944        0.043      337.402        9.352      862.182
03/04/2014  21:48:00      -52.014        0.793        2.057       48.729       27.787       25.163     2374.500      772.105      633.201        0.324        0.189       52.020       27.518        0.280      337.383        9.320      862.169
03/04/2014  21:49:00      -50.774       -3.431       -5.154       45.368       40.350       27.230     2058.235     1628.110      741.449        0.352        0.221       50.890       25.742        0.256      337.600        9.684      862.160
03/04/2014  21:50:00     -132.696       23.665      -18.329       35.170       36.259       22.727     1236.941     1314.726      516.530        1.079        0.153      134.790       11.711        0.008      337.714        9.873      862.156
03/04/2014  21:51:00     -142.039        9.291      -12.732       36.507       31.244       20.287     1332.787      976.184      411.582        1.157        0.136      142.343        6.537        0.002      337.554        9.607      862.148
03/04/2014  21:52:00     -123.473       -0.974      -12.500       57.681       32.081       28.532     3327.098     1029.161      814.063        1.029        0.259      123.476       32.615        0.070      337.597        9.679      862.139
03/04/2014  21:53:00     -160.923       -6.564      -11.696       47.063       37.541       29.656     2214.951     1409.311      879.456        1.529        0.225      161.057       25.598        0.025      337.416        9.376      862.132
03/04/2014  21:54:00     -127.255       -0.624      -13.710       59.753       52.406       30.893     3570.446     2746.356      954.391        1.183        0.364      127.256       28.493        0.050      337.348        9.262      862.124
03/04/2014  21:55:00     -111.234      -22.233      -10.935       42.079       44.236       26.293     1770.606     1956.784      691.300        0.870        0.221      113.434       21.276        0.035      337.146        8.922      862.124
03/04/2014  21:56:00     -156.376       -8.888      -19.373       36.006       38.358       23.547     1296.462     1471.354      554.467        1.411        0.166      156.628       16.910        0.012      337.260        9.113      862.127
03/04/2014  21:57:00      -86.399      -39.072       -5.216       30.519       27.641       22.073      931.401      764.023      487.211        0.560        0.109       94.823       18.771        0.039      337.046        8.756      862.126
03/04/2014  21:58:00      -97.552      -38.446       -5.192       33.393       37.555       21.368     1115.100     1410.351      456.594        0.700        0.149      104.855       19.347        0.034      337.044        8.751      862.114
03/04/2014  21:59:00     -102.042      -24.864       -3.522       43.340       46.786       24.830     1878.321     2188.887      616.535        0.786        0.234      105.027       21.559        0.042      337.087        8.824      862.105
03/04/2014  22:00:00      -96.247      -20.934       -4.828       63.130       41.478       32.271     3985.442     1720.458     1041.404        0.824        0.337       98.498       32.416        0.108      337.125        8.888      862.088
03/04/2014  22:01:00     -107.300       -5.765      -13.790       42.954       39.479       20.148     1845.044     1558.577      405.958        0.777        0.190      107.455       18.824        0.031      337.135        8.904      862.085
03/04/2014  22:02:00      -99.864       -4.070       -8.199       38.600       27.066       21.025     1489.993      732.556      442.067        0.636        0.133       99.947       20.496        0.042      337.039        8.743      862.088
03/04/2014  22:03:00      -54.781       24.024       -9.991       24.151       32.411       17.881      583.264     1050.499      319.715        0.282        0.098       59.818       16.695        0.078      337.313        9.204      862.073
03/04/2014  22:04:00      -58.908        5.601      -10.550       26.388       41.171       15.622      696.301     1695.012      244.037        0.312        0.132       59.174        9.230        0.024      337.369        9.296      862.062
03/04/2014  22:05:00      -58.138       43.268      -16.143       32.038       53.367       24.047     1026.435     2848.042      578.257        0.498        0.223       72.472       27.908        0.148      337.562        9.620      862.050
03/04/2014  22:06:00      -64.171       58.532      -17.320       32.725       32.086       19.876     1070.898     1029.489      395.048        0.517        0.125       86.856       22.219        0.065      337.433        9.404      862.033
03/04/2014  22:07:00      -66.002       76.022      -15.517       28.347       37.433       24.147      803.572     1401.226      583.054        0.658        0.139      100.676       21.948        0.048      337.450        9.432      862.019
03/04/2014  22:08:00      -50.567      101.938      -18.921       38.472       25.037       17.485     1480.081      626.868      305.738        0.786        0.121      113.791       15.800        0.019      337.483        9.486      862.007
03/04/2014  22:09:00       -3.754      100.644      -17.508       20.454       28.325       15.612      418.366      802.330      243.720        0.596        0.073      100.714       11.146        0.012      337.497        9.512      861.994
03/04/2014  22:10:00      -15.587      102.806      -16.818       24.195       38.320       16.875      585.399     1468.404      284.770        0.672        0.117      103.981       19.019        0.033      337.559        9.615      861.972
03/04/2014  22:11:00      -31.302       45.271       -6.535       27.649       27.254       14.137      764.485      742.760      199.845        0.239        0.085       55.039        6.967        0.016      337.697        9.846      861.950
03/04/2014  22:12:00      -33.428      -13.893       -3.125       17.807       20.976       20.746      317.105      440.012      430.402        0.125        0.059       36.200       15.783        0.190      337.370        9.298      861.946
03/04/2014  22:13:00      -34.429       28.293       -7.684       25.088       23.530       14.251      629.398      553.666      203.083        0.172        0.069       44.563        7.157        0.026      337.556        9.609      861.947
03/04/2014  22:14:00      -21.129       12.388       -4.619       26.675       23.886       14.587      711.556      570.544      212.791        0.106        0.075       24.493       10.864        0.197      337.484        9.488      861.941
03/04/2014  22:15:00      -31.748       44.201      -15.000       23.205       32.634       13.338      538.469     1064.953      177.889        0.248        0.089       54.421       16.447        0.091      337.553        9.604      861.917
03/04/2014  22:16:00      -20.732       12.671        2.631       14.803       18.028       12.934      219.130      325.014      167.299        0.065        0.036       24.297       11.910        0.240      337.518        9.546      861.899
03/04/2014  22:17:00      -40.183       18.849      -14.183       25.343       33.278       15.611      642.279     1107.394      243.693        0.208        0.100       44.384       13.935        0.099      337.453        9.437      861.899
03/04/2014  22:18:00      -61.397      -17.253       -7.704       26.967       15.364       13.581      727.192      236.059      184.434        0.264        0.057       63.775        9.688        0.023      337.199        9.011      861.891
03/04/2014  22:19:00      -50.754      -12.901       -4.524       36.612       18.448       18.048     1340.407      340.317      325.744        0.238        0.100       52.368       17.648        0.114      337.195        9.006      861.889
03/04/2014  22:20:00      -75.652       -5.197       -6.141       30.478       29.478       16.673      928.927      868.953      277.993        0.393        0.104       75.830       14.876        0.038      337.260        9.114      861.880
03/04/2014  22:21:00        2.722       -1.363        8.897       19.570       20.409       14.368      382.987      416.528      206.448        0.055        0.050        3.044        9.863       10.499      337.326        9.225      861.866
03/04/2014  22:22:00      -46.758       20.519      -10.913       20.471       22.375       16.390      419.070      500.662      268.630        0.196        0.059       51.062       14.681        0.083      337.460        9.448      861.857
03/04/2014  22:23:00      -68.854        0.726      -11.595       35.167       28.251       15.023     1236.695      798.115      225.688        0.357        0.113       68.858       14.483        0.044      337.388        9.328      861.833
03/04/2014  22:24:00     -147.494        8.002       -9.451       56.293       41.783       29.666     3168.916     1745.827      880.085        1.385        0.290      147.711       26.588        0.032      337.312        9.199      861.807
03/04/2014  22:25:00     -111.910       -6.205      -11.225       69.387       34.157       25.735     4814.503     1166.713      662.267        0.966        0.332      112.082       29.002        0.067      337.011        8.697      861.798
03/04/2014  22:26:00      -82.104        1.797       -6.284       46.120       25.649       23.231     2127.082      657.852      539.659        0.505        0.166       82.124       26.564        0.105      337.133        8.901      861.799
03/04/2014  22:27:00      -90.727      -30.350       -6.024       41.584       45.395       19.318     1729.192     2060.664      373.167        0.668        0.208       95.668       14.111        0.022      337.012        8.698      861.814
03/04/2014  22:28:00      -35.844      -24.489        3.374       32.512       34.613       18.083     1057.022     1198.078      326.978        0.224        0.129       43.411       17.980        0.172      337.032        8.731      861.837
03/04/2014  22:29:00     -117.875       -4.949      -13.233       31.823       28.974       20.157     1012.716      839.491      406.297        0.818        0.113      117.979       16.869        0.020      337.254        9.103      861.851
03/04/2014  22:30:00      -99.757      -31.791       -5.786       24.995       28.498       18.183      624.748      812.158      330.617        0.638        0.088      104.700        8.492        0.007      337.221        9.049      861.868
03/04/2014  22:31:00      -62.170      -33.073       -6.352       27.421       40.046       19.572      751.893     1603.712      383.068        0.387        0.137       70.420       17.335        0.061      337.143        8.918      861.883
03/04/2014  22:32:00     -145.079      -78.067      -14.053       27.794       29.803       15.887      772.502      888.243      252.399        1.463        0.096      164.750       10.091        0.004      337.020        8.711      861.894
03/04/2014  22:33:00      -92.723      -47.680       -0.958       43.647       37.484       22.970     1905.023     1405.044      527.618        0.735        0.192      104.264       20.648        0.039      336.970        8.628      861.903
03/04/2014  22:34:00      -52.126       -5.792        8.060       49.125       33.897       20.891     2413.290     1149.012      436.436        0.341        0.200       52.447       19.825        0.143      337.080        8.812      861.913
03/04/2014  22:35:00      -81.865      -11.764       -9.405       23.717       25.078       14.793      562.479      628.901      218.842        0.417        0.071       82.706       13.566        0.027      337.046        8.755      861.938
03/04/2014  22:36:00      -70.497      -45.365       -1.721       30.440       24.325       13.272      926.613      591.729      176.149        0.436        0.085       83.832       14.600        0.030      337.028        8.724      861.983
03/04/2014  22:37:00      -37.646      -29.761        2.068       28.026       17.549       11.461      785.468      307.967      131.345        0.177        0.061       47.989       13.592        0.080      337.060        8.778      862.027
03/04/2014  22:38:00      -44.209      -42.371       -6.512       19.242       11.251       10.965      370.246      126.574      120.239        0.220        0.031       61.235        7.242        0.014      337.113        8.866      862.055
03/04/2014  22:39:00      -87.276      -15.394       -6.086       29.070       17.690       15.614      845.040      312.930      243.803        0.465        0.070       88.623       15.988        0.033      337.088        8.826      862.062
03/04/2014  22:40:00     -124.036      -13.675      -21.639       19.240       19.113       13.264      370.173      365.295      175.935        0.848        0.046      124.788        5.843        0.002      337.154        8.937      862.065
03/04/2014  22:41:00     -175.867      -16.920      -18.123       30.947       24.201       21.426      957.703      585.686      459.072        1.677        0.100      176.679       15.536        0.008      337.204        9.020      862.064
03/04/2014  22:42:00     -161.975       -9.689       -9.243       65.722       51.738       27.705     4319.333     2676.837      767.594        1.709        0.388      162.265       29.554        0.033      337.256        9.106      862.067
03/04/2014  22:43:00     -135.119       24.571       -8.100       39.862       42.834       24.802     1588.977     1834.782      615.162        1.148        0.202      137.335       20.484        0.022      337.577        9.645      862.078
03/04/2014  22:44:00     -142.287       60.474       -5.657       55.305       27.393       23.071     3058.680      750.400      532.273        1.414        0.217      154.605       20.829        0.018      337.511        9.534      862.086
03/04/2014  22:45:00      -86.526       36.104       -7.310       33.205       37.114       21.507     1102.563     1377.443      462.549        0.589        0.147       93.756       20.177        0.046      337.354        9.271      862.085
03/04/2014  22:46:00      -40.068       80.474       -3.095       43.129       51.217       25.106     1860.088     2623.154      630.299        0.660        0.256       89.898       11.651        0.017      338.145       10.599      862.066
03/04/2014  22:47:00     -107.990       51.717      -22.073       33.063       49.546       23.600     1093.168     2454.801      556.944        0.946        0.205      119.735       27.796        0.054      338.161       10.625      862.080
03/04/2014  22:48:00     -154.106      -80.309       -1.880       58.838       50.774       32.107     3461.954     2577.988     1030.879        1.864        0.354      173.776       19.990        0.013      337.485        9.490      862.117
03/04/2014  22:49:00     -140.766      -28.867       -1.641       77.447       41.000       27.108     5998.047     1680.972      734.856        1.453        0.421      143.695       30.815        0.046      337.354        9.271      862.144
03/04/2014  22:50:00     -149.496      -18.225      -15.733       35.466       35.875       21.660     1257.846     1287.014      469.134        1.297        0.151      150.603       19.865        0.017      337.379        9.314      862.171
03/04/2014  22:51:00      -79.665      -26.817        0.742       42.900       38.920       19.493     1840.446     1514.782      379.964        0.540        0.187       84.057       17.617        0.044      337.494        9.507      862.186
03/04/2014  22:52:00      -41.224      -18.442       -0.902       25.185       23.351       15.581      634.280      545.284      242.780        0.173        0.071       45.161       10.214        0.051      337.563        9.623      862.196
03/04/2014  22:53:00     -135.156      -48.916       -5.612       36.946       24.258       16.313     1364.976      588.450      266.126        1.146        0.111      143.736       15.443        0.012      337.450        9.433      862.218
03/04/2014  22:54:00      -76.448      -28.612       -4.240       25.132       20.524       12.626      631.623      421.224      159.408        0.395        0.061       81.627       12.699        0.024      337.429        9.396      862.231
03/04/2014  22:55:00     -109.780      -32.376       -8.704       26.340       27.200       15.166      693.810      739.854      230.000        0.742        0.083      114.454        8.975        0.006      337.510        9.534      862.230
03/04/2014  22:56:00      -52.068      -33.596        3.351       42.552       21.287       18.459     1810.657      453.137      340.734        0.323        0.130       61.965       20.739        0.112      337.527        9.560      862.213
03/04/2014  22:57:00      -81.123      -20.618       -7.478       18.639       10.068       11.262      347.396      101.359      126.829        0.382        0.029       83.703        5.170        0.004      337.582        9.652      862.189
03/04/2014  22:58:00      -64.820      -46.623       -8.940       24.759       20.132       10.595      613.030      405.279      112.260        0.379        0.057       79.846       10.641        0.018      337.737        9.914      862.167
03/04/2014  22:59:00      -36.503      -44.976        2.435       59.368       25.836       14.496     3524.608      667.522      210.146        0.388        0.220       57.925       14.641        0.064      337.910       10.205      862.155
03/04/2014  23:00:00     -123.829      -81.718       -3.107       46.596       27.319       21.524     2171.220      746.315      463.263        1.270        0.169      148.363       23.812        0.026      337.901       10.189      862.170
03/04/2014  23:01:00      -50.491      -27.306        4.386       37.437       35.027       23.305     1401.538     1226.876      543.128        0.324        0.159       57.402       17.508        0.093      337.812       10.038      862.180
03/04/2014  23:02:00      -70.485      -42.006       -2.723       65.616       28.900       25.214     4305.422      835.232      635.755        0.626        0.289       82.053       35.513        0.187      337.878       10.150      862.183
03/04/2014  23:03:00      -89.207      -60.807       -0.836       47.042       32.317       22.014     2212.918     1044.400      484.619        0.770        0.187      107.960       23.056        0.046      337.766        9.962      862.182
03/04/2014  23:04:00      -62.508      -46.322       -0.123       33.457       23.283       21.434     1119.392      542.095      459.411        0.409        0.106       77.801       19.574        0.063      337.777        9.980      862.175
03/04/2014  23:05:00       -2.277      -11.720       12.452       19.476       17.688       17.881      379.321      312.876      319.740        0.065        0.051       11.939       14.353        1.445      337.806       10.029      862.166
03/04/2014  23:06:00       -2.731       -5.049        8.848        9.818       12.893        9.361       96.386      166.237       87.626        0.023        0.018        5.740        6.898        1.444      337.793       10.006      862.154
03/04/2014  23:07:00      -67.062       19.821       -9.256       34.407       20.524       14.905     1183.840      421.241      222.171        0.340        0.091       69.930        5.551        0.006      338.003       10.360      862.156
03/04/2014  23:08:00      -70.248      -22.714       -1.000       21.182       18.995       12.591      448.694      360.798      158.533        0.321        0.048       73.829        9.208        0.016      337.701        9.852      862.170
03/04/2014  23:09:00      -42.037       12.326       -4.267       43.826       44.480       17.961     1920.746     1978.449      322.591        0.308        0.211       43.807       19.737        0.203      337.580        9.650      862.189
03/04/2014  23:10:00       91.201       62.147       18.386       43.633       25.665       28.466     1903.867      658.718      810.320        0.794        0.169      110.362       19.095        0.030      337.621        9.719      862.129
03/04/2014  23:11:00       20.029       97.260      -14.938       35.750       67.936       23.002     1278.085     4615.285      529.106        0.825        0.321       99.301       33.721        0.115      337.533        9.571      862.131
03/04/2014  23:12:00       39.368      188.129      -37.707       35.684       36.864       19.831     1273.323     1358.932      393.253        2.069        0.151      192.204       15.430        0.006      337.436        9.406      862.136
03/04/2014  23:13:00       34.865       81.407       -1.620       57.655       64.082       47.492     3324.104     4106.521     2255.447        0.876        0.484       88.558       38.550        0.189      337.380        9.314      862.096
03/04/2014  23:14:00       26.256      135.493      -18.177       44.418       71.378       35.615     1972.986     5094.784     1268.422        1.386        0.417      138.014       37.923        0.076      337.396        9.339      862.062
03/04/2014  23:15:00       23.897      184.361      -39.676       37.152       85.363       29.345     1380.296     7286.807      861.125        2.283        0.476      185.903       40.200        0.047      337.403        9.351      862.053
03/04/2014  23:16:00       17.317      133.136      -25.174       53.061       39.298       23.120     2815.502     1544.324      534.535        1.178        0.245      134.257       22.538        0.028      337.332        9.235      862.045
03/04/2014  23:17:00       -3.642      124.647      -22.520       47.768       40.911       24.777     2281.741     1673.709      613.902        1.031        0.228      124.700       25.184        0.041      337.348        9.262      862.050
03/04/2014  23:18:00        1.588      144.444      -18.138       44.004       36.267       23.303     1936.322     1315.264      543.035        1.249        0.190      144.453       16.507        0.013      337.339        9.246      862.032
03/04/2014  23:19:00       -5.590      183.639      -26.944       47.730       47.567       24.335     2278.119     2262.604      592.205        1.981        0.257      183.724       27.846        0.023      337.389        9.329      862.022
03/04/2014  23:20:00       60.518       94.896        0.918       40.612       60.960       38.461     1649.372     3716.074     1479.284        0.976        0.342      112.551       36.836        0.107      337.360        9.281      861.986
03/04/2014  23:21:00       44.105       92.945      -16.133       31.237       51.844       27.520      975.767     2687.801      757.352        0.763        0.221      102.878       25.002        0.059      337.330        9.233      861.992
03/04/2014  23:22:00       44.488      132.085      -25.613       30.572       43.336       21.059      934.653     1878.001      443.461        1.167        0.163      139.376       19.861        0.020      337.339        9.247      861.999
03/04/2014  23:23:00       38.110      123.298      -25.293       28.129       46.964       23.859      791.216     2205.572      569.229        1.043        0.178      129.054       25.976        0.041      337.353        9.270      861.990
03/04/2014  23:24:00       27.805      138.877      -26.845       34.079       60.322       22.826     1161.356     3638.695      521.013        1.305        0.266      141.633       25.783        0.033      337.332        9.235      861.959
03/04/2014  23:25:00       28.376       72.420      -16.922       41.143       51.672       28.859     1692.773     2670.004      832.836        0.577        0.260       77.781       26.469        0.116      337.325        9.224      861.927
03/04/2014  23:26:00       39.037      110.840      -21.564       26.180       36.395       24.693      685.398     1324.606      609.720        0.845        0.131      117.513       19.235        0.027      337.345        9.255      861.939
03/04/2014  23:27:00       12.761      160.697      -28.090       29.279       59.565       19.160      857.247     3548.015      367.089        1.577        0.239      161.203       28.314        0.031      337.391        9.333      861.907
03/04/2014  23:28:00       31.752      191.109      -29.204       35.830       45.063       20.421     1283.767     2030.708      417.006        2.106        0.187      193.728       15.461        0.006      337.450        9.430      861.851
03/04/2014  23:29:00       46.432      110.490      -21.083       35.867       44.119       29.223     1286.424     1946.445      853.956        0.945        0.204      119.850       30.561        0.065      337.385        9.323      861.843
03/04/2014  23:30:00        6.691      160.892      -30.187       31.838       37.251       18.607     1013.641     1387.670      346.220        1.479        0.137      161.031       17.401        0.012      337.422        9.385      861.854
03/04/2014  23:31:00       21.926       98.795      -13.640       29.611       34.411       22.450      876.825     1184.092      503.997        0.650        0.128      101.198       22.254        0.048      337.358        9.278      861.849
03/04/2014  23:32:00       29.417      118.212      -27.837       30.037       54.739       20.905      902.208     2996.391      437.013        0.997        0.217      121.817       26.284        0.047      337.383        9.321      861.851
03/04/2014  23:33:00       -8.795      152.959      -34.788       27.240       32.356       13.660      742.045     1046.884      186.587        1.333        0.099      153.211       13.578        0.008      337.443        9.421      861.864
03/04/2014  23:34:00      -45.890      114.007      -18.282       34.549       41.410       27.007     1193.616     1714.754      729.399        0.954        0.182      122.896       23.040        0.035      337.604        9.690      861.895
03/04/2014  23:35:00       -9.567      158.279      -27.400       34.576       53.950       16.759     1195.517     2910.579      280.878        1.514        0.219      158.568       15.456        0.010      337.635        9.742      861.902
03/04/2014  23:36:00      -35.540       46.739        2.830       40.248       36.956       18.399     1619.930     1365.713      338.511        0.339        0.166       58.717       20.546        0.122      337.835       10.077      861.916
03/04/2014  23:37:00      -35.861       50.537      -10.660       33.284       26.662       20.633     1107.814      710.878      425.737        0.310        0.112       61.968       16.328        0.069      337.659        9.783      861.914
03/04/2014  23:38:00        4.860       46.245       -9.375       22.282       22.775       17.508      496.477      518.694      306.516        0.179        0.066       46.499       12.872        0.077      337.666        9.794      861.911
03/04/2014  23:39:00       -8.612      106.699      -13.608       17.397       28.467       16.882      302.657      810.375      285.010        0.652        0.070      107.046       14.980        0.020      337.663        9.790      861.916
03/04/2014  23:40:00      -35.880       22.447        1.541       23.608       30.360       18.784      557.331      921.702      352.853        0.181        0.092       42.323       10.852        0.066      337.763        9.956      861.913
03/04/2014  23:41:00      -61.244       33.112      -13.979       18.688       29.404       13.087      349.243      864.592      171.279        0.321        0.069       69.622        9.304        0.018      337.803       10.026      861.918
03/04/2014  23:42:00      -33.612       47.204      -14.636       44.915       21.731       20.218     2017.346      472.242      408.764        0.323        0.145       57.948       13.143        0.051      337.736        9.913      861.931
03/04/2014  23:43:00      -22.297       78.078      -25.425       72.185       57.123       29.810     5210.724     3263.058      888.656        0.830        0.468       81.199       33.989        0.175      337.670        9.801      861.903
03/04/2014  23:44:00       -9.956       69.803      -14.444       37.125       48.226       18.437     1378.230     2325.751      339.929        0.461        0.202       70.510       18.326        0.068      337.729        9.899      861.884
03/04/2014  23:45:00       15.703       38.360        3.349       31.955       21.253       18.299     1021.090      451.675      334.853        0.177        0.090       41.450       14.718        0.126      337.687        9.829      861.893
03/04/2014  23:46:00       35.260       34.955       -9.957       24.281       18.539       18.543      589.553      343.695      343.828        0.192        0.064       49.650        9.779        0.039      337.580        9.650      861.898
03/04/2014  23:47:00       51.476       27.212        7.056       25.722       23.576       22.124      661.644      555.825      489.462        0.257        0.085       58.226       16.349        0.079      337.560        9.618      861.928
03/04/2014  23:48:00       25.519       17.293       -6.812       15.958       14.811       21.984      254.644      219.364      483.280        0.098        0.048       30.827       13.620        0.195      337.569        9.629      861.938
03/04/2014  23:49:00       29.324      -78.866       -1.222       31.537       47.545       28.763      994.611     2260.515      827.297        0.558        0.204       84.141       26.764        0.101      337.607        9.696      861.940
03/04/2014  23:50:00       14.655      -49.927        2.465       30.415       38.466       25.476      925.050     1479.617      649.041        0.288        0.153       52.033       21.316        0.168      337.586        9.661      861.955
03/04/2014  23:51:00        8.650      -52.220       -3.029       22.274       27.814       22.383      496.125      773.636      501.003        0.229        0.089       52.931       14.928        0.080      337.632        9.737      861.968
03/04/2014  23:52:00       -9.886      -14.299       11.822       17.528       33.091       20.645      307.216     1095.010      426.199        0.113        0.091       17.383       20.644        1.410      337.545        9.590      861.969
03/04/2014  23:53:00      -11.929       19.844        7.583       11.957       17.725       15.998      142.979      314.174      255.944        0.065        0.036       23.154       10.954        0.224      337.532        9.569      861.962
03/04/2014  23:54:00       -5.145       18.763        7.012       24.449       13.185       13.782      597.752      173.850      189.941        0.069        0.048       19.456       14.925        0.589      337.490        9.499      861.968
03/04/2014  23:55:00       75.536       57.740       15.477       17.038       16.311       15.819      290.309      266.032      250.240        0.504        0.040       95.077       12.099        0.016      337.404        9.355      861.961
03/04/2014  23:56:00       32.266       12.033       -0.623       55.782       33.112       19.903     3111.617     1096.407      396.130        0.289        0.230       34.437       22.595        0.430      337.459        9.448      861.937
03/04/2014  23:57:00      -44.540       25.874       -9.332       19.757       22.376       16.731      390.354      500.679      279.918        0.196        0.059       51.510        8.414        0.027      337.645        9.759      861.913
03/04/2014  23:58:00       22.327       18.009        8.529       27.676       10.455       15.227      765.976      109.316      231.869        0.100        0.055       28.685       15.168        0.280      337.501        9.518      861.891
03/04/2014  23:59:00       50.352       45.525       25.725       31.847       20.982       21.150     1014.261      440.257      447.324        0.359        0.095       67.881       19.254        0.080      337.411        9.367      861.903
